GFSMA_prec_precacc_114.txt.gz
Total_Precipitation_Accumulation
0.89 0.56 0.34 0.08 0.03 0.02 0.04 0.04 0.07 0.12 0.14 0.13 0.11 0.11 0.07 0.05 0.03 0.01 0.00 0.01 0.01 0.01 0.01 0.01 0.04 0.17 0.28 0.28 0.25 0.20 0.19 0.18 0.24 0.36 0.36 0.28 0.26 0.31 0.35 0.31 0.22 0.16 0.13
0.72 0.37 0.21 0.11 0.06 0.03 0.01 0.03 0.03 0.04 0.05 0.06 0.10 0.10 0.06 0.05 0.03 0.03 0.02 0.02 0.02 0.01 0.00 0.01 0.01 0.08 0.22 0.26 0.31 0.30 0.27 0.22 0.19 0.24 0.33 0.33 0.31 0.32 0.31 0.29 0.29 0.30 0.27
0.59 0.34 0.19 0.07 0.03 0.00 0.00 0.00 0.00 0.02 0.04 0.07 0.12 0.19 0.16 0.09 0.06 0.05 0.04 0.05 0.06 0.08 0.07 0.02 0.00 0.03 0.10 0.19 0.25 0.24 0.23 0.26 0.22 0.20 0.24 0.25 0.27 0.31 0.47 0.35 0.34 0.37 0.32
0.50 0.28 0.17 0.08 0.02 0.01 0.00 0.00 0.00 0.00 0.01 0.04 0.05 0.04 0.02 0.04 0.04 0.03 0.02 0.03 0.07 0.11 0.16 0.15 0.08 0.04 0.05 0.07 0.14 0.20 0.26 0.24 0.23 0.25 0.24 0.20 0.21 0.22 0.33 0.48 0.48 0.55 0.59
0.75 0.21 0.12 0.10 0.06 0.02 0.00 0.00 0.00 0.00 0.00 0.00 0.00 0.01 0.01 0.01 0.02 0.03 0.02 0.01 0.01 0.03 0.08 0.10 0.13 0.13 0.11 0.11 0.12 0.16 0.22 0.30 0.42 0.37 0.35 0.39 0.39 0.30 0.26 0.25 0.34 0.55 0.89
1.07 0.46 0.21 0.09 0.13 0.05 0.04 0.01 0.00 0.00 0.00 0.00 0.00 0.00 0.00 0.02 0.02 0.03 0.03 0.02 0.02 0.02 0.02 0.04 0.05 0.07 0.11 0.19 0.26 0.26 0.26 0.23 0.25 0.54 1.03 1.10 0.74 0.59 0.57 0.47 0.34 0.33 0.55
0.68 0.49 0.14 0.08 0.06 0.04 0.05 0.02 0.00 0.01 0.01 0.01 0.01 0.00 0.00 0.00 0.01 0.04 0.05 0.08 0.08 0.07 0.05 0.05 0.06 0.04 0.04 0.09 0.17 0.30 0.37 0.37 0.33 0.32 0.37 0.87 1.53 1.27 0.81 0.65 0.64 0.50 0.42
0.58 0.25 0.09 0.10 0.02 0.03 0.03 0.02 0.01 0.02 0.02 0.02 0.03 0.02 0.00 0.00 0.00 0.01 0.03 0.07 0.08 0.12 0.12 0.08 0.08 0.07 0.03 0.02 0.02 0.07 0.21 0.48 0.54 0.44 0.46 0.64 0.76 1.02 1.15 0.90 0.79 0.79 0.77
0.62 0.41 0.11 0.05 0.04 0.03 0.02 0.02 0.01 0.01 0.02 0.02 0.02 0.03 0.02 0.01 0.01 0.00 0.01 0.05 0.07 0.07 0.08 0.09 0.08 0.09 0.06 0.04 0.05 0.06 0.06 0.09 0.18 0.30 0.35 0.50 0.90 1.40 1.27 1.04 0.70 0.57 0.60
0.45 0.32 0.15 0.06 0.05 0.06 0.03 0.04 0.03 0.03 0.02 0.02 0.02 0.01 0.03 0.05 0.06 0.04 0.00 0.00 0.04 0.07 0.11 0.13 0.14 0.14 0.13 0.11 0.11 0.15 0.09 0.04 0.06 0.11 0.20 0.33 0.52 0.71 1.13 1.40 1.31 0.95 0.68
0.53 0.34 0.21 0.12 0.11 0.09 0.16 0.10 0.06 0.08 0.07 0.05 0.04 0.04 0.03 0.02 0.03 0.08 0.06 0.02 0.03 0.05 0.06 0.11 0.15 0.21 0.26 0.28 0.21 0.14 0.12 0.10 0.08 0.07 0.13 0.19 0.35 0.58 0.78 0.89 0.94 1.17 1.20
0.87 0.47 0.27 0.17 0.17 0.18 0.24 0.22 0.22 0.16 0.17 0.14 0.09 0.09 0.08 0.09 0.10 0.16 0.26 0.20 0.15 0.10 0.05 0.07 0.09 0.12 0.18 0.28 0.33 0.26 0.14 0.11 0.14 0.15 0.17 0.21 0.23 0.36 0.53 0.83 1.03 0.92 0.91
1.36 0.78 0.36 0.24 0.24 0.28 0.32 0.35 0.36 0.32 0.28 0.34 0.31 0.35 0.42 0.42 0.44 0.50 0.54 0.39 0.26 0.18 0.15 0.06 0.06 0.06 0.07 0.20 0.38 0.43 0.34 0.25 0.14 0.14 0.21 0.26 0.28 0.38 0.60 0.76 0.93 1.24 1.34
0.94 0.98 0.71 0.38 0.35 0.39 0.40 0.49 0.64 0.69 0.82 1.02 1.09 0.97 0.87 0.72 0.60 0.52 0.52 0.54 0.47 0.15 0.10 0.11 0.08 0.13 0.13 0.14 0.27 0.37 0.31 0.30 0.36 0.36 0.22 0.20 0.31 0.39 0.46 0.61 0.88 0.97 1.01
0.58 0.80 1.02 0.91 0.67 0.59 0.61 0.73 0.88 1.09 1.15 1.06 1.01 0.95 0.75 0.55 0.49 0.39 0.32 0.35 0.50 0.32 0.08 0.02 0.03 0.06 0.14 0.21 0.29 0.40 0.51 0.48 0.41 0.39 0.45 0.41 0.33 0.38 0.60 0.71 0.76 0.89 1.11
0.57 0.89 1.11 1.27 1.19 0.92 0.91 1.14 1.22 1.11 1.09 1.00 0.86 0.74 0.61 0.41 0.35 0.36 0.35 0.30 0.32 0.48 0.50 0.18 0.11 0.07 0.10 0.14 0.17 0.26 0.47 0.60 0.48 0.45 0.48 0.51 0.51 0.49 0.44 0.64 0.93 0.99 1.03
0.69 0.95 1.24 1.44 1.60 1.50 1.37 1.36 1.20 0.96 0.79 0.78 0.74 0.61 0.47 0.43 0.46 0.40 0.43 0.48 0.52 0.57 0.59 0.27 0.14 0.11 0.13 0.13 0.15 0.27 0.41 0.60 0.69 0.51 0.34 0.40 0.49 0.56 0.62 0.57 0.63 1.00 1.39
0.84 1.05 1.34 1.53 1.50 1.49 1.42 1.42 1.33 1.17 1.01 0.83 0.71 0.76 0.69 0.59 0.55 0.44 0.40 0.35 0.32 0.34 0.56 0.54 0.31 0.31 0.37 0.28 0.20 0.18 0.21 0.32 0.48 0.65 0.60 0.36 0.31 0.39 0.52 0.69 0.73 0.74 0.91
1.25 1.31 1.33 1.33 1.40 1.26 1.22 1.02 0.84 0.67 0.56 0.48 0.46 0.43 0.36 0.34 0.30 0.26 0.27 0.31 0.42 0.59 0.78 0.78 0.57 0.42 0.35 0.30 0.26 0.25 0.20 0.19 0.25 0.51 0.60 0.66 0.52 0.35 0.35 0.41 0.52 0.63 0.62
1.03 0.81 0.75 0.58 0.39 0.34 0.39 0.52 0.39 0.35 0.33 0.30 0.29 0.29 0.25 0.28 0.32 0.45 0.58 0.70 0.79 0.83 0.74 0.67 0.60 0.58 0.50 0.40 0.38 0.40 0.41 0.41 0.41 0.48 0.69 0.79 0.78 0.65 0.45 0.38 0.42 0.47 0.57
0.41 0.32 0.25 0.19 0.18 0.18 0.28 0.28 0.24 0.19 0.22 0.21 0.28 0.38 0.44 0.60 0.57 0.48 0.45 0.40 0.47 0.56 0.62 0.69 0.68 0.61 0.55 0.52 0.54 0.57 0.57 0.52 0.49 0.45 0.52 0.58 0.67 0.75 0.79 0.60 0.45 0.47 0.55
0.22 0.20 0.19 0.18 0.18 0.17 0.36 0.35 0.30 0.25 0.32 0.37 0.43 0.40 0.41 0.64 0.49 0.65 0.63 0.67 0.66 0.71 0.71 0.71 0.73 0.71 0.64 0.60 0.60 0.63 0.61 0.55 0.48 0.31 0.35 0.42 0.55 0.64 0.70 0.72 0.59 0.47 0.43
0.17 0.15 0.13 0.12 0.17 0.26 0.58 0.40 0.43 0.25 0.32 0.43 0.50 0.57 0.65 0.78 0.87 0.58 0.73 0.68 0.63 0.64 0.63 0.67 0.74 0.59 0.55 0.45 0.42 0.43 0.37 0.36 0.31 0.20 0.32 0.38 0.38 0.51 0.52 0.68 0.74 0.54 0.47
0.16 0.15 0.21 0.31 0.35 0.55 0.73 0.48 0.52 0.36 0.47 0.56 0.58 0.54 0.53 0.56 0.66 0.61 0.54 0.59 0.52 0.41 0.33 0.29 0.36 0.31 0.24 0.21 0.28 0.36 0.42 0.47 0.33 0.15 0.26 0.60 0.30 0.40 0.40 0.46 0.67 0.86 0.75
0.22 0.24 0.29 0.32 0.33 0.43 0.64 0.41 0.32 0.21 0.30 0.33 0.35 0.44 0.51 0.57 0.79 0.67 0.68 0.67 0.38 0.23 0.17 0.17 0.21 0.23 0.23 0.25 0.31 0.64 0.71 0.76 0.53 0.19 0.22 0.52 0.31 0.35 0.40 0.52 0.65 0.70 0.90
0.23 0.26 0.31 0.30 0.38 0.23 0.46 0.32 0.25 0.20 0.38 0.39 0.45 0.59 0.69 0.47 0.51 0.44 0.60 0.62 0.55 0.23 0.15 0.19 0.18 0.13 0.09 0.13 0.15 0.45 0.63 0.83 0.61 0.50 0.25 0.50 0.31 0.39 0.68 0.53 0.52 0.72 0.83

GFSMA_prec_precacc_117.txt.gz
Total_Precipitation_Accumulation
0.92 0.57 0.37 0.16 0.08 0.02 0.04 0.04 0.07 0.12 0.14 0.13 0.11 0.11 0.07 0.05 0.03 0.01 0.00 0.01 0.01 0.01 0.01 0.01 0.04 0.17 0.28 0.28 0.25 0.20 0.19 0.18 0.24 0.36 0.36 0.28 0.26 0.31 0.35 0.31 0.22 0.16 0.13
0.77 0.40 0.28 0.15 0.09 0.05 0.01 0.03 0.03 0.04 0.05 0.06 0.10 0.10 0.06 0.05 0.03 0.03 0.02 0.02 0.02 0.01 0.01 0.01 0.01 0.09 0.22 0.26 0.31 0.30 0.27 0.22 0.19 0.24 0.33 0.33 0.31 0.32 0.31 0.29 0.29 0.30 0.27
0.64 0.41 0.26 0.11 0.05 0.02 0.00 0.00 0.00 0.02 0.04 0.07 0.12 0.19 0.16 0.09 0.06 0.05 0.04 0.05 0.06 0.08 0.07 0.02 0.01 0.03 0.10 0.19 0.25 0.24 0.23 0.26 0.22 0.20 0.24 0.25 0.27 0.31 0.47 0.35 0.34 0.37 0.32
0.55 0.39 0.28 0.14 0.03 0.02 0.00 0.00 0.00 0.00 0.01 0.04 0.05 0.04 0.02 0.04 0.04 0.03 0.02 0.03 0.07 0.11 0.16 0.15 0.09 0.04 0.05 0.07 0.14 0.20 0.26 0.24 0.23 0.25 0.24 0.20 0.21 0.22 0.33 0.48 0.48 0.55 0.59
0.83 0.32 0.32 0.20 0.10 0.03 0.00 0.00 0.00 0.00 0.00 0.00 0.00 0.01 0.01 0.01 0.02 0.03 0.02 0.01 0.01 0.03 0.08 0.10 0.13 0.13 0.11 0.11 0.12 0.16 0.22 0.30 0.42 0.37 0.35 0.39 0.39 0.30 0.26 0.25 0.34 0.55 0.89
1.23 0.72 0.46 0.28 0.21 0.10 0.05 0.01 0.00 0.00 0.00 0.00 0.00 0.00 0.00 0.02 0.02 0.03 0.03 0.02 0.02 0.02 0.02 0.04 0.05 0.07 0.11 0.19 0.26 0.26 0.26 0.23 0.25 0.54 1.03 1.10 0.74 0.59 0.57 0.47 0.34 0.33 0.55
0.82 1.03 0.46 0.20 0.14 0.10 0.06 0.02 0.00 0.01 0.01 0.01 0.01 0.00 0.00 0.00 0.01 0.04 0.05 0.08 0.08 0.07 0.05 0.05 0.06 0.04 0.04 0.09 0.17 0.30 0.37 0.37 0.33 0.32 0.37 0.87 1.53 1.27 0.81 0.65 0.64 0.50 0.42
0.64 0.71 0.47 0.24 0.08 0.07 0.05 0.02 0.01 0.02 0.02 0.02 0.03 0.02 0.00 0.00 0.00 0.01 0.03 0.07 0.08 0.12 0.12 0.08 0.08 0.07 0.03 0.02 0.02 0.07 0.21 0.48 0.54 0.44 0.46 0.64 0.76 1.02 1.15 0.90 0.79 0.79 0.77
0.74 0.61 0.43 0.25 0.09 0.04 0.03 0.02 0.01 0.01 0.02 0.02 0.02 0.03 0.02 0.01 0.01 0.00 0.01 0.05 0.07 0.07 0.08 0.09 0.08 0.09 0.06 0.04 0.05 0.06 0.06 0.09 0.18 0.30 0.35 0.50 0.90 1.40 1.28 1.05 0.71 0.57 0.60
0.57 0.46 0.35 0.34 0.14 0.07 0.04 0.04 0.03 0.03 0.02 0.02 0.02 0.01 0.03 0.05 0.06 0.04 0.00 0.00 0.04 0.07 0.11 0.13 0.14 0.14 0.13 0.11 0.11 0.15 0.09 0.04 0.06 0.11 0.20 0.33 0.52 0.71 1.14 1.41 1.33 0.98 0.70
0.58 0.50 0.37 0.33 0.22 0.11 0.17 0.10 0.06 0.08 0.07 0.05 0.04 0.04 0.03 0.02 0.03 0.08 0.06 0.02 0.03 0.05 0.06 0.11 0.15 0.21 0.26 0.28 0.21 0.14 0.12 0.10 0.08 0.07 0.13 0.19 0.35 0.58 0.78 0.89 0.96 1.20 1.23
0.88 0.54 0.46 0.32 0.26 0.22 0.25 0.22 0.22 0.16 0.17 0.14 0.09 0.09 0.08 0.09 0.10 0.16 0.26 0.20 0.15 0.10 0.05 0.07 0.09 0.12 0.18 0.28 0.33 0.26 0.14 0.11 0.14 0.15 0.17 0.21 0.23 0.36 0.53 0.83 1.03 0.93 0.93
1.39 0.78 0.42 0.35 0.31 0.31 0.33 0.36 0.36 0.32 0.28 0.34 0.31 0.35 0.42 0.42 0.44 0.50 0.54 0.39 0.26 0.18 0.15 0.06 0.06 0.06 0.07 0.20 0.38 0.43 0.34 0.25 0.14 0.14 0.21 0.26 0.28 0.38 0.60 0.76 0.93 1.25 1.35
1.00 1.01 0.71 0.39 0.39 0.44 0.42 0.50 0.64 0.69 0.82 1.02 1.09 0.97 0.87 0.72 0.60 0.52 0.52 0.54 0.48 0.15 0.10 0.11 0.08 0.13 0.13 0.15 0.27 0.37 0.31 0.31 0.37 0.36 0.22 0.20 0.31 0.39 0.47 0.64 0.92 1.01 1.04
0.60 0.86 1.07 0.93 0.68 0.61 0.63 0.74 0.88 1.09 1.15 1.07 1.01 0.95 0.75 0.56 0.50 0.39 0.33 0.35 0.51 0.32 0.08 0.02 0.03 0.07 0.16 0.23 0.31 0.41 0.52 0.50 0.42 0.39 0.45 0.41 0.33 0.39 0.62 0.74 0.78 0.91 1.12
0.58 0.91 1.17 1.51 1.48 1.03 0.94 1.16 1.24 1.12 1.09 1.02 0.91 0.81 0.70 0.51 0.43 0.43 0.42 0.36 0.37 0.51 0.53 0.18 0.13 0.12 0.13 0.15 0.18 0.26 0.47 0.61 0.48 0.46 0.49 0.53 0.54 0.53 0.48 0.67 0.94 1.00 1.05
0.69 0.95 1.29 1.68 2.08 1.85 1.59 1.46 1.28 1.02 0.83 0.80 0.80 0.76 0.68 0.64 0.68 0.59 0.58 0.59 0.59 0.64 0.64 0.28 0.19 0.18 0.18 0.17 0.16 0.27 0.42 0.61 0.73 0.57 0.36 0.41 0.50 0.57 0.62 0.58 0.63 1.01 1.39
0.84 1.05 1.36 1.71 1.85 1.83 1.66 1.71 1.59 1.36 1.22 0.98 0.80 0.87 0.84 0.76 0.75 0.62 0.56 0.46 0.39 0.41 0.63 0.58 0.37 0.38 0.43 0.32 0.22 0.19 0.23 0.35 0.51 0.68 0.61 0.36 0.31 0.39 0.52 0.69 0.73 0.74 0.91
1.26 1.31 1.34 1.45 1.62 1.49 1.47 1.34 1.17 1.02 0.98 0.86 0.66 0.55 0.49 0.47 0.41 0.36 0.34 0.37 0.47 0.63 0.81 0.83 0.67 0.51 0.42 0.33 0.29 0.28 0.24 0.22 0.27 0.54 0.60 0.66 0.52 0.35 0.35 0.41 0.52 0.63 0.62
1.04 0.82 0.75 0.60 0.55 0.62 0.68 0.84 0.84 0.92 0.90 0.76 0.58 0.48 0.38 0.36 0.39 0.51 0.63 0.74 0.83 0.86 0.76 0.68 0.61 0.60 0.55 0.45 0.42 0.44 0.44 0.44 0.43 0.49 0.69 0.80 0.78 0.65 0.45 0.38 0.42 0.47 0.57
0.41 0.32 0.25 0.19 0.20 0.31 0.60 0.58 0.67 0.55 0.55 0.49 0.40 0.45 0.54 0.70 0.65 0.57 0.53 0.46 0.51 0.58 0.63 0.71 0.70 0.63 0.56 0.53 0.55 0.58 0.58 0.52 0.49 0.45 0.52 0.59 0.68 0.75 0.79 0.60 0.45 0.47 0.55
0.23 0.21 0.19 0.18 0.20 0.21 0.51 0.57 0.64 0.50 0.48 0.57 0.56 0.45 0.44 0.70 0.55 0.70 0.67 0.69 0.67 0.72 0.72 0.71 0.74 0.73 0.66 0.62 0.61 0.64 0.61 0.55 0.48 0.31 0.35 0.42 0.55 0.64 0.70 0.72 0.59 0.47 0.43
0.19 0.16 0.15 0.13 0.18 0.30 0.68 0.54 0.68 0.42 0.39 0.57 0.61 0.62 0.68 0.80 0.88 0.59 0.74 0.68 0.64 0.66 0.64 0.69 0.76 0.61 0.56 0.46 0.42 0.43 0.37 0.36 0.31 0.20 0.32 0.38 0.38 0.51 0.52 0.68 0.74 0.54 0.47
0.17 0.17 0.23 0.33 0.36 0.58 0.77 0.54 0.59 0.42 0.51 0.58 0.60 0.55 0.53 0.56 0.67 0.61 0.54 0.60 0.53 0.41 0.34 0.30 0.36 0.31 0.24 0.21 0.28 0.36 0.42 0.47 0.33 0.15 0.26 0.60 0.30 0.40 0.40 0.46 0.67 0.86 0.75
0.24 0.25 0.30 0.34 0.35 0.44 0.69 0.46 0.34 0.21 0.31 0.35 0.36 0.45 0.52 0.58 0.83 0.68 0.68 0.67 0.38 0.24 0.19 0.18 0.22 0.23 0.24 0.26 0.31 0.64 0.71 0.76 0.53 0.19 0.22 0.52 0.31 0.35 0.40 0.52 0.65 0.70 0.90
0.25 0.29 0.33 0.31 0.41 0.24 0.49 0.37 0.29 0.22 0.41 0.42 0.47 0.62 0.72 0.50 0.54 0.45 0.60 0.62 0.56 0.24 0.16 0.19 0.20 0.16 0.12 0.15 0.16 0.46 0.64 0.83 0.61 0.50 0.25 0.50 0.31 0.39 0.68 0.53 0.52 0.72 0.83

GFSMA_prec_precacc_120.txt.gz
Total_Precipitation_Accumulation
0.93 0.59 0.39 0.17 0.12 0.08 0.08 0.04 0.07 0.12 0.15 0.14 0.11 0.11 0.07 0.05 0.03 0.01 0.00 0.01 0.01 0.01 0.01 0.02 0.04 0.17 0.28 0.28 0.25 0.21 0.19 0.19 0.24 0.36 0.36 0.28 0.26 0.31 0.35 0.31 0.22 0.16 0.13
0.78 0.42 0.31 0.24 0.21 0.14 0.05 0.03 0.03 0.04 0.05 0.06 0.10 0.10 0.06 0.05 0.03 0.03 0.02 0.02 0.02 0.02 0.01 0.01 0.01 0.09 0.22 0.26 0.31 0.30 0.27 0.23 0.20 0.24 0.33 0.33 0.31 0.32 0.31 0.29 0.29 0.30 0.27
0.67 0.45 0.29 0.19 0.12 0.15 0.09 0.03 0.01 0.02 0.04 0.07 0.13 0.20 0.16 0.09 0.06 0.05 0.04 0.05 0.06 0.08 0.08 0.02 0.01 0.03 0.10 0.19 0.25 0.24 0.23 0.26 0.22 0.20 0.24 0.25 0.27 0.31 0.47 0.35 0.34 0.37 0.32
0.56 0.45 0.34 0.19 0.08 0.08 0.06 0.01 0.00 0.00 0.01 0.04 0.06 0.04 0.02 0.04 0.04 0.03 0.02 0.03 0.07 0.11 0.16 0.15 0.09 0.05 0.05 0.07 0.14 0.20 0.26 0.24 0.23 0.25 0.24 0.20 0.21 0.22 0.33 0.48 0.48 0.55 0.59
0.85 0.33 0.35 0.26 0.19 0.11 0.03 0.02 0.00 0.00 0.00 0.00 0.01 0.01 0.01 0.01 0.02 0.03 0.02 0.01 0.01 0.03 0.08 0.10 0.13 0.13 0.11 0.11 0.12 0.16 0.22 0.30 0.42 0.37 0.35 0.39 0.39 0.30 0.26 0.25 0.34 0.55 0.89
1.24 0.74 0.50 0.38 0.31 0.28 0.12 0.03 0.00 0.00 0.00 0.00 0.00 0.00 0.00 0.02 0.02 0.03 0.03 0.02 0.02 0.02 0.02 0.04 0.05 0.07 0.11 0.19 0.26 0.26 0.26 0.23 0.25 0.54 1.03 1.10 0.74 0.59 0.57 0.47 0.34 0.33 0.55
0.84 1.06 0.64 0.35 0.27 0.32 0.19 0.04 0.00 0.01 0.02 0.01 0.01 0.01 0.00 0.00 0.01 0.04 0.06 0.08 0.08 0.07 0.05 0.05 0.06 0.04 0.04 0.09 0.17 0.30 0.37 0.37 0.34 0.32 0.37 0.87 1.53 1.27 0.81 0.65 0.64 0.50 0.42
0.65 0.74 0.73 0.58 0.23 0.22 0.27 0.07 0.01 0.02 0.02 0.02 0.03 0.02 0.01 0.01 0.01 0.01 0.03 0.07 0.08 0.12 0.12 0.08 0.08 0.07 0.03 0.02 0.02 0.07 0.21 0.48 0.54 0.44 0.46 0.64 0.76 1.02 1.15 0.90 0.79 0.79 0.77
0.75 0.65 0.63 0.68 0.35 0.21 0.20 0.10 0.02 0.01 0.02 0.02 0.02 0.03 0.03 0.01 0.01 0.00 0.01 0.05 0.07 0.07 0.08 0.09 0.08 0.09 0.06 0.04 0.05 0.06 0.06 0.09 0.18 0.30 0.35 0.50 0.90 1.41 1.29 1.06 0.72 0.58 0.60
0.58 0.48 0.42 0.64 0.48 0.18 0.13 0.11 0.05 0.04 0.02 0.02 0.02 0.01 0.03 0.05 0.06 0.04 0.00 0.00 0.04 0.07 0.11 0.13 0.15 0.14 0.13 0.11 0.11 0.15 0.09 0.04 0.06 0.11 0.20 0.33 0.52 0.71 1.15 1.42 1.35 1.00 0.72
0.58 0.51 0.44 0.56 0.54 0.30 0.24 0.15 0.09 0.08 0.08 0.05 0.04 0.04 0.03 0.02 0.03 0.08 0.06 0.02 0.03 0.05 0.06 0.11 0.15 0.21 0.26 0.28 0.21 0.14 0.12 0.10 0.08 0.07 0.13 0.19 0.35 0.58 0.78 0.90 0.96 1.20 1.24
0.89 0.54 0.49 0.54 0.57 0.48 0.36 0.28 0.25 0.17 0.17 0.14 0.09 0.09 0.08 0.09 0.10 0.16 0.26 0.20 0.15 0.10 0.05 0.07 0.09 0.12 0.18 0.28 0.33 0.26 0.14 0.11 0.14 0.15 0.17 0.21 0.23 0.36 0.53 0.83 1.03 0.93 0.93
1.40 0.79 0.42 0.44 0.59 0.62 0.47 0.41 0.37 0.32 0.28 0.34 0.31 0.35 0.42 0.42 0.44 0.50 0.54 0.39 0.26 0.18 0.15 0.06 0.06 0.06 0.07 0.20 0.38 0.43 0.34 0.25 0.14 0.14 0.21 0.26 0.28 0.38 0.60 0.77 0.93 1.25 1.35
1.02 1.01 0.71 0.40 0.53 0.73 0.61 0.57 0.65 0.69 0.82 1.02 1.09 0.97 0.87 0.72 0.60 0.52 0.52 0.54 0.48 0.15 0.10 0.11 0.08 0.13 0.13 0.15 0.27 0.37 0.31 0.31 0.37 0.36 0.23 0.21 0.31 0.39 0.47 0.64 0.93 1.02 1.05
0.66 0.92 1.08 0.93 0.69 0.71 0.82 0.81 0.90 1.09 1.15 1.07 1.01 0.95 0.75 0.56 0.50 0.39 0.33 0.35 0.51 0.34 0.10 0.03 0.04 0.07 0.16 0.23 0.31 0.42 0.53 0.51 0.43 0.42 0.47 0.43 0.34 0.39 0.62 0.74 0.78 0.92 1.13
0.60 0.97 1.26 1.58 1.49 1.04 0.98 1.25 1.29 1.13 1.10 1.02 0.91 0.81 0.70 0.51 0.43 0.43 0.42 0.36 0.38 0.52 0.55 0.20 0.16 0.14 0.15 0.17 0.21 0.28 0.48 0.61 0.49 0.46 0.49 0.53 0.55 0.54 0.49 0.67 0.94 1.00 1.05
0.70 0.98 1.38 1.85 2.33 2.03 1.66 1.48 1.32 1.05 0.84 0.80 0.80 0.76 0.68 0.64 0.69 0.61 0.60 0.63 0.64 0.68 0.68 0.33 0.29 0.26 0.25 0.24 0.23 0.32 0.46 0.62 0.74 0.58 0.37 0.41 0.51 0.57 0.62 0.58 0.63 1.01 1.39
0.85 1.05 1.37 1.77 2.09 2.36 2.07 1.84 1.64 1.39 1.23 0.99 0.80 0.88 0.86 0.78 0.78 0.65 0.59 0.51 0.46 0.47 0.71 0.68 0.55 0.52 0.55 0.42 0.31 0.26 0.29 0.38 0.53 0.71 0.62 0.37 0.31 0.39 0.52 0.69 0.73 0.74 0.91
1.26 1.31 1.35 1.46 1.66 1.72 1.95 1.67 1.32 1.12 1.07 0.94 0.73 0.61 0.56 0.54 0.46 0.38 0.37 0.42 0.53 0.71 0.92 0.98 0.83 0.66 0.55 0.43 0.37 0.34 0.28 0.25 0.28 0.55 0.61 0.66 0.52 0.35 0.35 0.41 0.52 0.63 0.62
1.04 0.82 0.75 0.61 0.57 0.73 0.94 1.07 1.08 1.15 1.13 1.08 0.94 0.82 0.63 0.52 0.48 0.55 0.67 0.81 0.91 0.97 0.91 0.84 0.76 0.72 0.63 0.50 0.46 0.47 0.47 0.45 0.44 0.49 0.69 0.81 0.78 0.66 0.46 0.38 0.42 0.47 0.57
0.41 0.33 0.26 0.19 0.21 0.39 0.81 0.85 0.96 0.88 1.03 0.98 0.90 0.90 0.93 0.97 0.80 0.64 0.60 0.54 0.61 0.71 0.76 0.83 0.81 0.72 0.63 0.58 0.58 0.59 0.58 0.52 0.49 0.46 0.53 0.60 0.68 0.75 0.79 0.60 0.45 0.47 0.55
0.23 0.21 0.19 0.18 0.20 0.22 0.65 0.78 0.86 0.78 0.84 0.97 0.91 0.70 0.63 0.86 0.70 0.83 0.79 0.83 0.80 0.82 0.79 0.77 0.78 0.76 0.69 0.64 0.62 0.65 0.62 0.56 0.48 0.31 0.35 0.42 0.55 0.64 0.70 0.72 0.59 0.48 0.43
0.19 0.16 0.15 0.13 0.18 0.31 0.70 0.61 0.85 0.64 0.58 0.79 0.95 0.86 0.79 0.92 0.99 0.66 0.82 0.76 0.70 0.71 0.67 0.70 0.77 0.61 0.56 0.46 0.42 0.44 0.37 0.36 0.31 0.20 0.32 0.38 0.39 0.52 0.52 0.70 0.75 0.55 0.48
0.18 0.17 0.23 0.33 0.37 0.60 0.79 0.57 0.69 0.68 0.62 0.68 0.75 0.75 0.66 0.63 0.76 0.68 0.59 0.62 0.54 0.42 0.35 0.30 0.36 0.31 0.24 0.21 0.28 0.36 0.42 0.47 0.34 0.15 0.26 0.60 0.31 0.41 0.41 0.47 0.67 0.87 0.75
0.24 0.25 0.30 0.34 0.35 0.45 0.72 0.49 0.37 0.30 0.39 0.44 0.41 0.50 0.57 0.61 0.87 0.70 0.69 0.67 0.38 0.24 0.21 0.19 0.22 0.23 0.24 0.26 0.31 0.64 0.72 0.77 0.55 0.20 0.22 0.53 0.31 0.36 0.40 0.52 0.65 0.70 0.90
0.25 0.30 0.33 0.31 0.43 0.24 0.52 0.40 0.31 0.22 0.43 0.44 0.50 0.66 0.76 0.51 0.56 0.45 0.60 0.62 0.56 0.24 0.16 0.20 0.20 0.16 0.13 0.16 0.17 0.47 0.64 0.83 0.62 0.51 0.25 0.50 0.31 0.39 0.68 0.53 0.52 0.72 0.83

GFSMA_prec_precacc_123.txt.gz
Total_Precipitation_Accumulation
0.97 0.65 0.46 0.20 0.12 0.13 0.16 0.12 0.12 0.18 0.16 0.14 0.11 0.11 0.07 0.05 0.03 0.01 0.00 0.01 0.02 0.02 0.02 0.02 0.05 0.18 0.28 0.28 0.25 0.21 0.19 0.19 0.24 0.36 0.36 0.28 0.26 0.31 0.35 0.31 0.22 0.16 0.13
0.81 0.45 0.34 0.31 0.30 0.27 0.20 0.16 0.08 0.08 0.05 0.06 0.11 0.11 0.06 0.05 0.03 0.03 0.02 0.02 0.03 0.02 0.02 0.02 0.02 0.09 0.22 0.26 0.31 0.30 0.27 0.23 0.20 0.24 0.33 0.33 0.31 0.32 0.31 0.29 0.29 0.30 0.27
0.71 0.47 0.32 0.26 0.22 0.30 0.41 0.32 0.16 0.07 0.05 0.08 0.14 0.20 0.16 0.09 0.06 0.05 0.04 0.05 0.06 0.09 0.08 0.03 0.01 0.04 0.10 0.19 0.25 0.24 0.23 0.26 0.22 0.20 0.24 0.25 0.27 0.31 0.47 0.35 0.34 0.37 0.32
0.59 0.50 0.35 0.21 0.17 0.26 0.39 0.39 0.13 0.05 0.02 0.06 0.09 0.05 0.02 0.04 0.04 0.03 0.02 0.03 0.07 0.11 0.16 0.15 0.09 0.05 0.06 0.07 0.14 0.20 0.26 0.24 0.23 0.25 0.24 0.20 0.21 0.22 0.33 0.48 0.48 0.55 0.59
0.86 0.36 0.37 0.27 0.24 0.15 0.19 0.28 0.16 0.03 0.01 0.02 0.03 0.02 0.01 0.01 0.02 0.03 0.02 0.01 0.01 0.03 0.08 0.10 0.13 0.13 0.11 0.11 0.12 0.16 0.22 0.30 0.42 0.37 0.35 0.39 0.39 0.30 0.26 0.25 0.34 0.55 0.89
1.25 0.76 0.51 0.39 0.34 0.33 0.25 0.20 0.13 0.03 0.01 0.00 0.02 0.01 0.00 0.02 0.02 0.03 0.03 0.02 0.02 0.02 0.02 0.04 0.05 0.07 0.11 0.19 0.26 0.26 0.26 0.23 0.25 0.54 1.03 1.10 0.74 0.59 0.57 0.47 0.34 0.33 0.55
0.85 1.07 0.65 0.37 0.28 0.36 0.35 0.28 0.12 0.03 0.03 0.03 0.04 0.02 0.01 0.00 0.01 0.04 0.06 0.08 0.08 0.07 0.05 0.05 0.06 0.04 0.04 0.09 0.17 0.30 0.37 0.37 0.34 0.32 0.37 0.87 1.53 1.27 0.81 0.65 0.64 0.50 0.42
0.66 0.76 0.74 0.60 0.24 0.26 0.35 0.36 0.31 0.08 0.04 0.06 0.04 0.03 0.02 0.03 0.01 0.01 0.03 0.07 0.08 0.12 0.12 0.08 0.08 0.07 0.03 0.02 0.02 0.07 0.21 0.48 0.54 0.44 0.46 0.65 0.76 1.03 1.15 0.90 0.79 0.79 0.77
0.75 0.66 0.64 0.70 0.41 0.29 0.36 0.27 0.29 0.13 0.04 0.05 0.04 0.03 0.03 0.02 0.01 0.00 0.01 0.05 0.07 0.07 0.08 0.09 0.08 0.09 0.06 0.04 0.05 0.06 0.06 0.09 0.18 0.30 0.35 0.51 0.91 1.42 1.31 1.08 0.73 0.58 0.61
0.58 0.49 0.43 0.66 0.61 0.38 0.30 0.28 0.24 0.12 0.04 0.03 0.03 0.02 0.03 0.05 0.06 0.04 0.01 0.00 0.04 0.07 0.11 0.13 0.15 0.14 0.13 0.11 0.11 0.15 0.09 0.04 0.06 0.11 0.20 0.33 0.52 0.71 1.15 1.42 1.35 1.00 0.72
0.59 0.53 0.45 0.57 0.64 0.48 0.46 0.33 0.28 0.22 0.11 0.07 0.05 0.04 0.03 0.02 0.03 0.08 0.06 0.03 0.04 0.05 0.06 0.11 0.15 0.21 0.26 0.28 0.21 0.14 0.12 0.10 0.08 0.07 0.13 0.19 0.35 0.58 0.78 0.90 0.96 1.20 1.24
0.89 0.55 0.49 0.55 0.63 0.64 0.54 0.45 0.43 0.27 0.21 0.16 0.11 0.09 0.08 0.09 0.10 0.16 0.26 0.20 0.15 0.10 0.05 0.07 0.09 0.12 0.18 0.29 0.35 0.26 0.14 0.11 0.14 0.15 0.17 0.21 0.23 0.36 0.53 0.83 1.04 0.94 0.93
1.40 0.79 0.42 0.44 0.65 0.75 0.69 0.59 0.60 0.50 0.32 0.35 0.32 0.36 0.42 0.42 0.44 0.50 0.54 0.39 0.27 0.20 0.16 0.08 0.07 0.07 0.08 0.25 0.39 0.43 0.34 0.25 0.14 0.14 0.21 0.26 0.28 0.38 0.60 0.77 0.94 1.25 1.35
1.02 1.02 0.71 0.40 0.55 0.84 0.85 0.86 0.89 0.92 0.92 1.07 1.12 0.98 0.87 0.72 0.60 0.52 0.52 0.55 0.50 0.17 0.12 0.14 0.10 0.15 0.14 0.15 0.27 0.37 0.31 0.31 0.37 0.37 0.24 0.21 0.32 0.39 0.47 0.64 0.93 1.02 1.05
0.67 0.92 1.08 0.93 0.69 0.76 1.06 1.13 1.14 1.30 1.29 1.13 1.06 0.97 0.76 0.56 0.50 0.39 0.33 0.35 0.51 0.35 0.10 0.03 0.05 0.07 0.16 0.23 0.31 0.42 0.53 0.51 0.44 0.42 0.47 0.43 0.34 0.39 0.62 0.74 0.79 0.92 1.13
0.61 0.98 1.29 1.59 1.49 1.05 1.03 1.49 1.52 1.29 1.20 1.07 0.94 0.83 0.71 0.51 0.43 0.43 0.42 0.36 0.38 0.53 0.55 0.21 0.17 0.15 0.16 0.18 0.24 0.30 0.48 0.63 0.49 0.46 0.49 0.53 0.55 0.54 0.49 0.68 0.95 1.01 1.05
0.71 0.99 1.39 1.89 2.40 2.07 1.67 1.50 1.45 1.19 0.91 0.83 0.81 0.77 0.68 0.65 0.69 0.61 0.60 0.63 0.64 0.68 0.71 0.36 0.31 0.30 0.31 0.29 0.28 0.37 0.49 0.65 0.77 0.61 0.37 0.42 0.51 0.57 0.62 0.58 0.63 1.01 1.39
0.86 1.06 1.38 1.82 2.17 2.49 2.30 1.96 1.68 1.48 1.32 1.02 0.81 0.89 0.86 0.79 0.78 0.65 0.59 0.51 0.46 0.47 0.72 0.72 0.64 0.61 0.65 0.50 0.39 0.32 0.31 0.39 0.53 0.74 0.63 0.37 0.31 0.39 0.52 0.69 0.73 0.74 0.91
1.27 1.32 1.36 1.48 1.70 1.80 2.11 1.89 1.49 1.17 1.11 0.98 0.75 0.62 0.56 0.54 0.46 0.39 0.38 0.42 0.53 0.72 0.94 1.08 1.02 0.80 0.66 0.51 0.45 0.39 0.30 0.26 0.29 0.57 0.61 0.67 0.52 0.35 0.35 0.41 0.52 0.63 0.62
1.04 0.82 0.76 0.62 0.58 0.74 1.01 1.24 1.30 1.34 1.19 1.10 0.99 0.87 0.67 0.54 0.50 0.60 0.73 0.84 0.93 0.99 0.94 0.92 0.87 0.81 0.69 0.55 0.50 0.50 0.48 0.46 0.44 0.49 0.70 0.81 0.79 0.66 0.46 0.38 0.42 0.47 0.57
0.41 0.33 0.26 0.20 0.22 0.40 0.82 0.90 1.07 1.09 1.27 1.19 1.10 1.12 1.11 1.13 0.98 0.80 0.72 0.65 0.70 0.77 0.82 0.89 0.89 0.80 0.70 0.64 0.62 0.62 0.60 0.53 0.50 0.46 0.53 0.60 0.68 0.75 0.79 0.61 0.45 0.47 0.55
0.24 0.21 0.20 0.18 0.20 0.22 0.66 0.88 1.04 1.03 1.17 1.29 1.17 0.95 0.89 1.15 1.01 1.11 0.97 0.95 0.91 0.91 0.87 0.85 0.88 0.85 0.78 0.70 0.65 0.66 0.62 0.56 0.49 0.31 0.36 0.42 0.56 0.65 0.70 0.73 0.60 0.48 0.44
0.19 0.16 0.15 0.13 0.18 0.31 0.71 0.66 1.00 0.80 0.83 1.09 1.25 1.17 1.09 1.24 1.28 0.90 0.99 0.87 0.79 0.81 0.76 0.77 0.82 0.66 0.60 0.47 0.42 0.44 0.37 0.36 0.31 0.20 0.33 0.39 0.39 0.52 0.53 0.72 0.77 0.56 0.48
0.18 0.17 0.23 0.33 0.37 0.60 0.80 0.58 0.71 0.75 0.76 0.91 0.96 0.97 0.90 0.88 0.94 0.83 0.72 0.72 0.61 0.46 0.38 0.31 0.37 0.32 0.24 0.21 0.28 0.36 0.42 0.48 0.34 0.16 0.28 0.61 0.32 0.42 0.41 0.47 0.67 0.87 0.75
0.24 0.25 0.30 0.35 0.35 0.45 0.74 0.50 0.38 0.32 0.46 0.54 0.51 0.66 0.76 0.79 1.02 0.79 0.76 0.73 0.42 0.27 0.23 0.20 0.23 0.24 0.25 0.26 0.32 0.65 0.72 0.78 0.56 0.21 0.23 0.53 0.31 0.36 0.40 0.52 0.65 0.70 0.90
0.25 0.30 0.33 0.31 0.43 0.24 0.53 0.42 0.31 0.23 0.44 0.47 0.54 0.73 0.87 0.59 0.62 0.48 0.61 0.62 0.57 0.25 0.17 0.20 0.21 0.17 0.13 0.16 0.18 0.47 0.65 0.84 0.62 0.51 0.25 0.50 0.31 0.39 0.68 0.53 0.52 0.72 0.83

GFSMA_prec_precacc_126.txt.gz
Total_Precipitation_Accumulation
0.97 0.66 0.47 0.24 0.17 0.19 0.23 0.13 0.14 0.19 0.18 0.19 0.13 0.11 0.07 0.05 0.03 0.01 0.00 0.01 0.02 0.02 0.03 0.03 0.05 0.18 0.28 0.29 0.25 0.21 0.20 0.19 0.24 0.36 0.36 0.28 0.26 0.31 0.35 0.31 0.22 0.16 0.13
0.82 0.45 0.35 0.34 0.38 0.36 0.23 0.18 0.15 0.12 0.12 0.25 0.14 0.11 0.06 0.05 0.03 0.03 0.02 0.02 0.03 0.02 0.02 0.03 0.02 0.09 0.22 0.27 0.31 0.30 0.27 0.23 0.20 0.24 0.33 0.33 0.31 0.32 0.31 0.29 0.29 0.30 0.27
0.71 0.47 0.32 0.27 0.27 0.35 0.49 0.45 0.32 0.19 0.12 0.16 0.16 0.20 0.16 0.09 0.06 0.05 0.04 0.05 0.06 0.09 0.09 0.03 0.02 0.04 0.10 0.19 0.26 0.24 0.24 0.26 0.22 0.20 0.24 0.25 0.27 0.31 0.47 0.35 0.34 0.37 0.32
0.59 0.51 0.36 0.21 0.20 0.34 0.53 0.55 0.47 0.20 0.14 0.11 0.11 0.06 0.02 0.04 0.04 0.03 0.02 0.03 0.07 0.11 0.16 0.16 0.09 0.05 0.06 0.07 0.14 0.21 0.26 0.24 0.23 0.25 0.24 0.20 0.21 0.22 0.33 0.48 0.48 0.55 0.59
0.87 0.37 0.37 0.28 0.26 0.16 0.24 0.52 0.57 0.35 0.20 0.10 0.07 0.03 0.01 0.01 0.02 0.03 0.02 0.01 0.01 0.03 0.08 0.10 0.13 0.13 0.11 0.11 0.12 0.16 0.22 0.30 0.42 0.37 0.35 0.39 0.39 0.30 0.26 0.25 0.34 0.55 0.89
1.26 0.77 0.52 0.40 0.35 0.34 0.26 0.24 0.31 0.25 0.29 0.18 0.07 0.05 0.01 0.02 0.02 0.03 0.03 0.02 0.02 0.02 0.02 0.04 0.05 0.07 0.11 0.19 0.26 0.26 0.26 0.23 0.25 0.54 1.03 1.10 0.74 0.59 0.57 0.47 0.34 0.33 0.55
0.86 1.08 0.66 0.38 0.29 0.36 0.36 0.32 0.24 0.14 0.15 0.13 0.10 0.09 0.04 0.01 0.01 0.04 0.06 0.08 0.08 0.07 0.05 0.05 0.06 0.04 0.04 0.09 0.17 0.30 0.37 0.38 0.34 0.32 0.37 0.87 1.53 1.27 0.81 0.65 0.64 0.50 0.42
0.66 0.77 0.75 0.61 0.25 0.27 0.36 0.39 0.42 0.23 0.12 0.19 0.09 0.05 0.05 0.07 0.03 0.01 0.03 0.07 0.08 0.12 0.12 0.08 0.08 0.07 0.03 0.02 0.02 0.07 0.21 0.48 0.54 0.45 0.47 0.65 0.77 1.03 1.15 0.90 0.79 0.79 0.77
0.77 0.67 0.65 0.71 0.42 0.31 0.37 0.29 0.33 0.22 0.12 0.12 0.11 0.04 0.03 0.03 0.03 0.01 0.01 0.05 0.07 0.07 0.08 0.09 0.08 0.09 0.06 0.04 0.05 0.06 0.06 0.09 0.18 0.30 0.36 0.52 0.92 1.43 1.32 1.09 0.74 0.59 0.62
0.59 0.49 0.44 0.67 0.61 0.38 0.32 0.30 0.29 0.20 0.10 0.09 0.09 0.04 0.03 0.05 0.07 0.05 0.01 0.00 0.04 0.07 0.11 0.13 0.15 0.14 0.13 0.11 0.11 0.15 0.09 0.04 0.06 0.11 0.20 0.33 0.52 0.71 1.15 1.42 1.35 1.00 0.73
0.59 0.53 0.46 0.58 0.64 0.48 0.48 0.34 0.34 0.37 0.21 0.10 0.06 0.06 0.03 0.02 0.03 0.08 0.06 0.03 0.04 0.05 0.06 0.11 0.15 0.21 0.26 0.28 0.22 0.15 0.12 0.10 0.08 0.07 0.13 0.19 0.35 0.58 0.78 0.90 0.96 1.21 1.25
0.89 0.55 0.51 0.56 0.64 0.64 0.56 0.51 0.54 0.41 0.37 0.25 0.14 0.11 0.08 0.10 0.10 0.16 0.26 0.20 0.15 0.10 0.05 0.07 0.09 0.12 0.18 0.31 0.36 0.27 0.14 0.11 0.14 0.15 0.17 0.21 0.23 0.36 0.53 0.84 1.04 0.95 0.94
1.40 0.79 0.43 0.45 0.65 0.75 0.70 0.63 0.75 0.74 0.47 0.47 0.38 0.38 0.42 0.43 0.45 0.50 0.54 0.39 0.27 0.20 0.16 0.08 0.08 0.08 0.12 0.26 0.39 0.43 0.34 0.25 0.14 0.14 0.21 0.26 0.29 0.38 0.60 0.77 0.94 1.26 1.36
1.02 1.02 0.71 0.41 0.55 0.84 0.86 0.89 0.96 1.10 1.10 1.18 1.19 1.02 0.90 0.72 0.62 0.53 0.52 0.55 0.50 0.19 0.13 0.17 0.12 0.16 0.15 0.15 0.27 0.37 0.31 0.31 0.37 0.37 0.24 0.21 0.32 0.39 0.47 0.64 0.93 1.03 1.06
0.67 0.92 1.08 0.93 0.69 0.76 1.07 1.18 1.25 1.49 1.51 1.33 1.16 1.04 0.80 0.58 0.50 0.40 0.33 0.36 0.51 0.35 0.11 0.04 0.05 0.07 0.16 0.23 0.31 0.42 0.53 0.51 0.44 0.42 0.47 0.43 0.34 0.39 0.62 0.74 0.79 0.92 1.13
0.61 0.98 1.29 1.59 1.49 1.05 1.03 1.55 1.68 1.57 1.47 1.30 1.12 0.96 0.79 0.55 0.43 0.43 0.42 0.37 0.38 0.53 0.56 0.21 0.18 0.15 0.16 0.18 0.24 0.30 0.48 0.63 0.49 0.46 0.49 0.53 0.55 0.54 0.49 0.68 0.95 1.01 1.05
0.72 0.99 1.39 1.89 2.40 2.08 1.67 1.51 1.52 1.42 1.20 1.07 1.09 0.99 0.79 0.70 0.72 0.61 0.60 0.64 0.66 0.69 0.71 0.36 0.31 0.30 0.31 0.29 0.28 0.37 0.49 0.65 0.78 0.62 0.38 0.42 0.52 0.58 0.62 0.58 0.63 1.01 1.39
0.88 1.07 1.38 1.82 2.17 2.49 2.30 1.97 1.70 1.56 1.50 1.21 0.99 1.10 1.01 0.86 0.84 0.69 0.61 0.53 0.47 0.48 0.72 0.72 0.64 0.61 0.65 0.51 0.39 0.32 0.32 0.39 0.54 0.77 0.64 0.38 0.31 0.39 0.52 0.69 0.73 0.74 0.91
1.28 1.34 1.37 1.49 1.70 1.81 2.11 1.91 1.51 1.20 1.19 1.12 0.89 0.75 0.66 0.65 0.51 0.44 0.41 0.45 0.56 0.73 0.94 1.08 1.02 0.81 0.66 0.52 0.46 0.41 0.32 0.28 0.31 0.61 0.62 0.68 0.52 0.35 0.35 0.41 0.52 0.63 0.62
1.05 0.84 0.77 0.63 0.59 0.74 1.02 1.25 1.33 1.40 1.24 1.19 1.12 0.99 0.74 0.62 0.55 0.62 0.75 0.85 0.94 1.00 0.95 0.92 0.88 0.82 0.70 0.56 0.51 0.52 0.51 0.48 0.46 0.50 0.72 0.82 0.79 0.66 0.46 0.39 0.42 0.47 0.57
0.42 0.33 0.27 0.21 0.23 0.41 0.85 0.91 1.07 1.10 1.32 1.26 1.19 1.25 1.21 1.24 1.07 0.83 0.74 0.66 0.72 0.82 0.88 0.94 0.92 0.82 0.71 0.65 0.64 0.65 0.64 0.56 0.51 0.46 0.53 0.60 0.68 0.76 0.80 0.61 0.45 0.47 0.55
0.25 0.21 0.20 0.19 0.20 0.22 0.68 0.91 1.07 1.05 1.22 1.48 1.33 1.06 1.00 1.28 1.13 1.21 1.07 1.06 1.00 1.02 1.00 0.96 0.95 0.89 0.80 0.73 0.68 0.69 0.65 0.59 0.51 0.32 0.36 0.42 0.56 0.65 0.71 0.73 0.60 0.48 0.44
0.20 0.17 0.15 0.13 0.18 0.31 0.72 0.67 1.02 0.85 0.96 1.34 1.49 1.42 1.30 1.47 1.49 1.09 1.20 1.09 1.02 1.00 0.91 0.88 0.92 0.72 0.64 0.51 0.46 0.47 0.39 0.37 0.31 0.21 0.33 0.39 0.40 0.53 0.54 0.72 0.77 0.56 0.48
0.18 0.17 0.23 0.33 0.37 0.60 0.81 0.59 0.71 0.77 0.84 1.09 1.24 1.28 1.24 1.23 1.28 1.10 1.02 1.05 0.86 0.63 0.50 0.39 0.44 0.38 0.27 0.23 0.28 0.36 0.43 0.48 0.35 0.17 0.29 0.62 0.33 0.42 0.42 0.47 0.67 0.87 0.75
0.25 0.26 0.30 0.35 0.35 0.45 0.75 0.51 0.39 0.32 0.48 0.62 0.69 0.91 1.04 1.09 1.36 1.07 1.02 0.99 0.60 0.39 0.33 0.27 0.29 0.27 0.26 0.28 0.33 0.66 0.73 0.79 0.57 0.23 0.24 0.53 0.31 0.36 0.40 0.52 0.65 0.70 0.90
0.26 0.31 0.34 0.32 0.44 0.25 0.54 0.44 0.33 0.23 0.44 0.48 0.56 0.80 1.02 0.79 0.82 0.67 0.77 0.74 0.68 0.34 0.21 0.23 0.23 0.19 0.15 0.18 0.19 0.47 0.65 0.85 0.63 0.52 0.25 0.50 0.31 0.39 0.68 0.53 0.52 0.72 0.83

GFSMA_prec_precacc_129.txt.gz
Total_Precipitation_Accumulation
0.97 0.66 0.47 0.24 0.17 0.20 0.23 0.13 0.14 0.19 0.18 0.21 0.16 0.12 0.07 0.06 0.03 0.01 0.00 0.01 0.02 0.02 0.03 0.03 0.05 0.18 0.28 0.29 0.25 0.21 0.20 0.19 0.24 0.36 0.36 0.28 0.26 0.31 0.35 0.31 0.22 0.16 0.13
0.82 0.45 0.35 0.35 0.40 0.36 0.24 0.19 0.19 0.15 0.21 0.42 0.33 0.15 0.06 0.05 0.03 0.03 0.02 0.02 0.03 0.02 0.03 0.03 0.02 0.10 0.23 0.27 0.31 0.30 0.27 0.23 0.20 0.24 0.33 0.33 0.31 0.32 0.31 0.29 0.29 0.30 0.27
0.71 0.47 0.32 0.27 0.28 0.35 0.49 0.49 0.41 0.27 0.20 0.24 0.48 0.26 0.16 0.09 0.06 0.05 0.04 0.05 0.06 0.09 0.09 0.03 0.02 0.04 0.10 0.19 0.26 0.24 0.24 0.26 0.22 0.20 0.24 0.25 0.27 0.31 0.47 0.35 0.34 0.37 0.32
0.59 0.51 0.36 0.21 0.20 0.35 0.57 0.71 0.53 0.23 0.22 0.19 0.24 0.12 0.03 0.04 0.04 0.03 0.02 0.03 0.07 0.11 0.16 0.16 0.09 0.05 0.06 0.07 0.14 0.21 0.26 0.24 0.23 0.25 0.24 0.20 0.21 0.22 0.33 0.48 0.48 0.55 0.59
0.88 0.37 0.37 0.28 0.26 0.18 0.25 0.54 0.62 0.42 0.27 0.17 0.18 0.13 0.03 0.01 0.02 0.03 0.02 0.01 0.01 0.03 0.08 0.10 0.13 0.13 0.11 0.11 0.12 0.16 0.22 0.30 0.42 0.37 0.35 0.39 0.39 0.30 0.26 0.25 0.34 0.55 0.89
1.28 0.79 0.53 0.40 0.35 0.38 0.28 0.24 0.32 0.29 0.34 0.30 0.22 0.14 0.05 0.02 0.02 0.03 0.03 0.02 0.02 0.02 0.02 0.04 0.05 0.07 0.11 0.19 0.26 0.26 0.26 0.23 0.25 0.54 1.03 1.10 0.74 0.59 0.57 0.47 0.34 0.33 0.55
0.88 1.11 0.67 0.39 0.30 0.39 0.37 0.32 0.25 0.15 0.16 0.26 0.38 0.24 0.13 0.02 0.01 0.04 0.06 0.08 0.08 0.07 0.05 0.05 0.06 0.04 0.04 0.09 0.17 0.30 0.37 0.38 0.34 0.32 0.37 0.87 1.53 1.27 0.81 0.65 0.64 0.50 0.42
0.69 0.79 0.77 0.62 0.25 0.28 0.36 0.40 0.42 0.24 0.12 0.22 0.27 0.16 0.11 0.10 0.03 0.01 0.03 0.07 0.08 0.12 0.12 0.08 0.08 0.07 0.03 0.02 0.02 0.07 0.21 0.48 0.54 0.45 0.47 0.65 0.77 1.03 1.15 0.90 0.79 0.79 0.77
0.79 0.70 0.68 0.72 0.43 0.31 0.38 0.30 0.34 0.23 0.13 0.13 0.16 0.08 0.05 0.05 0.03 0.01 0.01 0.05 0.07 0.07 0.08 0.09 0.08 0.09 0.06 0.04 0.05 0.06 0.06 0.09 0.18 0.31 0.37 0.53 0.93 1.44 1.32 1.09 0.75 0.61 0.63
0.63 0.54 0.49 0.72 0.64 0.41 0.34 0.31 0.29 0.21 0.11 0.10 0.12 0.05 0.03 0.05 0.07 0.06 0.01 0.00 0.04 0.07 0.11 0.13 0.15 0.14 0.13 0.11 0.11 0.15 0.09 0.04 0.06 0.11 0.20 0.34 0.52 0.71 1.15 1.42 1.35 1.00 0.73
0.61 0.56 0.49 0.63 0.69 0.52 0.49 0.35 0.35 0.38 0.23 0.11 0.07 0.06 0.03 0.02 0.03 0.08 0.06 0.03 0.04 0.05 0.06 0.11 0.15 0.21 0.26 0.28 0.22 0.15 0.12 0.10 0.08 0.07 0.13 0.19 0.35 0.58 0.78 0.90 0.97 1.21 1.25
0.90 0.57 0.52 0.59 0.67 0.66 0.56 0.52 0.54 0.42 0.39 0.29 0.18 0.14 0.09 0.10 0.10 0.16 0.26 0.20 0.15 0.10 0.05 0.07 0.09 0.12 0.18 0.31 0.36 0.27 0.14 0.11 0.14 0.15 0.17 0.21 0.23 0.36 0.54 0.84 1.05 0.95 0.94
1.41 0.80 0.45 0.46 0.66 0.76 0.71 0.63 0.75 0.76 0.55 0.56 0.45 0.44 0.45 0.44 0.45 0.50 0.54 0.39 0.27 0.20 0.16 0.08 0.08 0.08 0.12 0.26 0.39 0.43 0.34 0.25 0.14 0.14 0.21 0.26 0.29 0.38 0.61 0.78 0.94 1.26 1.36
1.02 1.02 0.72 0.42 0.56 0.84 0.86 0.90 0.97 1.12 1.23 1.36 1.42 1.22 0.96 0.75 0.63 0.53 0.52 0.55 0.50 0.19 0.14 0.17 0.12 0.16 0.15 0.15 0.27 0.37 0.31 0.31 0.37 0.37 0.24 0.21 0.32 0.40 0.48 0.65 0.94 1.03 1.06
0.67 0.94 1.08 0.94 0.70 0.77 1.07 1.18 1.25 1.51 1.59 1.52 1.41 1.29 0.88 0.61 0.53 0.42 0.34 0.36 0.51 0.35 0.12 0.04 0.05 0.07 0.16 0.23 0.31 0.42 0.53 0.51 0.44 0.42 0.47 0.43 0.34 0.39 0.62 0.74 0.79 0.92 1.13
0.62 1.00 1.30 1.60 1.50 1.05 1.03 1.55 1.68 1.58 1.54 1.44 1.45 1.27 0.91 0.65 0.50 0.47 0.44 0.38 0.38 0.53 0.56 0.21 0.18 0.16 0.16 0.18 0.24 0.30 0.48 0.63 0.49 0.46 0.49 0.54 0.56 0.55 0.50 0.68 0.95 1.01 1.05
0.72 1.03 1.41 1.89 2.41 2.08 1.67 1.51 1.52 1.43 1.25 1.18 1.28 1.21 0.95 0.84 0.90 0.67 0.64 0.67 0.68 0.69 0.71 0.36 0.31 0.30 0.32 0.30 0.29 0.37 0.49 0.65 0.78 0.63 0.40 0.44 0.53 0.59 0.63 0.58 0.63 1.01 1.39
0.90 1.10 1.42 1.83 2.17 2.49 2.30 1.97 1.70 1.56 1.51 1.28 1.18 1.38 1.22 1.04 1.11 0.84 0.70 0.56 0.51 0.50 0.73 0.72 0.64 0.62 0.65 0.51 0.39 0.32 0.32 0.39 0.54 0.78 0.66 0.39 0.32 0.39 0.52 0.69 0.73 0.74 0.91
1.34 1.37 1.40 1.51 1.70 1.81 2.11 1.91 1.51 1.20 1.19 1.14 0.96 0.94 0.96 0.87 0.71 0.64 0.57 0.52 0.58 0.75 0.96 1.11 1.05 0.82 0.67 0.52 0.46 0.41 0.32 0.28 0.32 0.63 0.64 0.68 0.53 0.35 0.35 0.41 0.52 0.63 0.62
1.11 0.89 0.81 0.66 0.59 0.74 1.02 1.25 1.33 1.40 1.24 1.19 1.14 1.06 0.91 0.88 0.72 0.77 0.89 0.94 0.96 1.01 0.96 0.94 0.92 0.86 0.71 0.56 0.51 0.52 0.51 0.49 0.47 0.51 0.73 0.84 0.80 0.67 0.46 0.39 0.42 0.47 0.57
0.52 0.39 0.32 0.25 0.24 0.42 0.85 0.91 1.07 1.10 1.32 1.26 1.20 1.26 1.28 1.37 1.28 0.99 0.86 0.76 0.79 0.83 0.88 0.95 0.95 0.85 0.73 0.66 0.65 0.66 0.67 0.59 0.52 0.47 0.54 0.61 0.69 0.76 0.80 0.62 0.46 0.48 0.55
0.31 0.25 0.22 0.21 0.23 0.26 0.72 0.91 1.08 1.06 1.22 1.49 1.34 1.10 1.10 1.40 1.29 1.45 1.19 1.14 1.06 1.03 1.00 0.97 1.00 0.94 0.84 0.75 0.71 0.72 0.69 0.63 0.54 0.34 0.38 0.43 0.57 0.66 0.71 0.73 0.60 0.49 0.44
0.24 0.18 0.16 0.14 0.19 0.32 0.74 0.69 1.05 0.87 0.98 1.36 1.53 1.57 1.58 1.68 1.64 1.26 1.34 1.20 1.11 1.06 0.94 0.91 0.96 0.78 0.70 0.55 0.50 0.53 0.46 0.43 0.35 0.22 0.34 0.40 0.41 0.54 0.55 0.72 0.77 0.56 0.48
0.21 0.18 0.24 0.34 0.37 0.61 0.83 0.62 0.75 0.77 0.84 1.11 1.31 1.39 1.51 1.61 1.50 1.28 1.21 1.35 1.15 0.83 0.67 0.52 0.54 0.48 0.37 0.31 0.37 0.44 0.47 0.50 0.36 0.18 0.31 0.63 0.35 0.44 0.42 0.47 0.67 0.87 0.75
0.30 0.27 0.31 0.35 0.35 0.45 0.77 0.53 0.40 0.32 0.48 0.63 0.72 0.97 1.23 1.36 1.71 1.38 1.28 1.36 1.00 0.75 0.61 0.52 0.48 0.42 0.37 0.35 0.37 0.68 0.75 0.80 0.60 0.25 0.26 0.54 0.33 0.37 0.40 0.52 0.65 0.70 0.90
0.31 0.32 0.35 0.33 0.45 0.25 0.55 0.45 0.34 0.23 0.45 0.48 0.57 0.83 1.17 1.07 1.16 1.03 1.11 1.07 1.00 0.66 0.44 0.43 0.37 0.28 0.19 0.21 0.21 0.48 0.66 0.86 0.64 0.53 0.27 0.51 0.31 0.39 0.68 0.53 0.52 0.72 0.83

GFSMA_prec_precacc_132.txt.gz
Total_Precipitation_Accumulation
0.97 0.66 0.47 0.24 0.18 0.20 0.23 0.13 0.14 0.19 0.18 0.21 0.16 0.13 0.08 0.06 0.03 0.01 0.00 0.01 0.02 0.02 0.03 0.03 0.06 0.19 0.29 0.29 0.26 0.21 0.20 0.19 0.25 0.36 0.36 0.28 0.26 0.31 0.35 0.31 0.22 0.16 0.13
0.82 0.45 0.35 0.35 0.40 0.36 0.24 0.19 0.19 0.16 0.29 0.52 0.49 0.30 0.11 0.05 0.03 0.03 0.02 0.02 0.03 0.02 0.03 0.03 0.03 0.10 0.23 0.27 0.31 0.30 0.27 0.23 0.20 0.25 0.33 0.33 0.31 0.32 0.31 0.29 0.29 0.30 0.27
0.71 0.47 0.32 0.27 0.28 0.35 0.49 0.50 0.42 0.27 0.22 0.27 0.53 0.33 0.19 0.09 0.06 0.05 0.04 0.05 0.06 0.09 0.09 0.03 0.02 0.05 0.11 0.19 0.26 0.25 0.24 0.26 0.22 0.20 0.24 0.25 0.27 0.31 0.47 0.35 0.34 0.37 0.32
0.59 0.51 0.36 0.21 0.20 0.39 0.60 0.72 0.54 0.24 0.22 0.19 0.25 0.14 0.03 0.04 0.04 0.03 0.02 0.03 0.07 0.11 0.16 0.16 0.10 0.06 0.06 0.08 0.14 0.21 0.26 0.24 0.24 0.25 0.24 0.20 0.21 0.22 0.33 0.48 0.48 0.55 0.59
0.88 0.38 0.37 0.28 0.26 0.22 0.32 0.55 0.62 0.43 0.28 0.17 0.20 0.16 0.05 0.02 0.02 0.03 0.02 0.01 0.01 0.03 0.08 0.10 0.13 0.14 0.11 0.11 0.13 0.16 0.22 0.30 0.43 0.38 0.35 0.39 0.39 0.30 0.26 0.25 0.34 0.55 0.89
1.30 0.81 0.54 0.41 0.36 0.40 0.36 0.28 0.32 0.29 0.36 0.32 0.29 0.29 0.11 0.03 0.02 0.03 0.03 0.02 0.02 0.02 0.02 0.04 0.05 0.07 0.11 0.19 0.26 0.26 0.27 0.24 0.26 0.54 1.03 1.10 0.74 0.59 0.57 0.47 0.34 0.33 0.55
0.98 1.24 0.80 0.48 0.32 0.43 0.47 0.39 0.25 0.16 0.17 0.26 0.42 0.36 0.23 0.07 0.02 0.04 0.06 0.08 0.08 0.07 0.05 0.05 0.06 0.04 0.04 0.09 0.17 0.30 0.38 0.38 0.34 0.33 0.37 0.87 1.53 1.27 0.81 0.65 0.64 0.50 0.42
0.75 0.89 0.87 0.73 0.32 0.32 0.39 0.43 0.43 0.25 0.13 0.22 0.27 0.18 0.17 0.21 0.08 0.01 0.03 0.07 0.08 0.12 0.12 0.08 0.08 0.07 0.03 0.02 0.02 0.07 0.21 0.48 0.54 0.45 0.47 0.65 0.77 1.03 1.15 0.90 0.79 0.79 0.78
0.82 0.76 0.78 0.81 0.47 0.34 0.40 0.33 0.35 0.24 0.14 0.14 0.16 0.09 0.06 0.10 0.05 0.02 0.01 0.05 0.07 0.07 0.08 0.09 0.08 0.09 0.06 0.04 0.05 0.06 0.06 0.10 0.19 0.31 0.37 0.53 0.93 1.44 1.33 1.10 0.75 0.61 0.63
0.67 0.59 0.55 0.79 0.72 0.47 0.39 0.36 0.31 0.22 0.13 0.11 0.13 0.05 0.03 0.05 0.07 0.06 0.02 0.01 0.04 0.07 0.11 0.13 0.15 0.14 0.13 0.11 0.11 0.15 0.09 0.04 0.06 0.12 0.22 0.34 0.52 0.71 1.15 1.42 1.35 1.00 0.73
0.63 0.59 0.54 0.70 0.75 0.58 0.55 0.40 0.38 0.39 0.24 0.12 0.08 0.07 0.03 0.02 0.03 0.08 0.06 0.03 0.04 0.05 0.06 0.11 0.15 0.21 0.26 0.28 0.22 0.15 0.12 0.10 0.08 0.07 0.13 0.19 0.35 0.58 0.78 0.90 0.97 1.22 1.26
0.92 0.59 0.56 0.64 0.74 0.73 0.63 0.58 0.57 0.43 0.40 0.30 0.20 0.15 0.09 0.11 0.10 0.16 0.26 0.20 0.16 0.10 0.05 0.07 0.09 0.12 0.18 0.31 0.36 0.27 0.14 0.11 0.14 0.15 0.17 0.21 0.23 0.36 0.54 0.85 1.06 0.96 0.95
1.42 0.82 0.47 0.49 0.73 0.85 0.77 0.69 0.78 0.77 0.56 0.58 0.47 0.46 0.48 0.46 0.45 0.50 0.54 0.39 0.27 0.20 0.16 0.08 0.08 0.08 0.12 0.26 0.39 0.43 0.34 0.25 0.14 0.14 0.21 0.26 0.29 0.39 0.61 0.78 0.95 1.27 1.37
1.03 1.03 0.74 0.43 0.60 0.96 0.94 0.94 0.99 1.13 1.23 1.37 1.44 1.25 1.07 0.85 0.67 0.54 0.52 0.55 0.50 0.19 0.14 0.17 0.12 0.16 0.15 0.15 0.27 0.37 0.31 0.31 0.37 0.37 0.24 0.21 0.32 0.40 0.48 0.65 0.94 1.04 1.06
0.69 0.94 1.09 0.95 0.72 0.84 1.11 1.22 1.26 1.52 1.61 1.54 1.42 1.32 1.00 0.79 0.67 0.49 0.36 0.37 0.52 0.35 0.12 0.04 0.05 0.07 0.16 0.23 0.31 0.42 0.53 0.51 0.44 0.42 0.48 0.44 0.34 0.40 0.63 0.75 0.79 0.93 1.14
0.65 1.01 1.31 1.60 1.53 1.11 1.08 1.57 1.70 1.59 1.55 1.46 1.50 1.41 1.16 0.88 0.72 0.59 0.49 0.39 0.39 0.53 0.56 0.21 0.18 0.16 0.16 0.19 0.25 0.30 0.49 0.63 0.49 0.46 0.49 0.54 0.56 0.56 0.51 0.69 0.96 1.01 1.05
0.80 1.07 1.43 1.90 2.43 2.12 1.71 1.53 1.53 1.44 1.26 1.19 1.31 1.34 1.22 1.18 1.25 0.88 0.70 0.69 0.69 0.69 0.71 0.36 0.31 0.30 0.32 0.30 0.29 0.37 0.49 0.65 0.78 0.63 0.41 0.45 0.54 0.60 0.64 0.59 0.64 1.01 1.39
0.98 1.20 1.48 1.84 2.18 2.50 2.31 1.99 1.71 1.56 1.52 1.28 1.18 1.41 1.34 1.32 1.45 1.12 0.90 0.64 0.54 0.50 0.73 0.72 0.65 0.62 0.66 0.53 0.41 0.34 0.33 0.40 0.54 0.79 0.68 0.42 0.34 0.41 0.52 0.69 0.73 0.74 0.91
1.44 1.47 1.48 1.54 1.71 1.82 2.12 1.91 1.51 1.21 1.19 1.14 0.96 0.94 1.03 1.09 1.03 1.01 0.92 0.74 0.68 0.79 0.96 1.11 1.05 0.84 0.71 0.56 0.50 0.46 0.38 0.33 0.33 0.68 0.72 0.75 0.55 0.37 0.36 0.41 0.52 0.63 0.62
1.23 0.99 0.87 0.71 0.63 0.75 1.02 1.25 1.33 1.40 1.25 1.19 1.14 1.06 0.93 1.00 0.93 1.04 1.16 1.28 1.18 1.10 0.98 0.95 0.93 0.91 0.78 0.62 0.58 0.59 0.57 0.54 0.52 0.57 0.79 0.88 0.82 0.68 0.47 0.39 0.42 0.47 0.57
0.60 0.49 0.42 0.34 0.30 0.44 0.86 0.92 1.07 1.10 1.32 1.26 1.20 1.26 1.28 1.38 1.34 1.19 1.10 1.06 1.09 0.95 0.93 0.96 0.96 0.91 0.84 0.77 0.73 0.71 0.72 0.62 0.58 0.54 0.61 0.64 0.70 0.76 0.80 0.62 0.46 0.48 0.55
0.40 0.43 0.31 0.26 0.27 0.28 0.73 0.92 1.08 1.06 1.22 1.49 1.34 1.10 1.11 1.42 1.32 1.60 1.46 1.34 1.26 1.20 1.07 0.98 1.00 0.96 0.93 0.86 0.81 0.79 0.74 0.69 0.61 0.39 0.43 0.46 0.57 0.66 0.71 0.73 0.61 0.49 0.44
0.27 0.30 0.42 0.33 0.22 0.33 0.76 0.70 1.06 0.87 0.98 1.37 1.53 1.57 1.59 1.74 1.76 1.46 1.69 1.48 1.30 1.23 1.09 0.98 0.98 0.81 0.77 0.67 0.63 0.62 0.52 0.49 0.42 0.27 0.38 0.43 0.42 0.55 0.55 0.73 0.78 0.56 0.48
0.25 0.24 0.32 0.60 0.55 0.62 0.84 0.62 0.76 0.78 0.85 1.12 1.33 1.41 1.54 1.73 1.66 1.53 1.62 1.72 1.45 0.99 0.79 0.63 0.62 0.54 0.43 0.41 0.49 0.55 0.60 0.63 0.46 0.25 0.33 0.65 0.36 0.45 0.43 0.47 0.67 0.87 0.75
0.41 0.35 0.34 0.37 0.36 0.46 0.78 0.54 0.42 0.34 0.50 0.64 0.73 0.99 1.27 1.44 1.93 1.58 1.51 1.66 1.35 0.98 0.79 0.67 0.62 0.58 0.52 0.51 0.51 0.83 0.90 0.91 0.70 0.31 0.29 0.57 0.34 0.37 0.40 0.52 0.65 0.70 0.90
0.39 0.52 0.60 0.41 0.46 0.25 0.55 0.46 0.36 0.24 0.47 0.50 0.58 0.85 1.21 1.13 1.33 1.25 1.30 1.24 1.27 0.99 0.65 0.62 0.57 0.46 0.36 0.39 0.36 0.60 0.78 0.95 0.72 0.60 0.29 0.52 0.31 0.39 0.68 0.53 0.52 0.72 0.83

GFSMA_prec_precacc_138.txt.gz
Total_Precipitation_Accumulation
0.97 0.66 0.47 0.24 0.18 0.20 0.23 0.13 0.14 0.19 0.19 0.22 0.20 0.14 0.09 0.07 0.06 0.14 0.17 0.11 0.05 0.07 0.09 0.05 0.08 0.22 0.30 0.30 0.27 0.23 0.20 0.19 0.26 0.37 0.37 0.29 0.26 0.31 0.35 0.31 0.22 0.16 0.13
0.82 0.45 0.35 0.35 0.40 0.36 0.24 0.19 0.19 0.16 0.30 0.53 0.55 0.36 0.15 0.06 0.06 0.08 0.14 0.14 0.05 0.05 0.05 0.04 0.05 0.13 0.25 0.29 0.34 0.32 0.29 0.24 0.22 0.26 0.34 0.33 0.31 0.32 0.31 0.29 0.29 0.30 0.27
0.72 0.47 0.32 0.27 0.28 0.35 0.49 0.50 0.43 0.28 0.22 0.27 0.55 0.37 0.20 0.10 0.09 0.09 0.10 0.15 0.13 0.13 0.09 0.04 0.04 0.08 0.14 0.21 0.28 0.26 0.25 0.28 0.24 0.21 0.24 0.25 0.27 0.31 0.47 0.35 0.34 0.37 0.32
0.60 0.51 0.36 0.21 0.20 0.39 0.61 0.72 0.54 0.25 0.22 0.19 0.25 0.15 0.04 0.05 0.06 0.06 0.07 0.06 0.08 0.13 0.16 0.16 0.11 0.08 0.09 0.10 0.16 0.23 0.28 0.26 0.26 0.26 0.24 0.20 0.21 0.22 0.33 0.48 0.48 0.55 0.59
0.88 0.38 0.38 0.28 0.26 0.22 0.34 0.57 0.63 0.49 0.32 0.18 0.20 0.17 0.06 0.03 0.05 0.07 0.07 0.08 0.05 0.03 0.08 0.10 0.13 0.15 0.14 0.14 0.14 0.17 0.24 0.32 0.44 0.38 0.35 0.39 0.39 0.30 0.26 0.25 0.34 0.55 0.89
1.30 0.82 0.55 0.41 0.36 0.40 0.37 0.33 0.40 0.39 0.44 0.34 0.29 0.29 0.14 0.09 0.10 0.10 0.07 0.06 0.06 0.03 0.02 0.04 0.05 0.08 0.12 0.20 0.27 0.28 0.28 0.25 0.27 0.55 1.03 1.10 0.74 0.59 0.57 0.47 0.34 0.33 0.55
0.99 1.25 0.83 0.54 0.39 0.45 0.49 0.53 0.38 0.23 0.21 0.29 0.43 0.37 0.25 0.09 0.08 0.12 0.11 0.09 0.09 0.07 0.05 0.05 0.06 0.04 0.05 0.10 0.18 0.32 0.39 0.39 0.35 0.33 0.37 0.87 1.53 1.27 0.81 0.65 0.64 0.50 0.42
0.75 0.90 0.90 0.81 0.48 0.54 0.53 0.61 0.63 0.38 0.16 0.24 0.27 0.18 0.21 0.24 0.10 0.03 0.05 0.09 0.08 0.12 0.12 0.08 0.08 0.07 0.03 0.02 0.03 0.09 0.23 0.49 0.55 0.46 0.47 0.65 0.77 1.03 1.15 0.90 0.79 0.79 0.78
0.92 0.80 0.79 0.87 0.63 0.58 0.65 0.61 0.59 0.38 0.20 0.18 0.16 0.09 0.07 0.13 0.08 0.05 0.04 0.07 0.08 0.07 0.08 0.09 0.08 0.09 0.06 0.04 0.05 0.06 0.07 0.11 0.20 0.31 0.37 0.53 0.93 1.44 1.33 1.10 0.76 0.62 0.65
0.80 0.69 0.62 0.85 0.77 0.56 0.51 0.50 0.52 0.40 0.22 0.15 0.15 0.06 0.03 0.05 0.07 0.07 0.04 0.09 0.10 0.09 0.11 0.13 0.15 0.14 0.13 0.11 0.11 0.15 0.09 0.04 0.07 0.13 0.22 0.35 0.53 0.72 1.16 1.43 1.37 1.01 0.73
0.71 0.66 0.62 0.75 0.79 0.62 0.61 0.52 0.53 0.52 0.31 0.16 0.09 0.09 0.04 0.02 0.03 0.08 0.06 0.04 0.07 0.06 0.06 0.11 0.15 0.21 0.26 0.28 0.22 0.15 0.12 0.10 0.08 0.08 0.14 0.20 0.36 0.60 0.81 0.92 0.98 1.23 1.27
0.96 0.64 0.62 0.69 0.79 0.78 0.67 0.69 0.75 0.60 0.60 0.43 0.23 0.16 0.11 0.11 0.10 0.16 0.26 0.20 0.17 0.12 0.07 0.08 0.09 0.12 0.18 0.31 0.36 0.27 0.14 0.11 0.14 0.16 0.17 0.22 0.24 0.39 0.55 0.86 1.08 0.98 0.96
1.47 0.92 0.59 0.57 0.78 0.91 0.84 0.78 0.86 0.85 0.69 0.73 0.55 0.52 0.50 0.47 0.46 0.50 0.54 0.39 0.31 0.25 0.20 0.12 0.09 0.08 0.12 0.26 0.39 0.43 0.34 0.25 0.14 0.14 0.22 0.26 0.30 0.39 0.62 0.79 0.96 1.28 1.38
1.08 1.12 0.86 0.55 0.70 1.04 1.04 1.04 1.08 1.19 1.29 1.46 1.50 1.30 1.09 0.87 0.70 0.56 0.53 0.56 0.53 0.28 0.23 0.22 0.15 0.17 0.15 0.15 0.27 0.37 0.31 0.31 0.37 0.37 0.24 0.22 0.33 0.40 0.48 0.65 0.94 1.04 1.07
0.70 0.96 1.15 1.01 0.79 0.93 1.19 1.33 1.34 1.58 1.68 1.60 1.48 1.36 1.05 0.83 0.71 0.55 0.43 0.43 0.59 0.49 0.24 0.10 0.07 0.08 0.16 0.23 0.31 0.42 0.53 0.51 0.44 0.42 0.48 0.44 0.35 0.40 0.63 0.75 0.80 0.93 1.14
0.65 1.02 1.33 1.64 1.57 1.15 1.12 1.67 1.75 1.67 1.61 1.52 1.56 1.43 1.20 0.93 0.81 0.71 0.66 0.58 0.51 0.66 0.71 0.33 0.26 0.20 0.18 0.19 0.25 0.30 0.49 0.64 0.50 0.46 0.50 0.54 0.57 0.57 0.52 0.70 0.97 1.02 1.05
0.83 1.09 1.45 1.95 2.48 2.19 1.79 1.59 1.58 1.49 1.31 1.24 1.37 1.37 1.26 1.25 1.40 1.08 0.96 1.01 0.97 0.96 1.04 0.59 0.46 0.44 0.43 0.34 0.30 0.37 0.50 0.65 0.78 0.64 0.41 0.46 0.58 0.67 0.72 0.66 0.71 1.07 1.42
0.99 1.24 1.54 1.91 2.22 2.54 2.38 2.05 1.75 1.59 1.55 1.32 1.23 1.48 1.39 1.39 1.64 1.50 1.29 1.04 0.97 0.95 1.26 1.02 0.80 0.82 0.86 0.64 0.44 0.34 0.33 0.41 0.55 0.82 0.71 0.46 0.41 0.50 0.64 0.81 0.82 0.80 0.94
1.44 1.48 1.53 1.63 1.79 1.87 2.18 1.96 1.55 1.25 1.24 1.18 1.01 0.99 1.07 1.13 1.10 1.21 1.19 1.00 0.92 1.18 1.43 1.29 1.14 0.98 0.89 0.74 0.59 0.49 0.40 0.35 0.37 0.72 0.76 0.83 0.68 0.50 0.48 0.52 0.59 0.69 0.65
1.23 1.00 0.89 0.78 0.71 0.80 1.09 1.31 1.38 1.42 1.26 1.21 1.17 1.11 0.96 1.01 0.95 1.13 1.46 1.59 1.44 1.52 1.36 1.11 1.06 1.08 0.96 0.83 0.75 0.67 0.64 0.62 0.61 0.66 0.90 0.99 0.94 0.78 0.55 0.45 0.47 0.50 0.58
0.60 0.50 0.44 0.38 0.34 0.49 0.93 0.97 1.11 1.13 1.33 1.26 1.20 1.27 1.29 1.39 1.37 1.27 1.24 1.31 1.54 1.32 1.15 1.20 1.18 1.10 1.04 0.93 0.90 0.84 0.81 0.74 0.69 0.64 0.73 0.79 0.85 0.90 0.95 0.74 0.53 0.52 0.57
0.40 0.44 0.32 0.29 0.31 0.32 0.79 0.98 1.14 1.13 1.27 1.50 1.35 1.11 1.11 1.42 1.32 1.62 1.55 1.55 1.47 1.40 1.24 1.16 1.15 1.10 1.06 1.01 1.03 1.06 1.00 0.90 0.79 0.50 0.52 0.57 0.66 0.76 0.82 0.81 0.67 0.52 0.46
0.27 0.30 0.43 0.34 0.26 0.43 0.91 0.78 1.16 0.96 1.06 1.42 1.53 1.57 1.59 1.74 1.78 1.47 1.72 1.60 1.57 1.47 1.25 1.10 1.09 0.90 0.91 0.82 0.86 0.98 0.82 0.72 0.59 0.43 0.57 0.62 0.54 0.65 0.63 0.78 0.83 0.59 0.49
0.25 0.24 0.32 0.62 0.95 0.93 0.99 0.87 1.09 0.96 0.95 1.19 1.35 1.41 1.54 1.73 1.69 1.56 1.70 1.86 1.57 1.22 1.03 0.87 0.81 0.72 0.62 0.67 0.86 0.94 1.01 1.08 0.92 0.62 0.55 0.82 0.49 0.55 0.50 0.51 0.73 0.89 0.76
0.41 0.35 0.34 0.39 0.51 0.87 1.16 0.69 0.61 0.66 0.76 0.79 0.93 1.06 1.29 1.46 2.00 1.65 1.60 1.81 1.51 1.23 1.13 1.04 0.95 0.99 1.05 1.08 1.11 1.42 1.48 1.40 1.15 0.64 0.54 0.79 0.53 0.51 0.51 0.58 0.70 0.74 0.91
0.39 0.52 0.60 0.43 0.55 0.34 0.76 0.67 0.46 0.32 0.64 0.66 0.67 0.91 1.25 1.14 1.38 1.30 1.37 1.37 1.43 1.20 0.82 0.85 0.94 0.97 0.92 1.00 1.07 1.23 1.23 1.35 1.09 0.94 0.54 0.74 0.53 0.54 0.82 0.62 0.59 0.76 0.84

GFSMA_prec_precacc_141.txt.gz
Total_Precipitation_Accumulation
0.97 0.66 0.47 0.24 0.18 0.20 0.23 0.13 0.14 0.19 0.19 0.22 0.20 0.14 0.09 0.07 0.06 0.14 0.19 0.27 0.18 0.17 0.16 0.10 0.09 0.23 0.31 0.31 0.28 0.23 0.21 0.20 0.26 0.38 0.37 0.29 0.26 0.31 0.35 0.31 0.22 0.16 0.13
0.82 0.45 0.35 0.35 0.40 0.36 0.24 0.19 0.19 0.16 0.30 0.53 0.55 0.36 0.15 0.06 0.06 0.08 0.14 0.25 0.20 0.13 0.09 0.07 0.06 0.14 0.26 0.29 0.34 0.32 0.29 0.24 0.22 0.27 0.34 0.33 0.31 0.32 0.31 0.29 0.29 0.30 0.27
0.72 0.47 0.32 0.27 0.28 0.35 0.49 0.50 0.43 0.28 0.22 0.27 0.55 0.37 0.20 0.10 0.09 0.09 0.11 0.18 0.28 0.24 0.15 0.06 0.06 0.10 0.14 0.22 0.28 0.27 0.26 0.29 0.25 0.22 0.25 0.25 0.27 0.31 0.47 0.35 0.34 0.37 0.32
0.60 0.51 0.36 0.21 0.20 0.39 0.61 0.72 0.54 0.25 0.22 0.19 0.25 0.15 0.04 0.05 0.06 0.06 0.07 0.07 0.12 0.18 0.22 0.17 0.11 0.10 0.10 0.10 0.16 0.23 0.29 0.27 0.27 0.27 0.24 0.20 0.21 0.22 0.33 0.48 0.48 0.55 0.59
0.88 0.38 0.38 0.28 0.26 0.22 0.34 0.57 0.63 0.51 0.33 0.18 0.20 0.17 0.06 0.03 0.05 0.07 0.07 0.09 0.08 0.09 0.12 0.10 0.13 0.15 0.14 0.15 0.15 0.18 0.24 0.32 0.46 0.39 0.36 0.39 0.39 0.30 0.26 0.25 0.34 0.55 0.89
1.30 0.82 0.55 0.41 0.37 0.41 0.37 0.33 0.40 0.43 0.50 0.35 0.30 0.30 0.14 0.09 0.10 0.10 0.08 0.08 0.10 0.11 0.09 0.05 0.05 0.08 0.13 0.21 0.28 0.28 0.29 0.26 0.28 0.56 1.03 1.10 0.74 0.59 0.57 0.47 0.34 0.33 0.55
0.99 1.25 0.83 0.54 0.39 0.45 0.50 0.54 0.39 0.25 0.27 0.33 0.45 0.38 0.26 0.09 0.08 0.12 0.11 0.11 0.11 0.09 0.08 0.06 0.06 0.04 0.05 0.11 0.19 0.32 0.40 0.41 0.37 0.34 0.38 0.87 1.53 1.27 0.81 0.65 0.64 0.50 0.42
0.76 0.90 0.90 0.82 0.48 0.54 0.54 0.62 0.65 0.44 0.21 0.34 0.31 0.19 0.21 0.24 0.10 0.03 0.05 0.09 0.09 0.12 0.12 0.08 0.08 0.07 0.03 0.02 0.03 0.10 0.25 0.51 0.56 0.47 0.48 0.65 0.77 1.03 1.15 0.90 0.79 0.79 0.78
1.00 0.87 0.84 0.88 0.65 0.62 0.67 0.62 0.62 0.46 0.28 0.25 0.21 0.11 0.07 0.13 0.08 0.05 0.04 0.07 0.08 0.08 0.08 0.09 0.08 0.09 0.06 0.04 0.05 0.07 0.08 0.12 0.21 0.32 0.37 0.54 0.93 1.44 1.33 1.10 0.76 0.63 0.66
1.02 0.94 0.81 0.97 0.85 0.62 0.54 0.53 0.62 0.53 0.36 0.20 0.21 0.07 0.03 0.05 0.07 0.07 0.05 0.09 0.10 0.09 0.12 0.13 0.15 0.14 0.13 0.11 0.11 0.15 0.09 0.05 0.07 0.14 0.23 0.35 0.53 0.72 1.16 1.43 1.37 1.02 0.74
0.78 0.76 0.79 0.92 0.88 0.69 0.65 0.55 0.56 0.58 0.37 0.20 0.10 0.12 0.05 0.02 0.03 0.08 0.06 0.04 0.07 0.06 0.06 0.11 0.15 0.21 0.26 0.28 0.22 0.15 0.12 0.10 0.08 0.08 0.15 0.20 0.36 0.60 0.81 0.93 1.00 1.24 1.28
0.98 0.65 0.64 0.71 0.82 0.83 0.69 0.70 0.77 0.61 0.63 0.47 0.29 0.18 0.12 0.12 0.11 0.16 0.26 0.20 0.17 0.12 0.07 0.08 0.09 0.12 0.18 0.31 0.36 0.27 0.14 0.11 0.14 0.16 0.18 0.22 0.25 0.39 0.57 0.88 1.10 0.99 0.97
1.54 0.95 0.61 0.60 0.81 0.93 0.85 0.81 0.87 0.86 0.70 0.75 0.62 0.62 0.58 0.51 0.48 0.51 0.54 0.39 0.31 0.25 0.20 0.12 0.09 0.08 0.12 0.26 0.39 0.43 0.34 0.25 0.14 0.14 0.22 0.27 0.30 0.41 0.64 0.82 0.99 1.30 1.39
1.09 1.13 0.87 0.56 0.72 1.06 1.06 1.06 1.09 1.20 1.30 1.48 1.53 1.38 1.17 0.95 0.75 0.56 0.54 0.56 0.53 0.28 0.23 0.22 0.16 0.19 0.17 0.16 0.28 0.37 0.31 0.31 0.37 0.37 0.24 0.22 0.34 0.41 0.49 0.66 0.95 1.05 1.07
0.70 0.96 1.16 1.01 0.80 0.94 1.21 1.34 1.36 1.60 1.70 1.61 1.50 1.40 1.09 0.89 0.77 0.57 0.44 0.44 0.60 0.49 0.24 0.10 0.08 0.09 0.18 0.26 0.34 0.43 0.53 0.51 0.44 0.42 0.48 0.44 0.35 0.40 0.64 0.76 0.80 0.93 1.14
0.65 1.02 1.33 1.65 1.58 1.17 1.15 1.70 1.78 1.69 1.63 1.54 1.57 1.46 1.24 0.96 0.86 0.75 0.68 0.60 0.52 0.67 0.72 0.33 0.26 0.21 0.21 0.22 0.28 0.33 0.49 0.64 0.50 0.46 0.50 0.54 0.57 0.57 0.52 0.70 0.97 1.02 1.05
0.83 1.09 1.45 1.95 2.49 2.20 1.80 1.61 1.59 1.51 1.32 1.26 1.39 1.39 1.29 1.31 1.42 1.12 1.00 1.02 0.98 0.97 1.05 0.59 0.47 0.49 0.52 0.45 0.39 0.42 0.51 0.66 0.78 0.64 0.41 0.46 0.58 0.67 0.72 0.66 0.71 1.07 1.43
0.99 1.24 1.54 1.91 2.22 2.55 2.40 2.08 1.79 1.61 1.56 1.32 1.23 1.49 1.40 1.43 1.69 1.53 1.31 1.06 0.98 0.95 1.28 1.11 0.87 0.91 1.00 0.80 0.60 0.44 0.37 0.41 0.55 0.82 0.71 0.47 0.41 0.50 0.65 0.81 0.83 0.81 0.96
1.44 1.48 1.53 1.63 1.79 1.87 2.19 1.99 1.59 1.29 1.26 1.19 1.01 1.00 1.09 1.18 1.16 1.25 1.21 1.01 0.93 1.18 1.47 1.37 1.18 1.03 0.98 0.88 0.78 0.71 0.52 0.38 0.38 0.74 0.77 0.85 0.70 0.52 0.50 0.53 0.61 0.71 0.68
1.23 1.00 0.89 0.78 0.71 0.80 1.09 1.33 1.42 1.48 1.29 1.23 1.20 1.13 1.01 1.08 1.01 1.17 1.50 1.61 1.46 1.54 1.40 1.14 1.09 1.11 1.01 0.93 0.93 0.88 0.84 0.75 0.63 0.67 0.92 1.03 0.98 0.82 0.59 0.48 0.49 0.53 0.61
0.60 0.50 0.44 0.38 0.34 0.49 0.93 0.98 1.12 1.18 1.43 1.39 1.26 1.29 1.31 1.42 1.43 1.30 1.26 1.32 1.56 1.34 1.20 1.23 1.20 1.13 1.09 1.00 1.00 1.02 1.01 0.88 0.79 0.71 0.75 0.82 0.88 0.94 0.98 0.77 0.57 0.57 0.61
0.40 0.44 0.32 0.29 0.31 0.32 0.79 1.00 1.16 1.14 1.31 1.59 1.44 1.14 1.12 1.44 1.33 1.62 1.56 1.56 1.48 1.41 1.25 1.17 1.16 1.11 1.08 1.05 1.13 1.23 1.19 1.11 1.01 0.66 0.64 0.67 0.74 0.81 0.85 0.84 0.73 0.58 0.51
0.27 0.30 0.43 0.34 0.26 0.43 0.91 0.78 1.18 0.98 1.08 1.49 1.65 1.63 1.60 1.75 1.78 1.47 1.72 1.61 1.58 1.50 1.25 1.11 1.09 0.90 0.93 0.87 0.97 1.21 1.04 0.89 0.73 0.54 0.75 0.88 0.70 0.74 0.68 0.84 0.91 0.66 0.57
0.25 0.24 0.32 0.62 0.95 0.93 0.99 0.87 1.09 0.96 0.98 1.23 1.44 1.64 1.84 1.94 1.72 1.56 1.71 1.87 1.58 1.23 1.05 0.88 0.81 0.72 0.62 0.74 1.02 1.14 1.29 1.42 1.22 0.88 0.84 1.09 0.63 0.66 0.61 0.61 0.87 1.01 0.84
0.41 0.35 0.34 0.39 0.51 0.87 1.16 0.69 0.61 0.67 0.78 0.81 0.97 1.20 1.46 1.75 2.19 1.67 1.61 1.82 1.52 1.24 1.18 1.08 0.97 1.00 1.06 1.11 1.24 1.68 1.80 1.74 1.47 0.94 0.74 0.92 0.67 0.65 0.67 0.71 0.84 0.88 1.00
0.39 0.52 0.60 0.43 0.55 0.34 0.76 0.67 0.46 0.32 0.64 0.67 0.68 0.95 1.34 1.20 1.47 1.34 1.37 1.37 1.44 1.21 0.82 0.86 0.96 1.01 0.94 1.05 1.18 1.34 1.46 1.65 1.38 1.21 0.74 0.88 0.69 0.72 1.04 0.79 0.74 0.91 0.96

GFSMA_prec_precacc_144.txt.gz
Total_Precipitation_Accumulation
0.97 0.66 0.47 0.24 0.18 0.20 0.23 0.13 0.14 0.19 0.19 0.22 0.20 0.14 0.09 0.07 0.07 0.15 0.20 0.28 0.21 0.30 0.30 0.16 0.15 0.25 0.31 0.31 0.29 0.23 0.21 0.21 0.26 0.38 0.37 0.29 0.26 0.31 0.35 0.31 0.22 0.16 0.13
0.82 0.45 0.35 0.35 0.40 0.36 0.24 0.19 0.19 0.16 0.30 0.53 0.55 0.36 0.15 0.06 0.06 0.08 0.14 0.25 0.23 0.20 0.21 0.17 0.08 0.17 0.28 0.29 0.34 0.32 0.30 0.25 0.22 0.27 0.34 0.33 0.32 0.33 0.31 0.29 0.29 0.30 0.27
0.73 0.47 0.32 0.27 0.28 0.35 0.49 0.50 0.43 0.28 0.22 0.27 0.55 0.37 0.20 0.10 0.10 0.09 0.11 0.19 0.30 0.31 0.21 0.16 0.13 0.15 0.17 0.22 0.29 0.27 0.26 0.29 0.25 0.22 0.25 0.25 0.27 0.31 0.47 0.35 0.34 0.37 0.32
0.60 0.52 0.36 0.21 0.20 0.39 0.61 0.72 0.54 0.25 0.22 0.19 0.25 0.15 0.04 0.05 0.07 0.06 0.07 0.07 0.12 0.22 0.28 0.19 0.15 0.11 0.12 0.11 0.16 0.23 0.29 0.27 0.28 0.27 0.24 0.20 0.21 0.23 0.33 0.48 0.48 0.55 0.59
0.89 0.38 0.38 0.28 0.26 0.22 0.34 0.57 0.63 0.51 0.33 0.18 0.20 0.17 0.06 0.03 0.06 0.07 0.07 0.09 0.09 0.11 0.18 0.14 0.16 0.16 0.15 0.15 0.15 0.18 0.24 0.33 0.46 0.39 0.36 0.39 0.40 0.30 0.26 0.25 0.34 0.55 0.89
1.31 0.82 0.56 0.42 0.37 0.41 0.37 0.33 0.40 0.43 0.51 0.36 0.30 0.30 0.14 0.09 0.11 0.11 0.09 0.08 0.13 0.20 0.17 0.15 0.06 0.08 0.13 0.22 0.29 0.28 0.29 0.26 0.29 0.56 1.03 1.10 0.74 0.59 0.57 0.47 0.34 0.33 0.55
0.99 1.26 0.84 0.54 0.40 0.45 0.50 0.54 0.40 0.25 0.27 0.34 0.45 0.39 0.26 0.09 0.08 0.12 0.12 0.12 0.11 0.12 0.17 0.15 0.12 0.05 0.05 0.11 0.20 0.33 0.40 0.42 0.38 0.36 0.38 0.87 1.53 1.27 0.81 0.65 0.64 0.50 0.42
0.76 0.91 0.91 0.82 0.49 0.56 0.55 0.65 0.67 0.46 0.23 0.39 0.33 0.20 0.21 0.25 0.10 0.03 0.05 0.10 0.09 0.12 0.14 0.14 0.13 0.09 0.03 0.02 0.03 0.10 0.26 0.52 0.58 0.48 0.48 0.65 0.77 1.03 1.15 0.90 0.79 0.79 0.78
1.00 0.90 0.88 0.93 0.69 0.66 0.72 0.67 0.68 0.50 0.32 0.31 0.25 0.11 0.08 0.14 0.09 0.05 0.05 0.07 0.08 0.08 0.09 0.11 0.11 0.11 0.06 0.04 0.05 0.07 0.09 0.14 0.24 0.34 0.38 0.54 0.93 1.44 1.33 1.10 0.76 0.63 0.66
1.02 1.00 0.91 1.14 1.10 0.90 0.69 0.59 0.69 0.59 0.42 0.25 0.29 0.10 0.03 0.05 0.07 0.08 0.05 0.09 0.11 0.09 0.12 0.15 0.16 0.16 0.13 0.11 0.11 0.15 0.09 0.05 0.09 0.15 0.23 0.35 0.53 0.72 1.16 1.43 1.37 1.02 0.75
0.78 0.77 0.80 1.02 1.12 0.90 0.78 0.64 0.61 0.63 0.40 0.23 0.16 0.14 0.05 0.02 0.03 0.08 0.07 0.04 0.07 0.06 0.06 0.12 0.16 0.23 0.26 0.28 0.22 0.15 0.12 0.10 0.08 0.09 0.15 0.21 0.36 0.60 0.81 0.93 1.00 1.25 1.30
1.09 0.81 0.75 0.75 0.84 0.87 0.76 0.78 0.83 0.67 0.68 0.52 0.31 0.21 0.13 0.13 0.11 0.16 0.26 0.21 0.17 0.12 0.07 0.08 0.09 0.13 0.18 0.31 0.36 0.27 0.14 0.11 0.14 0.16 0.18 0.22 0.25 0.39 0.57 0.88 1.10 1.01 1.00
2.00 1.43 0.97 0.81 0.87 0.95 0.87 0.84 0.91 0.90 0.76 0.79 0.65 0.63 0.59 0.52 0.50 0.53 0.57 0.43 0.32 0.25 0.21 0.12 0.09 0.08 0.13 0.26 0.39 0.43 0.34 0.25 0.14 0.14 0.22 0.27 0.31 0.41 0.64 0.82 1.01 1.34 1.42
1.17 1.30 1.13 0.85 0.92 1.13 1.10 1.09 1.12 1.22 1.33 1.51 1.55 1.39 1.18 0.97 0.79 0.62 0.55 0.60 0.55 0.30 0.23 0.22 0.16 0.20 0.18 0.16 0.28 0.38 0.31 0.31 0.37 0.37 0.24 0.22 0.34 0.41 0.49 0.66 0.96 1.08 1.10
0.71 1.01 1.22 1.07 0.85 1.00 1.27 1.39 1.39 1.61 1.71 1.63 1.52 1.42 1.09 0.91 0.79 0.60 0.48 0.46 0.62 0.50 0.24 0.10 0.08 0.09 0.19 0.26 0.36 0.46 0.54 0.52 0.44 0.42 0.48 0.44 0.35 0.40 0.64 0.76 0.81 0.94 1.15
0.65 1.02 1.35 1.67 1.60 1.19 1.18 1.75 1.83 1.73 1.68 1.56 1.60 1.49 1.25 0.97 0.87 0.76 0.75 0.66 0.53 0.68 0.73 0.34 0.26 0.21 0.22 0.22 0.28 0.33 0.49 0.64 0.50 0.46 0.50 0.54 0.57 0.57 0.52 0.71 0.97 1.02 1.06
0.83 1.09 1.45 1.95 2.49 2.21 1.82 1.65 1.65 1.56 1.38 1.30 1.43 1.43 1.33 1.34 1.46 1.17 1.06 1.11 1.02 0.98 1.06 0.60 0.47 0.49 0.52 0.45 0.40 0.45 0.54 0.68 0.79 0.64 0.41 0.46 0.58 0.67 0.73 0.66 0.71 1.07 1.43
0.99 1.24 1.54 1.91 2.22 2.55 2.40 2.10 1.83 1.65 1.59 1.37 1.28 1.53 1.43 1.46 1.72 1.60 1.37 1.10 1.01 0.97 1.29 1.12 0.87 0.91 1.00 0.81 0.64 0.49 0.41 0.45 0.58 0.84 0.72 0.47 0.41 0.50 0.65 0.81 0.83 0.82 0.96
1.44 1.48 1.53 1.63 1.79 1.87 2.19 1.99 1.60 1.31 1.30 1.24 1.05 1.03 1.10 1.19 1.17 1.29 1.25 1.06 0.98 1.21 1.49 1.39 1.19 1.04 0.99 0.89 0.83 0.80 0.65 0.49 0.45 0.79 0.82 0.87 0.70 0.52 0.50 0.53 0.61 0.71 0.69
1.23 1.00 0.89 0.78 0.71 0.80 1.09 1.33 1.43 1.50 1.32 1.29 1.25 1.17 1.03 1.10 1.01 1.18 1.51 1.64 1.52 1.60 1.42 1.15 1.09 1.12 1.02 0.94 0.94 0.90 0.91 0.88 0.79 0.78 1.00 1.09 1.01 0.84 0.60 0.49 0.50 0.54 0.62
0.60 0.50 0.44 0.38 0.34 0.49 0.93 0.98 1.13 1.19 1.45 1.45 1.34 1.35 1.36 1.50 1.47 1.35 1.30 1.36 1.60 1.38 1.21 1.23 1.20 1.14 1.09 1.00 1.01 1.03 1.06 1.01 0.98 0.93 0.94 0.95 0.96 0.98 1.02 0.81 0.61 0.60 0.63
0.40 0.44 0.32 0.29 0.31 0.32 0.79 1.00 1.17 1.14 1.32 1.60 1.48 1.24 1.22 1.53 1.40 1.70 1.63 1.63 1.53 1.43 1.26 1.17 1.16 1.11 1.08 1.05 1.13 1.25 1.25 1.23 1.21 0.86 0.85 0.91 0.89 0.92 0.94 0.92 0.81 0.63 0.54
0.27 0.30 0.43 0.34 0.26 0.43 0.91 0.78 1.18 0.98 1.08 1.49 1.65 1.67 1.78 1.99 1.92 1.55 1.82 1.68 1.65 1.54 1.26 1.11 1.09 0.90 0.93 0.87 0.97 1.22 1.08 0.98 0.86 0.66 0.95 1.20 0.99 1.00 0.88 1.01 1.05 0.76 0.64
0.25 0.24 0.32 0.62 0.95 0.93 0.99 0.87 1.09 0.96 0.98 1.23 1.44 1.66 1.89 2.09 1.98 1.71 1.80 1.95 1.61 1.24 1.05 0.88 0.81 0.72 0.62 0.74 1.02 1.14 1.32 1.52 1.38 1.08 1.11 1.40 0.91 0.92 0.86 0.85 1.07 1.13 0.95
0.41 0.35 0.34 0.39 0.51 0.87 1.16 0.69 0.61 0.67 0.78 0.81 0.97 1.21 1.49 1.82 2.46 2.07 1.87 1.97 1.58 1.26 1.19 1.09 0.98 1.01 1.06 1.12 1.24 1.68 1.81 1.76 1.54 1.03 0.89 1.09 0.87 0.87 0.92 0.95 1.05 1.06 1.14
0.39 0.52 0.60 0.43 0.55 0.34 0.76 0.67 0.46 0.32 0.64 0.67 0.68 0.96 1.37 1.24 1.55 1.48 1.50 1.46 1.51 1.23 0.83 0.87 0.97 1.02 0.95 1.05 1.19 1.34 1.46 1.65 1.42 1.29 0.84 1.01 0.84 0.88 1.31 1.06 0.94 1.09 1.12

GFSMA_prec_precacc_147.txt.gz
Total_Precipitation_Accumulation
0.98 0.66 0.47 0.24 0.18 0.20 0.23 0.13 0.14 0.19 0.19 0.22 0.20 0.14 0.09 0.07 0.08 0.15 0.20 0.28 0.21 0.36 0.39 0.27 0.25 0.29 0.32 0.31 0.29 0.23 0.21 0.21 0.26 0.38 0.38 0.29 0.26 0.32 0.35 0.31 0.22 0.16 0.13
0.82 0.45 0.35 0.35 0.40 0.36 0.24 0.19 0.19 0.16 0.30 0.53 0.55 0.36 0.15 0.06 0.07 0.08 0.14 0.25 0.26 0.25 0.26 0.26 0.14 0.21 0.32 0.30 0.34 0.32 0.30 0.26 0.22 0.27 0.34 0.34 0.32 0.33 0.31 0.29 0.29 0.30 0.27
0.73 0.47 0.32 0.27 0.28 0.35 0.49 0.50 0.43 0.28 0.22 0.27 0.55 0.37 0.20 0.10 0.12 0.10 0.11 0.19 0.31 0.35 0.24 0.21 0.27 0.20 0.22 0.23 0.29 0.27 0.27 0.30 0.25 0.22 0.25 0.25 0.27 0.31 0.47 0.35 0.34 0.37 0.32
0.60 0.52 0.36 0.21 0.20 0.39 0.61 0.72 0.54 0.25 0.22 0.19 0.25 0.15 0.04 0.05 0.07 0.06 0.07 0.07 0.12 0.22 0.28 0.19 0.17 0.16 0.17 0.13 0.16 0.23 0.29 0.27 0.28 0.27 0.24 0.20 0.22 0.23 0.33 0.48 0.48 0.55 0.59
0.89 0.38 0.38 0.28 0.26 0.22 0.34 0.57 0.63 0.51 0.33 0.18 0.20 0.17 0.06 0.03 0.06 0.07 0.07 0.09 0.09 0.11 0.19 0.16 0.16 0.17 0.15 0.16 0.15 0.18 0.24 0.33 0.47 0.40 0.36 0.39 0.40 0.30 0.26 0.25 0.34 0.55 0.89
1.31 0.82 0.56 0.42 0.37 0.41 0.37 0.33 0.40 0.43 0.51 0.36 0.30 0.30 0.14 0.09 0.11 0.12 0.10 0.08 0.13 0.20 0.19 0.21 0.10 0.08 0.13 0.22 0.29 0.29 0.29 0.26 0.30 0.57 1.03 1.10 0.74 0.59 0.57 0.47 0.34 0.33 0.55
0.99 1.27 0.85 0.55 0.40 0.46 0.50 0.54 0.40 0.26 0.27 0.34 0.46 0.41 0.28 0.10 0.09 0.13 0.13 0.12 0.12 0.13 0.20 0.24 0.18 0.10 0.05 0.11 0.20 0.33 0.40 0.42 0.38 0.37 0.38 0.87 1.53 1.27 0.81 0.65 0.64 0.50 0.42
0.77 0.91 0.91 0.83 0.50 0.56 0.57 0.67 0.68 0.47 0.24 0.40 0.34 0.25 0.23 0.26 0.11 0.04 0.06 0.10 0.09 0.12 0.15 0.19 0.20 0.16 0.06 0.02 0.03 0.10 0.26 0.52 0.58 0.49 0.49 0.65 0.77 1.03 1.15 0.90 0.79 0.79 0.78
1.01 0.91 0.88 0.94 0.70 0.67 0.73 0.69 0.69 0.53 0.35 0.35 0.28 0.13 0.08 0.14 0.10 0.05 0.05 0.07 0.08 0.08 0.09 0.13 0.16 0.17 0.09 0.05 0.05 0.07 0.09 0.14 0.24 0.35 0.39 0.54 0.93 1.44 1.33 1.10 0.76 0.63 0.66
1.02 1.01 0.92 1.16 1.12 0.92 0.80 0.73 0.78 0.68 0.55 0.35 0.38 0.16 0.08 0.07 0.11 0.10 0.06 0.09 0.11 0.09 0.12 0.15 0.17 0.19 0.16 0.12 0.11 0.15 0.09 0.05 0.09 0.16 0.24 0.35 0.53 0.72 1.16 1.43 1.37 1.02 0.75
0.80 0.78 0.82 1.07 1.23 0.94 0.80 0.73 0.76 0.78 0.55 0.39 0.27 0.17 0.08 0.07 0.08 0.11 0.11 0.06 0.08 0.08 0.07 0.12 0.17 0.24 0.28 0.31 0.23 0.15 0.12 0.10 0.08 0.09 0.16 0.21 0.36 0.60 0.81 0.93 1.00 1.25 1.30
1.13 0.87 0.84 0.87 0.96 0.95 0.80 0.81 0.86 0.70 0.70 0.55 0.36 0.27 0.17 0.16 0.13 0.19 0.31 0.26 0.18 0.13 0.08 0.08 0.09 0.13 0.19 0.31 0.36 0.27 0.14 0.11 0.14 0.16 0.18 0.22 0.25 0.39 0.57 0.88 1.10 1.01 1.00
2.08 1.63 1.18 1.07 1.17 1.33 1.27 1.05 0.95 0.91 0.78 0.81 0.68 0.66 0.62 0.56 0.58 0.61 0.64 0.51 0.39 0.27 0.21 0.13 0.10 0.09 0.13 0.26 0.39 0.43 0.34 0.25 0.14 0.14 0.22 0.27 0.31 0.41 0.64 0.82 1.01 1.34 1.43
1.32 1.53 1.37 1.07 1.35 1.72 1.67 1.54 1.17 1.24 1.36 1.53 1.60 1.43 1.21 1.00 0.84 0.69 0.64 0.70 0.66 0.36 0.28 0.24 0.16 0.20 0.18 0.17 0.28 0.38 0.31 0.31 0.37 0.37 0.24 0.22 0.34 0.41 0.49 0.66 0.96 1.08 1.12
0.76 1.07 1.32 1.15 0.96 1.21 1.45 1.55 1.53 1.71 1.77 1.66 1.54 1.45 1.12 0.93 0.82 0.63 0.54 0.55 0.76 0.59 0.30 0.19 0.08 0.09 0.19 0.26 0.36 0.46 0.54 0.52 0.44 0.42 0.48 0.44 0.35 0.40 0.64 0.76 0.81 0.94 1.16
0.70 1.05 1.38 1.70 1.64 1.21 1.21 1.81 1.92 1.84 1.79 1.62 1.64 1.54 1.27 0.99 0.90 0.79 0.78 0.70 0.62 0.79 0.82 0.39 0.27 0.21 0.22 0.22 0.28 0.33 0.49 0.65 0.50 0.46 0.50 0.54 0.57 0.57 0.52 0.71 0.97 1.03 1.07
0.85 1.10 1.46 1.95 2.49 2.21 1.85 1.69 1.69 1.60 1.46 1.38 1.56 1.52 1.37 1.37 1.48 1.19 1.08 1.15 1.06 1.05 1.14 0.72 0.53 0.51 0.54 0.47 0.40 0.45 0.54 0.68 0.79 0.64 0.41 0.46 0.58 0.67 0.73 0.66 0.71 1.07 1.44
1.00 1.24 1.54 1.91 2.22 2.55 2.40 2.11 1.86 1.68 1.62 1.40 1.33 1.65 1.51 1.55 1.79 1.63 1.40 1.14 1.04 1.01 1.36 1.17 0.95 0.95 1.10 0.92 0.67 0.49 0.41 0.45 0.58 0.85 0.73 0.47 0.42 0.50 0.65 0.81 0.83 0.82 0.97
1.44 1.48 1.53 1.63 1.79 1.87 2.19 1.99 1.60 1.32 1.32 1.27 1.09 1.09 1.14 1.31 1.30 1.36 1.31 1.10 1.04 1.27 1.56 1.44 1.27 1.08 1.02 0.95 0.87 0.80 0.65 0.49 0.45 0.81 0.87 0.95 0.77 0.55 0.51 0.54 0.62 0.71 0.70
1.23 1.00 0.89 0.78 0.71 0.80 1.09 1.33 1.43 1.50 1.32 1.30 1.27 1.21 1.09 1.20 1.10 1.24 1.56 1.67 1.56 1.66 1.52 1.25 1.18 1.15 1.05 0.96 0.95 0.91 0.92 0.89 0.80 0.81 1.07 1.16 1.11 0.92 0.64 0.52 0.52 0.55 0.63
0.60 0.50 0.44 0.38 0.34 0.49 0.93 0.98 1.13 1.19 1.45 1.45 1.34 1.37 1.40 1.59 1.58 1.46 1.37 1.41 1.65 1.44 1.29 1.34 1.29 1.18 1.12 1.05 1.03 1.04 1.06 1.01 0.98 0.94 0.99 1.06 1.11 1.15 1.12 0.86 0.65 0.62 0.65
0.40 0.44 0.32 0.29 0.31 0.32 0.79 1.00 1.17 1.14 1.32 1.60 1.48 1.25 1.24 1.59 1.46 1.80 1.76 1.75 1.62 1.52 1.38 1.26 1.21 1.14 1.11 1.09 1.16 1.26 1.25 1.23 1.21 0.86 0.87 1.00 1.06 1.13 1.14 1.09 0.96 0.70 0.59
0.27 0.30 0.43 0.34 0.26 0.43 0.91 0.79 1.18 0.98 1.08 1.49 1.65 1.67 1.79 2.00 1.96 1.57 1.87 1.89 1.99 1.83 1.37 1.16 1.12 0.96 0.99 0.91 0.98 1.22 1.08 0.98 0.86 0.66 0.96 1.25 1.09 1.14 1.06 1.24 1.35 0.99 0.81
0.25 0.24 0.32 0.62 0.95 0.93 0.99 0.87 1.09 0.96 0.98 1.23 1.44 1.66 1.89 2.09 1.98 1.72 1.81 1.99 1.71 1.41 1.22 0.97 0.85 0.74 0.63 0.75 1.02 1.14 1.32 1.53 1.39 1.08 1.11 1.43 0.97 1.03 1.04 1.10 1.41 1.43 1.23
0.41 0.35 0.34 0.39 0.51 0.87 1.16 0.69 0.61 0.67 0.78 0.81 0.97 1.21 1.49 1.82 2.48 2.08 1.91 2.08 1.82 1.51 1.46 1.42 1.16 1.05 1.07 1.12 1.24 1.68 1.81 1.76 1.54 1.04 0.89 1.09 0.89 0.93 1.07 1.19 1.32 1.34 1.43
0.39 0.52 0.60 0.43 0.55 0.34 0.76 0.67 0.46 0.32 0.64 0.67 0.68 0.96 1.37 1.24 1.56 1.49 1.51 1.47 1.56 1.39 1.15 1.17 1.19 1.20 0.99 1.07 1.20 1.34 1.46 1.66 1.42 1.30 0.85 1.02 0.86 0.91 1.38 1.20 1.11 1.28 1.33

GFSMA_prec_precacc_150.txt.gz
Total_Precipitation_Accumulation
0.98 0.66 0.47 0.24 0.18 0.20 0.23 0.13 0.14 0.19 0.19 0.22 0.20 0.14 0.09 0.07 0.08 0.17 0.23 0.28 0.21 0.37 0.42 0.27 0.32 0.37 0.33 0.31 0.29 0.23 0.21 0.21 0.26 0.38 0.38 0.30 0.26 0.32 0.35 0.31 0.22 0.16 0.13
0.82 0.45 0.35 0.35 0.40 0.36 0.24 0.19 0.19 0.16 0.30 0.53 0.55 0.36 0.15 0.06 0.07 0.08 0.14 0.25 0.26 0.25 0.28 0.29 0.16 0.27 0.37 0.30 0.34 0.32 0.30 0.26 0.22 0.27 0.35 0.34 0.32 0.33 0.31 0.29 0.29 0.30 0.27
0.73 0.47 0.32 0.27 0.28 0.35 0.49 0.50 0.43 0.28 0.22 0.27 0.55 0.37 0.20 0.10 0.12 0.10 0.11 0.19 0.31 0.35 0.24 0.23 0.32 0.26 0.25 0.25 0.29 0.27 0.27 0.30 0.26 0.22 0.25 0.25 0.27 0.32 0.47 0.35 0.34 0.37 0.32
0.60 0.52 0.36 0.21 0.20 0.39 0.61 0.72 0.54 0.25 0.22 0.19 0.26 0.15 0.04 0.05 0.07 0.06 0.07 0.07 0.12 0.22 0.28 0.19 0.18 0.18 0.19 0.15 0.17 0.23 0.29 0.27 0.28 0.27 0.24 0.20 0.22 0.23 0.33 0.48 0.48 0.55 0.59
0.89 0.38 0.38 0.28 0.26 0.22 0.34 0.57 0.63 0.51 0.33 0.18 0.20 0.17 0.06 0.03 0.06 0.07 0.07 0.09 0.09 0.11 0.19 0.16 0.16 0.17 0.15 0.16 0.15 0.18 0.24 0.33 0.47 0.40 0.36 0.39 0.40 0.30 0.26 0.25 0.34 0.55 0.89
1.31 0.82 0.56 0.42 0.37 0.43 0.37 0.33 0.40 0.43 0.51 0.36 0.30 0.31 0.14 0.09 0.11 0.12 0.10 0.08 0.13 0.20 0.19 0.21 0.10 0.09 0.13 0.22 0.29 0.29 0.30 0.27 0.30 0.57 1.04 1.10 0.74 0.59 0.57 0.47 0.34 0.33 0.55
1.01 1.27 0.85 0.55 0.41 0.46 0.50 0.57 0.40 0.26 0.28 0.34 0.47 0.48 0.33 0.11 0.09 0.13 0.13 0.12 0.12 0.13 0.20 0.24 0.18 0.10 0.06 0.11 0.20 0.33 0.41 0.43 0.39 0.37 0.38 0.87 1.53 1.28 0.82 0.65 0.64 0.50 0.42
0.87 0.97 0.91 0.83 0.50 0.57 0.58 0.70 0.70 0.47 0.25 0.40 0.35 0.30 0.28 0.27 0.11 0.04 0.06 0.10 0.10 0.13 0.15 0.19 0.20 0.17 0.07 0.02 0.03 0.10 0.26 0.53 0.59 0.50 0.49 0.65 0.77 1.03 1.15 0.90 0.79 0.79 0.78
1.02 1.03 0.90 0.97 0.71 0.69 0.74 0.69 0.70 0.54 0.35 0.36 0.29 0.16 0.09 0.15 0.10 0.06 0.06 0.08 0.10 0.09 0.09 0.13 0.16 0.18 0.12 0.05 0.05 0.07 0.09 0.14 0.24 0.35 0.39 0.54 0.93 1.44 1.33 1.10 0.76 0.63 0.66
1.03 1.05 1.00 1.20 1.14 0.94 0.86 0.78 0.81 0.69 0.55 0.38 0.46 0.26 0.15 0.14 0.16 0.14 0.07 0.10 0.11 0.10 0.13 0.15 0.18 0.20 0.18 0.12 0.11 0.15 0.09 0.05 0.09 0.16 0.25 0.36 0.53 0.72 1.16 1.43 1.37 1.02 0.75
0.80 0.81 0.92 1.12 1.25 1.05 0.93 0.93 0.86 0.87 0.69 0.58 0.46 0.39 0.24 0.19 0.24 0.30 0.20 0.10 0.09 0.09 0.08 0.13 0.17 0.24 0.29 0.31 0.23 0.15 0.12 0.10 0.08 0.09 0.16 0.21 0.36 0.60 0.81 0.93 1.00 1.25 1.30
1.14 0.91 0.89 0.93 1.07 1.10 0.98 1.01 1.01 0.81 0.96 0.80 0.55 0.40 0.22 0.19 0.17 0.27 0.41 0.35 0.24 0.17 0.10 0.09 0.10 0.14 0.20 0.32 0.36 0.27 0.14 0.11 0.14 0.16 0.18 0.23 0.25 0.39 0.57 0.88 1.10 1.01 1.00
2.15 1.67 1.23 1.16 1.27 1.53 1.59 1.53 1.40 1.27 1.09 1.08 0.86 0.75 0.65 0.59 0.62 0.70 0.79 0.67 0.51 0.33 0.25 0.14 0.10 0.09 0.13 0.26 0.39 0.43 0.34 0.25 0.14 0.14 0.22 0.27 0.31 0.41 0.64 0.82 1.01 1.34 1.43
1.38 1.64 1.46 1.15 1.49 2.00 2.03 2.21 2.10 1.95 1.95 1.80 1.72 1.50 1.25 1.02 0.87 0.76 0.77 0.88 0.87 0.56 0.35 0.31 0.19 0.20 0.18 0.17 0.28 0.38 0.31 0.31 0.37 0.37 0.24 0.22 0.34 0.41 0.49 0.66 0.96 1.08 1.12
0.80 1.13 1.44 1.28 1.13 1.42 1.85 2.11 2.07 2.10 2.13 1.95 1.68 1.53 1.18 0.94 0.87 0.70 0.61 0.66 0.94 0.96 0.68 0.26 0.13 0.10 0.19 0.26 0.36 0.46 0.54 0.52 0.44 0.42 0.48 0.44 0.35 0.40 0.64 0.76 0.81 0.94 1.16
0.77 1.14 1.43 1.77 1.75 1.37 1.38 1.96 2.04 1.91 1.85 1.67 1.71 1.63 1.34 1.02 0.92 0.84 0.84 0.78 0.74 0.94 0.94 0.54 0.45 0.32 0.24 0.22 0.28 0.33 0.49 0.65 0.50 0.46 0.50 0.54 0.57 0.57 0.52 0.71 0.97 1.03 1.07
0.99 1.22 1.54 2.01 2.55 2.29 1.94 1.77 1.75 1.65 1.50 1.42 1.62 1.61 1.45 1.47 1.56 1.26 1.15 1.20 1.12 1.16 1.20 0.81 0.71 0.75 0.64 0.50 0.40 0.45 0.54 0.68 0.79 0.64 0.41 0.46 0.58 0.67 0.73 0.66 0.71 1.07 1.44
1.13 1.35 1.60 1.94 2.26 2.60 2.47 2.17 1.92 1.74 1.69 1.46 1.38 1.70 1.55 1.64 1.89 1.73 1.50 1.21 1.10 1.06 1.42 1.20 1.08 1.16 1.41 1.18 0.75 0.51 0.41 0.45 0.58 0.85 0.73 0.47 0.42 0.50 0.65 0.81 0.83 0.82 0.97
1.53 1.55 1.57 1.66 1.80 1.88 2.20 1.99 1.61 1.33 1.33 1.28 1.11 1.12 1.17 1.36 1.37 1.45 1.43 1.19 1.12 1.33 1.64 1.49 1.33 1.16 1.12 1.09 0.97 0.89 0.69 0.51 0.46 0.82 0.87 0.95 0.78 0.57 0.52 0.55 0.62 0.72 0.70
1.28 1.02 0.91 0.78 0.71 0.80 1.09 1.33 1.43 1.50 1.32 1.30 1.28 1.22 1.10 1.24 1.17 1.32 1.66 1.82 1.74 1.89 1.75 1.41 1.29 1.23 1.09 1.01 1.01 0.96 0.96 0.92 0.82 0.81 1.08 1.17 1.11 0.94 0.68 0.56 0.56 0.58 0.65
0.62 0.50 0.44 0.38 0.34 0.49 0.93 0.98 1.13 1.19 1.45 1.45 1.34 1.37 1.40 1.60 1.63 1.53 1.47 1.49 1.74 1.58 1.61 1.84 1.81 1.41 1.20 1.09 1.10 1.12 1.12 1.05 1.00 0.94 1.00 1.07 1.11 1.16 1.17 0.92 0.71 0.68 0.70
0.52 0.47 0.33 0.30 0.31 0.32 0.79 1.00 1.17 1.14 1.32 1.60 1.48 1.25 1.24 1.59 1.46 1.82 1.82 1.85 1.75 1.63 1.46 1.36 1.34 1.26 1.17 1.12 1.22 1.33 1.30 1.26 1.22 0.86 0.87 1.00 1.06 1.13 1.16 1.14 1.12 0.83 0.67
0.32 0.37 0.47 0.35 0.26 0.43 0.91 0.79 1.18 0.98 1.08 1.49 1.65 1.67 1.79 2.00 1.96 1.57 1.90 1.93 2.07 2.00 1.53 1.26 1.21 0.99 1.00 0.93 1.03 1.32 1.16 1.03 0.89 0.66 0.96 1.25 1.09 1.15 1.06 1.28 1.47 1.14 0.97
0.25 0.24 0.32 0.62 0.95 0.93 0.99 0.87 1.09 0.96 0.98 1.23 1.44 1.66 1.89 2.09 1.99 1.72 1.81 1.99 1.72 1.44 1.30 1.09 1.03 0.86 0.67 0.77 1.05 1.21 1.43 1.63 1.42 1.08 1.11 1.43 0.97 1.03 1.04 1.10 1.46 1.51 1.39
0.41 0.35 0.34 0.39 0.51 0.87 1.16 0.69 0.61 0.67 0.78 0.81 0.97 1.21 1.49 1.82 2.48 2.09 1.91 2.09 1.83 1.51 1.48 1.51 1.36 1.23 1.26 1.36 1.41 1.74 1.89 1.79 1.54 1.04 0.89 1.09 0.89 0.93 1.07 1.19 1.33 1.39 1.51
0.39 0.52 0.60 0.43 0.55 0.34 0.76 0.67 0.46 0.32 0.64 0.67 0.68 0.96 1.37 1.25 1.56 1.49 1.51 1.47 1.56 1.39 1.15 1.18 1.24 1.51 1.57 1.57 1.50 1.55 1.62 1.71 1.42 1.30 0.85 1.02 0.86 0.91 1.39 1.20 1.12 1.31 1.40

GFSMA_prec_precacc_153.txt.gz
Total_Precipitation_Accumulation
0.98 0.66 0.47 0.24 0.18 0.20 0.23 0.13 0.14 0.19 0.19 0.22 0.20 0.14 0.09 0.07 0.09 0.17 0.24 0.28 0.24 0.39 0.44 0.27 0.32 0.37 0.33 0.31 0.29 0.23 0.21 0.21 0.26 0.38 0.38 0.30 0.26 0.32 0.36 0.31 0.23 0.16 0.13
0.82 0.45 0.35 0.35 0.40 0.36 0.24 0.19 0.19 0.16 0.30 0.53 0.55 0.36 0.15 0.06 0.07 0.10 0.15 0.25 0.26 0.25 0.28 0.34 0.17 0.28 0.38 0.30 0.34 0.32 0.30 0.26 0.22 0.27 0.35 0.34 0.32 0.33 0.32 0.29 0.29 0.30 0.27
0.73 0.47 0.32 0.27 0.28 0.35 0.49 0.50 0.43 0.28 0.22 0.27 0.55 0.37 0.20 0.10 0.12 0.10 0.11 0.19 0.31 0.35 0.24 0.24 0.34 0.27 0.25 0.25 0.29 0.27 0.27 0.30 0.26 0.22 0.25 0.25 0.27 0.32 0.47 0.36 0.34 0.37 0.32
0.60 0.52 0.36 0.21 0.20 0.39 0.61 0.72 0.54 0.25 0.22 0.19 0.26 0.15 0.04 0.05 0.07 0.06 0.07 0.07 0.12 0.22 0.28 0.19 0.18 0.21 0.20 0.16 0.17 0.23 0.29 0.27 0.28 0.27 0.24 0.20 0.22 0.23 0.34 0.48 0.48 0.55 0.59
0.90 0.39 0.38 0.28 0.26 0.22 0.35 0.57 0.63 0.51 0.33 0.18 0.20 0.18 0.06 0.03 0.06 0.07 0.07 0.09 0.09 0.11 0.19 0.16 0.16 0.17 0.15 0.17 0.16 0.18 0.24 0.33 0.47 0.40 0.36 0.39 0.40 0.30 0.27 0.25 0.34 0.55 0.89
1.38 0.87 0.57 0.42 0.38 0.43 0.37 0.34 0.41 0.43 0.51 0.36 0.30 0.32 0.16 0.09 0.11 0.12 0.10 0.08 0.13 0.21 0.19 0.21 0.10 0.09 0.13 0.22 0.29 0.29 0.30 0.27 0.30 0.57 1.04 1.10 0.74 0.59 0.58 0.47 0.34 0.33 0.55
1.18 1.36 0.87 0.57 0.45 0.47 0.51 0.72 0.50 0.29 0.29 0.34 0.52 0.52 0.36 0.11 0.09 0.13 0.13 0.12 0.12 0.13 0.20 0.24 0.18 0.10 0.06 0.11 0.20 0.34 0.41 0.43 0.39 0.37 0.39 0.87 1.53 1.28 0.82 0.65 0.64 0.50 0.42
1.18 1.18 1.05 0.92 0.56 0.59 0.62 0.94 0.90 0.60 0.28 0.44 0.43 0.45 0.36 0.31 0.11 0.04 0.06 0.10 0.10 0.13 0.15 0.19 0.20 0.17 0.07 0.02 0.03 0.10 0.26 0.54 0.59 0.50 0.50 0.65 0.77 1.03 1.16 0.90 0.79 0.79 0.78
1.09 1.29 0.99 1.17 1.01 0.93 0.90 0.95 1.01 0.73 0.46 0.44 0.40 0.23 0.17 0.17 0.12 0.06 0.07 0.08 0.10 0.09 0.09 0.13 0.16 0.18 0.12 0.05 0.05 0.07 0.09 0.14 0.25 0.35 0.39 0.54 0.93 1.44 1.33 1.10 0.76 0.63 0.66
1.08 1.22 1.27 1.33 1.27 1.16 1.10 0.97 0.99 0.86 0.73 0.55 0.69 0.41 0.26 0.17 0.19 0.17 0.14 0.14 0.12 0.10 0.13 0.15 0.18 0.20 0.18 0.12 0.11 0.15 0.09 0.05 0.09 0.16 0.25 0.36 0.53 0.72 1.16 1.43 1.37 1.02 0.75
0.81 0.84 1.13 1.26 1.35 1.24 1.14 1.15 1.11 1.10 0.87 0.72 0.63 0.71 0.58 0.45 0.44 0.43 0.33 0.18 0.15 0.11 0.10 0.13 0.17 0.24 0.29 0.31 0.23 0.15 0.12 0.10 0.08 0.09 0.16 0.22 0.36 0.60 0.81 0.93 1.00 1.25 1.30
1.16 0.95 1.03 1.09 1.23 1.30 1.16 1.36 1.32 1.13 1.36 1.32 1.01 0.78 0.64 0.64 0.50 0.50 0.54 0.41 0.28 0.21 0.16 0.13 0.11 0.14 0.20 0.32 0.36 0.27 0.14 0.11 0.14 0.16 0.18 0.23 0.25 0.39 0.57 0.88 1.10 1.01 1.00
2.17 1.71 1.31 1.31 1.43 1.66 1.82 1.71 1.71 1.56 1.42 1.46 1.20 1.00 0.83 0.72 0.78 0.84 0.84 0.70 0.59 0.39 0.36 0.22 0.13 0.13 0.14 0.26 0.39 0.43 0.34 0.25 0.14 0.14 0.22 0.27 0.31 0.41 0.64 0.82 1.01 1.34 1.43
1.39 1.65 1.49 1.25 1.62 2.13 2.21 2.40 2.30 2.15 2.15 2.00 1.96 1.81 1.55 1.26 1.07 0.93 0.91 1.02 1.04 0.73 0.53 0.41 0.31 0.30 0.21 0.17 0.29 0.38 0.31 0.31 0.37 0.37 0.24 0.22 0.34 0.41 0.49 0.66 0.96 1.08 1.12
0.81 1.15 1.48 1.34 1.21 1.52 1.98 2.27 2.24 2.22 2.23 2.09 1.86 1.71 1.35 1.06 0.96 0.80 0.72 0.76 1.02 1.01 0.90 0.58 0.31 0.23 0.27 0.31 0.36 0.46 0.54 0.52 0.44 0.42 0.48 0.44 0.35 0.40 0.64 0.76 0.81 0.94 1.16
0.80 1.18 1.46 1.80 1.80 1.42 1.45 2.03 2.12 2.02 1.92 1.72 1.75 1.67 1.40 1.09 1.02 0.92 0.93 0.85 0.80 0.97 0.95 0.60 0.52 0.37 0.33 0.29 0.31 0.34 0.50 0.66 0.50 0.46 0.50 0.54 0.57 0.57 0.52 0.71 0.97 1.03 1.07
1.02 1.26 1.59 2.07 2.62 2.36 2.02 1.84 1.84 1.78 1.64 1.50 1.63 1.63 1.49 1.56 1.66 1.37 1.25 1.27 1.18 1.23 1.23 0.84 0.80 0.86 0.81 0.60 0.45 0.48 0.56 0.68 0.79 0.64 0.41 0.46 0.58 0.67 0.73 0.66 0.71 1.07 1.44
1.20 1.43 1.72 2.08 2.44 2.76 2.60 2.29 1.97 1.79 1.74 1.50 1.42 1.74 1.61 1.72 1.97 1.82 1.69 1.39 1.26 1.18 1.50 1.23 1.17 1.29 1.52 1.38 0.96 0.65 0.47 0.47 0.60 0.85 0.73 0.47 0.42 0.50 0.65 0.81 0.83 0.82 0.97
1.68 1.74 1.78 1.85 1.98 2.07 2.29 2.13 1.72 1.37 1.36 1.31 1.15 1.17 1.22 1.43 1.44 1.53 1.54 1.29 1.24 1.44 1.74 1.58 1.40 1.24 1.18 1.20 1.11 1.03 0.81 0.53 0.47 0.83 0.87 0.95 0.78 0.57 0.52 0.55 0.62 0.72 0.70
1.56 1.27 1.20 1.11 0.93 0.94 1.16 1.38 1.50 1.53 1.33 1.30 1.29 1.24 1.12 1.26 1.19 1.37 1.74 1.88 1.77 1.95 1.87 1.56 1.45 1.38 1.17 1.05 1.07 1.16 1.25 1.12 0.91 0.86 1.09 1.17 1.12 0.95 0.68 0.56 0.57 0.59 0.65
0.81 0.74 0.66 0.59 0.53 0.66 1.00 1.01 1.14 1.20 1.45 1.45 1.34 1.37 1.40 1.60 1.64 1.55 1.49 1.52 1.78 1.65 1.76 2.12 2.18 1.81 1.56 1.44 1.32 1.22 1.18 1.18 1.21 1.07 1.02 1.07 1.11 1.16 1.17 0.93 0.73 0.72 0.74
0.74 0.59 0.42 0.38 0.38 0.39 0.83 1.02 1.17 1.15 1.32 1.60 1.48 1.25 1.24 1.59 1.46 1.82 1.82 1.86 1.77 1.69 1.55 1.46 1.43 1.39 1.35 1.29 1.43 1.63 1.55 1.39 1.33 0.98 1.00 1.06 1.11 1.13 1.16 1.15 1.14 0.87 0.72
0.37 0.48 0.59 0.43 0.28 0.45 0.93 0.79 1.19 0.98 1.08 1.49 1.65 1.67 1.79 2.00 1.96 1.57 1.90 1.93 2.07 2.02 1.59 1.36 1.34 1.08 1.05 0.99 1.13 1.42 1.27 1.17 1.06 0.83 1.20 1.53 1.21 1.16 1.07 1.29 1.49 1.15 0.98
0.25 0.24 0.34 0.69 1.01 0.96 1.00 0.87 1.09 0.96 0.98 1.23 1.44 1.66 1.89 2.09 1.99 1.72 1.81 1.99 1.72 1.44 1.30 1.10 1.05 0.95 0.78 0.85 1.20 1.38 1.51 1.72 1.53 1.27 1.43 1.78 1.16 1.08 1.05 1.10 1.48 1.52 1.40
0.41 0.35 0.34 0.39 0.52 0.89 1.18 0.70 0.61 0.67 0.78 0.81 0.97 1.21 1.49 1.82 2.49 2.09 1.91 2.09 1.83 1.51 1.48 1.52 1.37 1.25 1.34 1.45 1.45 1.78 1.96 1.94 1.68 1.11 0.96 1.17 0.93 0.95 1.07 1.19 1.33 1.39 1.51
0.39 0.52 0.60 0.43 0.55 0.34 0.77 0.68 0.46 0.32 0.64 0.67 0.68 0.96 1.38 1.25 1.56 1.49 1.51 1.47 1.56 1.39 1.15 1.19 1.25 1.51 1.58 1.61 1.58 1.59 1.66 1.78 1.56 1.47 0.97 1.09 0.89 0.92 1.39 1.20 1.12 1.31 1.40

GFSMA_prec_precacc_156.txt.gz
Total_Precipitation_Accumulation
0.98 0.66 0.47 0.24 0.18 0.20 0.23 0.13 0.14 0.19 0.19 0.22 0.20 0.14 0.09 0.07 0.09 0.17 0.24 0.28 0.24 0.42 0.44 0.28 0.33 0.37 0.33 0.31 0.29 0.23 0.21 0.21 0.26 0.38 0.38 0.30 0.27 0.32 0.36 0.31 0.23 0.17 0.13
0.82 0.45 0.35 0.35 0.40 0.36 0.24 0.19 0.19 0.16 0.30 0.53 0.55 0.36 0.15 0.06 0.07 0.10 0.15 0.25 0.26 0.26 0.30 0.36 0.21 0.28 0.38 0.30 0.34 0.32 0.30 0.26 0.23 0.27 0.35 0.34 0.32 0.33 0.32 0.30 0.30 0.30 0.27
0.73 0.47 0.32 0.27 0.28 0.35 0.50 0.50 0.43 0.28 0.22 0.27 0.55 0.37 0.20 0.10 0.12 0.10 0.11 0.19 0.31 0.35 0.24 0.24 0.34 0.31 0.27 0.25 0.29 0.27 0.27 0.30 0.26 0.22 0.25 0.25 0.27 0.32 0.47 0.36 0.34 0.37 0.32
0.61 0.52 0.37 0.21 0.20 0.40 0.64 0.73 0.55 0.26 0.22 0.19 0.26 0.15 0.04 0.05 0.07 0.06 0.07 0.07 0.12 0.22 0.28 0.19 0.18 0.22 0.24 0.19 0.17 0.23 0.29 0.27 0.28 0.27 0.24 0.20 0.22 0.23 0.34 0.48 0.49 0.55 0.59
1.04 0.58 0.47 0.29 0.27 0.23 0.36 0.62 0.65 0.52 0.33 0.18 0.20 0.20 0.06 0.03 0.06 0.07 0.07 0.09 0.09 0.11 0.19 0.16 0.16 0.17 0.16 0.19 0.17 0.18 0.24 0.33 0.47 0.40 0.36 0.39 0.40 0.30 0.27 0.25 0.34 0.55 0.89
1.46 1.02 0.71 0.49 0.47 0.54 0.42 0.37 0.49 0.49 0.53 0.36 0.31 0.38 0.21 0.11 0.12 0.12 0.10 0.08 0.13 0.21 0.19 0.21 0.10 0.09 0.13 0.22 0.31 0.30 0.30 0.28 0.30 0.57 1.04 1.10 0.74 0.60 0.58 0.48 0.34 0.33 0.55
1.20 1.41 0.93 0.61 0.53 0.55 0.59 0.78 0.65 0.47 0.34 0.38 0.63 0.62 0.43 0.15 0.11 0.13 0.13 0.12 0.12 0.13 0.20 0.24 0.18 0.10 0.06 0.11 0.21 0.36 0.42 0.44 0.40 0.38 0.39 0.87 1.53 1.28 0.82 0.66 0.64 0.50 0.42
1.24 1.28 1.21 1.07 0.69 0.67 0.74 1.09 1.05 0.88 0.47 0.57 0.69 0.76 0.53 0.44 0.16 0.10 0.13 0.12 0.10 0.13 0.16 0.20 0.20 0.17 0.07 0.02 0.03 0.11 0.29 0.56 0.61 0.51 0.50 0.65 0.77 1.03 1.16 0.91 0.80 0.79 0.78
1.10 1.33 1.09 1.34 1.20 1.20 1.04 1.17 1.30 0.99 0.62 0.63 0.65 0.48 0.32 0.25 0.21 0.19 0.15 0.15 0.13 0.10 0.09 0.14 0.16 0.18 0.12 0.05 0.05 0.07 0.09 0.15 0.27 0.37 0.39 0.54 0.93 1.44 1.33 1.10 0.76 0.63 0.66
1.08 1.23 1.31 1.46 1.45 1.38 1.36 1.25 1.40 1.21 1.06 0.77 0.93 0.71 0.54 0.47 0.41 0.28 0.20 0.19 0.20 0.15 0.15 0.16 0.18 0.21 0.19 0.12 0.11 0.15 0.09 0.05 0.09 0.16 0.25 0.36 0.53 0.72 1.16 1.43 1.37 1.02 0.75
0.81 0.84 1.13 1.29 1.44 1.40 1.34 1.40 1.38 1.45 1.30 1.28 1.05 1.04 1.00 0.78 0.72 0.69 0.43 0.26 0.25 0.20 0.19 0.20 0.24 0.30 0.31 0.31 0.23 0.15 0.12 0.10 0.08 0.09 0.17 0.22 0.36 0.60 0.81 0.93 1.00 1.25 1.30
1.16 0.95 1.03 1.09 1.24 1.35 1.24 1.47 1.54 1.38 1.58 1.57 1.31 1.10 0.92 0.91 0.71 0.65 0.67 0.54 0.38 0.28 0.22 0.22 0.19 0.18 0.25 0.34 0.38 0.27 0.15 0.11 0.14 0.16 0.18 0.23 0.25 0.39 0.57 0.88 1.10 1.01 1.00
2.17 1.71 1.31 1.31 1.43 1.67 1.85 1.81 1.82 1.76 1.59 1.60 1.34 1.19 1.03 0.97 1.17 1.49 1.65 1.30 0.94 0.50 0.41 0.29 0.20 0.19 0.20 0.34 0.43 0.44 0.35 0.26 0.14 0.14 0.22 0.27 0.31 0.41 0.64 0.82 1.01 1.34 1.43
1.39 1.66 1.49 1.25 1.62 2.14 2.24 2.47 2.40 2.24 2.24 2.13 2.05 1.91 1.68 1.38 1.20 1.09 1.19 1.39 1.36 0.88 0.61 0.49 0.43 0.41 0.31 0.23 0.33 0.45 0.34 0.34 0.37 0.37 0.24 0.22 0.34 0.41 0.49 0.66 0.96 1.08 1.12
0.82 1.16 1.48 1.34 1.21 1.52 2.00 2.35 2.31 2.25 2.29 2.16 1.95 1.74 1.39 1.13 1.04 0.90 0.79 0.80 1.05 1.02 0.92 0.62 0.40 0.31 0.37 0.41 0.44 0.58 0.63 0.58 0.47 0.42 0.48 0.44 0.35 0.41 0.64 0.76 0.81 0.94 1.16
0.80 1.19 1.49 1.83 1.83 1.44 1.46 2.06 2.16 2.06 1.95 1.73 1.78 1.72 1.43 1.13 1.04 0.93 0.95 0.88 0.82 0.98 0.95 0.60 0.55 0.41 0.38 0.34 0.37 0.40 0.55 0.72 0.55 0.47 0.50 0.54 0.58 0.57 0.52 0.71 0.97 1.03 1.07
1.04 1.29 1.64 2.11 2.65 2.39 2.05 1.87 1.88 1.82 1.66 1.52 1.66 1.64 1.51 1.58 1.68 1.37 1.25 1.29 1.20 1.25 1.24 0.84 0.80 0.87 0.82 0.61 0.47 0.53 0.62 0.73 0.81 0.66 0.41 0.46 0.58 0.67 0.73 0.66 0.71 1.07 1.44
1.26 1.50 1.82 2.20 2.51 2.81 2.67 2.36 2.03 1.82 1.76 1.52 1.45 1.77 1.62 1.73 1.97 1.83 1.69 1.40 1.28 1.21 1.54 1.23 1.17 1.31 1.57 1.42 0.99 0.69 0.52 0.50 0.62 0.88 0.74 0.47 0.42 0.50 0.65 0.81 0.83 0.82 0.97
1.79 1.82 1.85 1.94 2.10 2.23 2.48 2.22 1.78 1.42 1.39 1.31 1.16 1.18 1.24 1.46 1.47 1.56 1.59 1.37 1.32 1.55 1.88 1.70 1.45 1.29 1.25 1.28 1.18 1.06 0.84 0.57 0.49 0.86 0.90 0.96 0.78 0.57 0.52 0.55 0.62 0.72 0.70
1.65 1.36 1.29 1.25 1.01 1.04 1.39 1.54 1.66 1.63 1.39 1.34 1.30 1.24 1.14 1.27 1.21 1.38 1.75 1.90 1.80 1.98 1.94 1.67 1.60 1.51 1.23 1.11 1.14 1.21 1.28 1.13 0.95 0.90 1.15 1.20 1.13 0.95 0.68 0.56 0.57 0.59 0.66
0.94 0.85 0.75 0.72 0.70 0.86 1.27 1.37 1.42 1.45 1.66 1.54 1.37 1.38 1.41 1.63 1.67 1.56 1.49 1.52 1.79 1.67 1.78 2.16 2.21 1.86 1.66 1.59 1.42 1.27 1.22 1.20 1.23 1.15 1.10 1.18 1.21 1.21 1.17 0.93 0.73 0.73 0.75
0.86 0.72 0.51 0.46 0.45 0.54 1.08 1.30 1.54 1.42 1.55 1.89 1.65 1.30 1.25 1.59 1.47 1.83 1.83 1.86 1.78 1.69 1.56 1.48 1.47 1.41 1.36 1.31 1.51 1.80 1.85 1.57 1.39 1.02 1.15 1.30 1.35 1.38 1.27 1.17 1.15 0.88 0.72
0.44 0.58 0.68 0.52 0.34 0.52 1.02 0.91 1.35 1.19 1.22 1.54 1.73 1.70 1.79 2.01 1.96 1.57 1.90 1.93 2.08 2.03 1.59 1.36 1.35 1.09 1.08 1.04 1.17 1.48 1.33 1.27 1.19 0.89 1.24 1.59 1.52 1.67 1.52 1.61 1.66 1.20 1.00
0.26 0.25 0.36 0.75 1.09 1.01 1.03 0.89 1.11 1.00 1.05 1.28 1.46 1.66 1.89 2.09 1.99 1.72 1.81 1.99 1.72 1.44 1.30 1.11 1.06 0.95 0.79 0.89 1.24 1.46 1.71 2.00 1.79 1.42 1.60 1.98 1.38 1.45 1.43 1.40 1.68 1.62 1.46
0.41 0.35 0.34 0.39 0.52 0.90 1.22 0.71 0.61 0.67 0.79 0.82 0.98 1.22 1.49 1.82 2.49 2.09 1.91 2.09 1.83 1.51 1.49 1.52 1.37 1.25 1.35 1.48 1.49 1.82 2.03 2.00 1.73 1.16 1.02 1.31 1.11 1.20 1.31 1.36 1.43 1.50 1.63
0.39 0.52 0.60 0.43 0.55 0.34 0.77 0.69 0.47 0.33 0.65 0.67 0.69 0.96 1.38 1.25 1.56 1.49 1.51 1.47 1.56 1.39 1.15 1.19 1.25 1.51 1.58 1.61 1.61 1.62 1.68 1.80 1.58 1.50 0.98 1.11 0.91 0.99 1.51 1.30 1.17 1.34 1.42

GFSMA_prec_precacc_159.txt.gz
Total_Precipitation_Accumulation
0.98 0.66 0.47 0.24 0.18 0.20 0.23 0.13 0.14 0.19 0.19 0.22 0.20 0.14 0.09 0.07 0.09 0.17 0.24 0.28 0.24 0.44 0.44 0.29 0.33 0.38 0.33 0.31 0.29 0.23 0.21 0.21 0.26 0.38 0.38 0.31 0.27 0.33 0.36 0.32 0.23 0.17 0.13
0.84 0.46 0.35 0.35 0.40 0.36 0.24 0.19 0.19 0.16 0.30 0.53 0.55 0.36 0.15 0.06 0.07 0.10 0.15 0.25 0.26 0.26 0.30 0.36 0.21 0.29 0.38 0.30 0.35 0.32 0.30 0.26 0.23 0.27 0.35 0.34 0.33 0.34 0.32 0.30 0.30 0.30 0.27
0.83 0.55 0.36 0.28 0.28 0.35 0.51 0.51 0.43 0.28 0.22 0.27 0.55 0.37 0.20 0.10 0.12 0.10 0.11 0.19 0.31 0.35 0.24 0.24 0.34 0.32 0.29 0.27 0.29 0.27 0.27 0.30 0.26 0.22 0.25 0.25 0.28 0.32 0.47 0.36 0.35 0.37 0.32
0.83 0.77 0.51 0.24 0.23 0.43 0.67 0.79 0.59 0.27 0.22 0.19 0.26 0.15 0.04 0.05 0.07 0.06 0.07 0.07 0.12 0.22 0.28 0.19 0.18 0.22 0.25 0.20 0.17 0.23 0.29 0.27 0.28 0.27 0.24 0.20 0.22 0.23 0.34 0.48 0.49 0.55 0.59
1.17 0.76 0.65 0.37 0.37 0.31 0.43 0.74 0.73 0.59 0.37 0.21 0.22 0.21 0.06 0.03 0.06 0.07 0.07 0.09 0.09 0.11 0.19 0.16 0.16 0.17 0.16 0.20 0.17 0.19 0.25 0.33 0.47 0.40 0.36 0.39 0.40 0.30 0.27 0.25 0.34 0.56 0.90
1.49 1.06 0.78 0.60 0.59 0.64 0.49 0.46 0.58 0.58 0.61 0.50 0.43 0.41 0.22 0.12 0.12 0.12 0.10 0.08 0.13 0.21 0.19 0.21 0.10 0.09 0.13 0.22 0.31 0.30 0.31 0.28 0.30 0.57 1.04 1.10 0.74 0.60 0.58 0.48 0.34 0.33 0.55
1.20 1.42 0.95 0.64 0.60 0.66 0.70 0.88 0.82 0.67 0.42 0.57 0.87 0.78 0.57 0.23 0.16 0.13 0.13 0.12 0.12 0.13 0.20 0.24 0.18 0.10 0.06 0.11 0.21 0.37 0.43 0.45 0.40 0.38 0.39 0.87 1.53 1.28 0.83 0.66 0.65 0.50 0.43
1.24 1.28 1.21 1.08 0.71 0.69 0.79 1.20 1.23 1.16 0.58 0.78 0.91 0.96 0.69 0.61 0.28 0.18 0.17 0.15 0.11 0.16 0.16 0.23 0.22 0.17 0.07 0.02 0.03 0.11 0.30 0.58 0.62 0.51 0.50 0.65 0.77 1.03 1.16 0.91 0.80 0.79 0.78
1.10 1.33 1.09 1.34 1.20 1.20 1.05 1.21 1.42 1.22 0.78 0.83 0.86 0.67 0.47 0.33 0.32 0.37 0.33 0.30 0.30 0.21 0.18 0.19 0.24 0.21 0.12 0.05 0.05 0.07 0.09 0.16 0.29 0.39 0.40 0.54 0.93 1.44 1.33 1.10 0.77 0.63 0.66
1.08 1.23 1.31 1.46 1.46 1.38 1.37 1.26 1.45 1.36 1.29 0.98 1.12 0.86 0.68 0.58 0.55 0.40 0.35 0.36 0.38 0.31 0.30 0.29 0.32 0.33 0.24 0.13 0.11 0.15 0.09 0.05 0.09 0.17 0.26 0.36 0.53 0.72 1.16 1.43 1.37 1.03 0.75
0.81 0.84 1.13 1.29 1.44 1.41 1.34 1.41 1.39 1.49 1.44 1.57 1.58 1.48 1.32 1.17 1.19 1.18 0.90 0.55 0.46 0.32 0.30 0.31 0.39 0.47 0.42 0.37 0.25 0.16 0.12 0.10 0.08 0.09 0.17 0.22 0.36 0.60 0.81 0.93 1.00 1.25 1.30
1.16 0.95 1.03 1.09 1.24 1.35 1.24 1.47 1.55 1.41 1.66 1.76 1.82 2.06 1.99 1.76 1.34 1.12 1.00 0.74 0.54 0.38 0.30 0.31 0.28 0.27 0.35 0.42 0.42 0.32 0.17 0.12 0.14 0.16 0.18 0.23 0.25 0.39 0.57 0.88 1.10 1.01 1.00
2.17 1.71 1.31 1.31 1.43 1.67 1.85 1.81 1.82 1.79 1.64 1.67 1.48 1.42 1.38 1.41 1.53 1.77 1.99 1.70 1.42 1.04 0.86 0.60 0.35 0.24 0.25 0.39 0.46 0.49 0.42 0.29 0.15 0.14 0.22 0.27 0.31 0.41 0.64 0.82 1.01 1.34 1.43
1.39 1.66 1.49 1.25 1.62 2.14 2.24 2.47 2.40 2.25 2.30 2.22 2.16 2.05 1.87 1.60 1.43 1.30 1.43 1.63 1.66 1.10 0.74 0.58 0.51 0.48 0.33 0.24 0.34 0.49 0.41 0.38 0.41 0.37 0.24 0.22 0.34 0.41 0.49 0.66 0.96 1.08 1.12
0.82 1.16 1.49 1.34 1.21 1.52 2.00 2.35 2.32 2.26 2.31 2.22 2.06 1.89 1.51 1.21 1.17 1.06 0.96 0.93 1.13 1.04 0.92 0.62 0.40 0.31 0.37 0.42 0.46 0.61 0.69 0.63 0.56 0.49 0.50 0.44 0.35 0.42 0.66 0.77 0.81 0.94 1.16
0.80 1.19 1.49 1.85 1.85 1.45 1.46 2.06 2.17 2.08 1.99 1.77 1.88 1.81 1.51 1.18 1.09 0.98 1.01 0.95 0.87 0.99 0.95 0.60 0.55 0.41 0.40 0.38 0.42 0.45 0.57 0.78 0.62 0.55 0.55 0.56 0.58 0.57 0.54 0.74 1.00 1.03 1.07
1.04 1.30 1.65 2.15 2.69 2.40 2.06 1.88 1.88 1.83 1.69 1.55 1.73 1.73 1.59 1.63 1.72 1.40 1.28 1.31 1.22 1.25 1.24 0.84 0.80 0.87 0.83 0.62 0.48 0.55 0.65 0.78 0.85 0.71 0.46 0.49 0.59 0.67 0.73 0.67 0.73 1.09 1.44
1.27 1.54 1.86 2.27 2.59 2.86 2.70 2.38 2.03 1.84 1.80 1.56 1.50 1.81 1.67 1.79 2.01 1.84 1.70 1.41 1.29 1.22 1.55 1.24 1.17 1.31 1.57 1.42 1.00 0.70 0.53 0.52 0.64 0.89 0.79 0.54 0.45 0.51 0.65 0.82 0.84 0.82 0.97
1.82 1.88 1.92 2.04 2.19 2.28 2.56 2.32 1.84 1.49 1.49 1.39 1.23 1.24 1.26 1.47 1.48 1.57 1.61 1.39 1.34 1.56 1.90 1.71 1.45 1.29 1.25 1.28 1.19 1.07 0.84 0.58 0.49 0.87 0.92 1.00 0.83 0.60 0.54 0.56 0.63 0.72 0.70
1.69 1.42 1.38 1.36 1.10 1.10 1.49 1.75 1.84 1.82 1.63 1.50 1.39 1.31 1.17 1.30 1.23 1.40 1.77 1.92 1.81 2.00 1.97 1.70 1.62 1.53 1.25 1.12 1.16 1.24 1.31 1.15 0.96 0.91 1.18 1.22 1.16 0.99 0.71 0.58 0.59 0.60 0.66
0.96 0.93 0.84 0.79 0.78 0.93 1.34 1.47 1.60 1.64 1.84 1.80 1.56 1.49 1.48 1.70 1.73 1.62 1.53 1.53 1.80 1.67 1.79 2.18 2.23 1.87 1.68 1.62 1.48 1.33 1.28 1.25 1.29 1.19 1.12 1.20 1.23 1.24 1.21 0.95 0.75 0.74 0.76
0.87 0.76 0.58 0.54 0.53 0.64 1.19 1.42 1.68 1.69 1.79 2.05 1.79 1.42 1.35 1.66 1.51 1.87 1.87 1.90 1.79 1.69 1.56 1.48 1.48 1.43 1.38 1.33 1.54 1.87 1.92 1.62 1.43 1.06 1.22 1.34 1.37 1.41 1.38 1.29 1.23 0.93 0.74
0.44 0.58 0.70 0.55 0.37 0.59 1.12 0.98 1.42 1.40 1.60 1.93 1.96 1.90 1.91 2.05 2.00 1.58 1.91 1.94 2.08 2.03 1.60 1.37 1.35 1.09 1.08 1.05 1.19 1.51 1.36 1.28 1.20 0.90 1.26 1.61 1.52 1.67 1.53 1.73 1.93 1.46 1.12
0.26 0.25 0.36 0.75 1.09 1.02 1.07 0.91 1.13 1.02 1.15 1.59 1.82 1.87 2.03 2.16 2.01 1.74 1.82 1.99 1.72 1.44 1.30 1.11 1.06 0.95 0.79 0.89 1.24 1.47 1.72 2.01 1.83 1.46 1.62 2.01 1.40 1.46 1.44 1.42 1.77 1.83 1.72
0.41 0.35 0.34 0.39 0.52 0.90 1.22 0.72 0.62 0.69 0.81 0.86 1.10 1.39 1.59 1.87 2.51 2.10 1.91 2.09 1.83 1.51 1.49 1.52 1.37 1.25 1.35 1.48 1.50 1.84 2.04 2.01 1.74 1.17 1.04 1.36 1.20 1.31 1.45 1.56 1.59 1.59 1.74
0.39 0.52 0.60 0.43 0.55 0.34 0.77 0.70 0.47 0.33 0.65 0.69 0.70 1.00 1.44 1.30 1.61 1.51 1.52 1.47 1.56 1.39 1.15 1.19 1.25 1.51 1.58 1.61 1.61 1.62 1.68 1.81 1.59 1.50 0.98 1.12 0.92 1.02 1.64 1.46 1.34 1.48 1.54

GFSMA_prec_precacc_162.txt.gz
Total_Precipitation_Accumulation
1.04 0.70 0.49 0.25 0.18 0.21 0.24 0.13 0.14 0.19 0.19 0.22 0.20 0.14 0.09 0.07 0.09 0.17 0.24 0.28 0.24 0.44 0.45 0.31 0.34 0.38 0.34 0.31 0.29 0.23 0.21 0.21 0.26 0.38 0.38 0.31 0.28 0.33 0.37 0.32 0.24 0.17 0.14
0.93 0.53 0.42 0.38 0.41 0.37 0.25 0.20 0.20 0.16 0.30 0.53 0.55 0.36 0.15 0.06 0.07 0.10 0.15 0.25 0.26 0.26 0.30 0.38 0.25 0.30 0.40 0.31 0.35 0.32 0.30 0.26 0.23 0.27 0.35 0.34 0.33 0.34 0.32 0.30 0.30 0.31 0.28
0.87 0.63 0.45 0.35 0.32 0.37 0.54 0.57 0.45 0.29 0.22 0.28 0.55 0.37 0.20 0.10 0.12 0.10 0.11 0.19 0.31 0.35 0.24 0.25 0.35 0.35 0.34 0.30 0.29 0.27 0.27 0.30 0.26 0.22 0.25 0.25 0.28 0.32 0.48 0.36 0.35 0.38 0.33
0.83 0.80 0.61 0.34 0.29 0.48 0.72 0.85 0.61 0.29 0.23 0.23 0.26 0.16 0.05 0.05 0.07 0.06 0.07 0.07 0.12 0.22 0.28 0.19 0.18 0.23 0.25 0.23 0.19 0.23 0.29 0.27 0.28 0.27 0.24 0.20 0.22 0.24 0.34 0.49 0.49 0.56 0.60
1.17 0.76 0.66 0.41 0.41 0.36 0.51 0.83 0.81 0.64 0.40 0.23 0.25 0.26 0.11 0.04 0.06 0.07 0.07 0.09 0.09 0.11 0.19 0.16 0.16 0.17 0.16 0.20 0.20 0.20 0.25 0.34 0.47 0.40 0.36 0.39 0.40 0.30 0.28 0.26 0.34 0.56 0.90
1.49 1.06 0.78 0.61 0.61 0.69 0.59 0.57 0.73 0.71 0.69 0.58 0.54 0.46 0.28 0.15 0.14 0.12 0.10 0.08 0.13 0.21 0.19 0.21 0.10 0.09 0.13 0.22 0.31 0.32 0.32 0.30 0.31 0.58 1.04 1.10 0.74 0.60 0.58 0.48 0.34 0.34 0.56
1.20 1.42 0.95 0.64 0.61 0.68 0.74 0.95 0.92 0.81 0.53 0.69 1.04 0.85 0.62 0.30 0.21 0.14 0.14 0.12 0.12 0.13 0.20 0.24 0.18 0.10 0.06 0.11 0.21 0.38 0.45 0.48 0.42 0.39 0.40 0.87 1.53 1.28 0.83 0.66 0.65 0.51 0.43
1.24 1.28 1.21 1.08 0.71 0.70 0.80 1.22 1.26 1.22 0.73 1.00 1.09 1.07 0.75 0.66 0.32 0.21 0.17 0.15 0.14 0.19 0.18 0.24 0.22 0.17 0.07 0.02 0.03 0.11 0.31 0.60 0.66 0.52 0.51 0.66 0.77 1.03 1.16 0.91 0.80 0.79 0.78
1.10 1.33 1.09 1.34 1.21 1.20 1.05 1.21 1.42 1.23 0.82 0.97 1.13 1.12 1.02 0.71 0.40 0.40 0.36 0.33 0.36 0.27 0.25 0.29 0.40 0.36 0.19 0.07 0.05 0.07 0.09 0.16 0.30 0.41 0.40 0.54 0.93 1.44 1.33 1.10 0.77 0.63 0.66
1.08 1.23 1.31 1.46 1.46 1.39 1.37 1.26 1.45 1.37 1.30 0.99 1.20 1.00 0.84 0.76 0.71 0.46 0.39 0.41 0.46 0.41 0.42 0.39 0.40 0.45 0.38 0.20 0.13 0.15 0.09 0.05 0.09 0.18 0.27 0.36 0.53 0.72 1.16 1.43 1.37 1.03 0.76
0.81 0.84 1.13 1.29 1.44 1.41 1.35 1.42 1.39 1.50 1.45 1.59 1.61 1.68 1.59 1.45 1.48 1.45 1.08 0.63 0.52 0.47 0.56 0.67 0.78 0.73 0.54 0.46 0.31 0.18 0.13 0.10 0.08 0.09 0.17 0.22 0.36 0.60 0.81 0.93 1.00 1.25 1.30
1.16 0.95 1.03 1.09 1.24 1.35 1.24 1.48 1.56 1.42 1.67 1.77 1.84 2.12 2.20 2.21 2.06 2.02 1.93 1.37 0.81 0.54 0.45 0.47 0.48 0.55 0.61 0.59 0.50 0.38 0.21 0.13 0.14 0.16 0.19 0.23 0.25 0.39 0.57 0.88 1.10 1.01 1.00
2.17 1.71 1.31 1.31 1.44 1.67 1.85 1.81 1.84 1.81 1.65 1.68 1.49 1.45 1.44 1.56 1.84 2.34 2.74 2.50 2.07 1.36 1.06 0.79 0.53 0.35 0.30 0.45 0.51 0.54 0.47 0.34 0.17 0.14 0.22 0.27 0.31 0.41 0.64 0.82 1.01 1.34 1.43
1.39 1.66 1.49 1.25 1.63 2.15 2.24 2.49 2.41 2.25 2.30 2.22 2.17 2.06 1.90 1.65 1.52 1.45 1.76 2.00 1.95 1.40 1.01 0.77 0.65 0.62 0.48 0.35 0.40 0.54 0.46 0.43 0.45 0.40 0.25 0.23 0.35 0.42 0.49 0.66 0.96 1.08 1.12
0.82 1.17 1.49 1.35 1.22 1.53 2.03 2.36 2.32 2.26 2.31 2.23 2.07 1.90 1.53 1.25 1.20 1.12 1.05 1.03 1.30 1.35 1.21 0.78 0.54 0.37 0.39 0.46 0.51 0.67 0.76 0.68 0.60 0.53 0.54 0.46 0.36 0.42 0.66 0.77 0.81 0.94 1.16
0.81 1.19 1.50 1.85 1.85 1.47 1.47 2.06 2.17 2.08 1.99 1.77 1.89 1.84 1.53 1.22 1.14 1.01 1.06 1.01 0.93 1.07 1.07 0.78 0.71 0.47 0.41 0.38 0.43 0.47 0.58 0.79 0.63 0.56 0.58 0.59 0.60 0.58 0.54 0.74 1.00 1.04 1.08
1.05 1.30 1.66 2.16 2.71 2.41 2.06 1.88 1.89 1.83 1.69 1.55 1.74 1.76 1.62 1.68 1.77 1.43 1.30 1.35 1.23 1.27 1.25 0.85 0.82 0.90 0.84 0.62 0.48 0.55 0.65 0.78 0.85 0.71 0.47 0.51 0.60 0.68 0.74 0.67 0.74 1.12 1.49
1.28 1.55 1.87 2.29 2.61 2.87 2.70 2.40 2.05 1.85 1.82 1.57 1.50 1.84 1.71 1.85 2.07 1.91 1.75 1.44 1.31 1.22 1.55 1.24 1.18 1.33 1.57 1.42 1.00 0.71 0.53 0.52 0.66 0.91 0.81 0.57 0.48 0.53 0.66 0.83 0.84 0.84 1.01
1.82 1.88 1.94 2.06 2.21 2.29 2.59 2.36 1.89 1.53 1.54 1.45 1.27 1.28 1.32 1.56 1.59 1.63 1.64 1.41 1.35 1.57 1.91 1.72 1.45 1.30 1.27 1.29 1.19 1.07 0.85 0.58 0.50 0.88 0.93 1.03 0.86 0.63 0.56 0.58 0.64 0.73 0.72
1.69 1.43 1.39 1.38 1.13 1.14 1.53 1.80 1.89 1.89 1.77 1.67 1.56 1.46 1.28 1.44 1.38 1.47 1.82 1.94 1.84 2.03 1.98 1.71 1.64 1.54 1.25 1.12 1.16 1.24 1.31 1.15 0.96 0.91 1.18 1.24 1.18 1.02 0.76 0.63 0.64 0.63 0.69
0.97 0.93 0.84 0.80 0.80 0.96 1.38 1.51 1.64 1.72 1.98 2.01 1.82 1.73 1.68 1.85 1.91 1.75 1.60 1.58 1.83 1.70 1.81 2.21 2.26 1.89 1.70 1.63 1.49 1.34 1.29 1.26 1.30 1.19 1.13 1.20 1.24 1.25 1.23 0.99 0.82 0.79 0.78
0.87 0.76 0.58 0.54 0.54 0.65 1.21 1.45 1.74 1.74 1.88 2.18 1.99 1.72 1.63 1.84 1.63 1.97 1.95 2.00 1.88 1.74 1.59 1.51 1.53 1.47 1.42 1.38 1.56 1.90 1.96 1.66 1.44 1.07 1.25 1.38 1.39 1.42 1.38 1.30 1.26 0.99 0.81
0.44 0.58 0.70 0.55 0.37 0.59 1.13 1.00 1.45 1.44 1.66 2.02 2.09 2.02 2.09 2.32 2.18 1.69 2.01 2.03 2.19 2.15 1.69 1.44 1.40 1.10 1.11 1.08 1.21 1.52 1.37 1.31 1.22 0.92 1.29 1.64 1.59 1.74 1.56 1.75 1.97 1.52 1.23
0.26 0.25 0.36 0.75 1.09 1.02 1.07 0.93 1.14 1.03 1.20 1.66 1.92 2.03 2.16 2.30 2.21 1.93 1.94 2.13 1.82 1.52 1.41 1.16 1.09 0.96 0.80 0.89 1.24 1.47 1.73 2.03 1.84 1.47 1.64 2.03 1.41 1.46 1.45 1.43 1.79 1.87 1.79
0.42 0.35 0.34 0.39 0.52 0.90 1.22 0.73 0.63 0.69 0.81 0.87 1.13 1.50 1.79 2.04 2.64 2.22 2.03 2.21 1.95 1.63 1.53 1.55 1.38 1.25 1.35 1.50 1.51 1.84 2.04 2.01 1.75 1.18 1.05 1.37 1.21 1.31 1.45 1.57 1.61 1.61 1.77
0.39 0.52 0.61 0.43 0.55 0.34 0.77 0.70 0.48 0.34 0.66 0.69 0.70 1.01 1.51 1.47 1.74 1.60 1.56 1.50 1.61 1.42 1.16 1.19 1.25 1.52 1.58 1.62 1.62 1.62 1.68 1.81 1.60 1.51 0.98 1.12 0.92 1.03 1.64 1.47 1.36 1.53 1.58

GFSMA_prec_precacc_165.txt.gz
Total_Precipitation_Accumulation
1.08 0.74 0.52 0.28 0.21 0.23 0.26 0.17 0.17 0.20 0.20 0.22 0.20 0.14 0.09 0.07 0.09 0.17 0.24 0.28 0.24 0.44 0.45 0.32 0.37 0.41 0.34 0.32 0.30 0.23 0.21 0.21 0.26 0.38 0.38 0.31 0.28 0.33 0.38 0.33 0.24 0.18 0.14
0.93 0.55 0.44 0.41 0.45 0.42 0.28 0.24 0.23 0.19 0.30 0.53 0.55 0.36 0.15 0.06 0.07 0.10 0.15 0.25 0.26 0.26 0.30 0.39 0.28 0.35 0.43 0.32 0.37 0.33 0.31 0.26 0.23 0.27 0.35 0.34 0.33 0.34 0.33 0.31 0.30 0.31 0.28
0.87 0.63 0.45 0.35 0.33 0.40 0.56 0.61 0.49 0.33 0.25 0.29 0.55 0.37 0.20 0.10 0.12 0.10 0.11 0.19 0.31 0.35 0.24 0.25 0.36 0.36 0.39 0.36 0.31 0.28 0.28 0.30 0.26 0.22 0.25 0.25 0.28 0.33 0.48 0.36 0.35 0.38 0.33
0.83 0.80 0.61 0.34 0.29 0.48 0.73 0.88 0.64 0.32 0.28 0.27 0.27 0.16 0.05 0.05 0.07 0.06 0.07 0.07 0.12 0.22 0.28 0.19 0.18 0.23 0.25 0.26 0.21 0.23 0.30 0.28 0.28 0.27 0.24 0.20 0.22 0.24 0.34 0.49 0.49 0.56 0.61
1.17 0.76 0.66 0.41 0.41 0.36 0.51 0.84 0.83 0.69 0.46 0.29 0.28 0.27 0.11 0.04 0.06 0.07 0.07 0.09 0.09 0.11 0.19 0.16 0.16 0.17 0.16 0.20 0.22 0.22 0.26 0.34 0.47 0.40 0.36 0.39 0.40 0.31 0.28 0.26 0.35 0.56 0.91
1.49 1.06 0.78 0.61 0.61 0.69 0.59 0.57 0.74 0.74 0.75 0.65 0.60 0.50 0.30 0.16 0.14 0.12 0.10 0.08 0.13 0.21 0.19 0.21 0.10 0.09 0.13 0.22 0.32 0.34 0.35 0.31 0.31 0.58 1.04 1.10 0.74 0.60 0.59 0.49 0.35 0.34 0.56
1.20 1.42 0.95 0.64 0.61 0.68 0.74 0.95 0.92 0.82 0.55 0.77 1.18 0.98 0.71 0.35 0.23 0.15 0.15 0.13 0.12 0.13 0.20 0.24 0.18 0.10 0.06 0.11 0.21 0.39 0.47 0.51 0.44 0.40 0.40 0.87 1.53 1.28 0.83 0.67 0.65 0.51 0.43
1.24 1.28 1.21 1.08 0.71 0.70 0.80 1.22 1.26 1.23 0.74 1.05 1.31 1.42 1.11 0.93 0.52 0.30 0.19 0.16 0.15 0.20 0.18 0.24 0.22 0.17 0.07 0.02 0.03 0.11 0.31 0.62 0.70 0.55 0.51 0.66 0.77 1.03 1.16 0.91 0.81 0.80 0.79
1.10 1.33 1.09 1.34 1.21 1.20 1.05 1.21 1.42 1.23 0.82 0.97 1.14 1.23 1.23 1.02 0.75 0.65 0.50 0.37 0.37 0.29 0.26 0.29 0.41 0.37 0.20 0.08 0.05 0.07 0.09 0.16 0.31 0.44 0.42 0.54 0.94 1.44 1.33 1.10 0.77 0.64 0.67
1.08 1.23 1.31 1.46 1.46 1.39 1.38 1.27 1.46 1.37 1.31 1.00 1.20 1.00 0.87 0.86 0.92 0.76 0.63 0.59 0.51 0.44 0.43 0.43 0.44 0.48 0.44 0.29 0.19 0.17 0.10 0.06 0.11 0.19 0.28 0.36 0.53 0.72 1.16 1.43 1.37 1.03 0.76
0.81 0.84 1.13 1.29 1.44 1.41 1.35 1.42 1.40 1.50 1.46 1.60 1.63 1.69 1.60 1.46 1.53 1.55 1.21 0.76 0.65 0.61 0.66 0.77 0.85 0.80 0.62 0.53 0.39 0.26 0.17 0.12 0.10 0.12 0.20 0.22 0.36 0.60 0.81 0.93 1.00 1.25 1.30
1.16 0.95 1.03 1.09 1.24 1.35 1.25 1.48 1.56 1.43 1.69 1.78 1.85 2.13 2.22 2.23 2.08 2.07 2.00 1.49 1.03 0.68 0.55 0.60 0.65 0.71 0.77 0.73 0.60 0.44 0.29 0.20 0.18 0.17 0.21 0.26 0.25 0.39 0.57 0.88 1.10 1.01 1.00
2.17 1.71 1.31 1.31 1.44 1.67 1.86 1.82 1.87 1.84 1.66 1.69 1.49 1.45 1.45 1.58 1.86 2.37 2.79 2.57 2.22 1.61 1.32 0.99 0.70 0.58 0.58 0.71 0.72 0.67 0.56 0.46 0.29 0.21 0.24 0.29 0.33 0.41 0.64 0.82 1.01 1.34 1.43
1.40 1.66 1.49 1.25 1.63 2.15 2.25 2.50 2.42 2.26 2.30 2.23 2.17 2.06 1.91 1.66 1.53 1.48 1.81 2.30 2.45 1.72 1.22 0.89 0.75 0.75 0.64 0.54 0.58 0.67 0.57 0.52 0.55 0.55 0.35 0.24 0.36 0.43 0.50 0.66 0.96 1.08 1.12
0.82 1.17 1.49 1.35 1.22 1.54 2.04 2.36 2.32 2.26 2.31 2.23 2.07 1.90 1.53 1.25 1.22 1.15 1.09 1.11 1.48 1.54 1.33 0.83 0.58 0.43 0.43 0.51 0.59 0.77 0.84 0.76 0.67 0.61 0.66 0.56 0.38 0.43 0.67 0.77 0.81 0.94 1.16
0.81 1.20 1.50 1.85 1.86 1.48 1.48 2.06 2.17 2.08 1.99 1.77 1.89 1.84 1.54 1.22 1.15 1.04 1.10 1.07 0.99 1.12 1.11 0.78 0.73 0.52 0.48 0.42 0.44 0.50 0.64 0.86 0.70 0.64 0.64 0.69 0.68 0.61 0.55 0.74 1.00 1.04 1.08
1.05 1.30 1.66 2.17 2.71 2.42 2.06 1.88 1.89 1.83 1.69 1.56 1.74 1.77 1.62 1.68 1.78 1.45 1.35 1.42 1.29 1.31 1.27 0.87 0.82 0.91 0.85 0.63 0.50 0.57 0.66 0.80 0.89 0.76 0.53 0.59 0.72 0.76 0.78 0.68 0.74 1.13 1.50
1.28 1.55 1.87 2.29 2.61 2.88 2.70 2.40 2.06 1.85 1.83 1.58 1.51 1.84 1.72 1.85 2.08 1.93 1.81 1.55 1.41 1.27 1.57 1.25 1.19 1.33 1.57 1.42 1.00 0.71 0.53 0.53 0.66 0.92 0.82 0.59 0.51 0.56 0.69 0.84 0.85 0.84 1.02
1.82 1.88 1.94 2.06 2.21 2.29 2.59 2.37 1.89 1.54 1.55 1.47 1.30 1.30 1.34 1.57 1.61 1.67 1.74 1.53 1.48 1.73 2.01 1.76 1.46 1.31 1.28 1.29 1.19 1.08 0.85 0.58 0.50 0.89 0.94 1.04 0.88 0.65 0.58 0.60 0.65 0.74 0.72
1.69 1.43 1.39 1.38 1.13 1.14 1.54 1.81 1.90 1.90 1.77 1.70 1.61 1.51 1.33 1.50 1.45 1.57 1.92 2.11 2.09 2.19 2.17 1.77 1.66 1.54 1.25 1.13 1.17 1.25 1.32 1.16 0.96 0.91 1.19 1.24 1.20 1.06 0.79 0.65 0.66 0.67 0.71
0.97 0.94 0.84 0.80 0.80 0.96 1.38 1.51 1.65 1.73 1.99 2.03 1.87 1.83 1.87 2.10 2.09 1.94 1.79 1.77 2.03 2.06 1.97 2.27 2.28 1.90 1.70 1.64 1.49 1.34 1.29 1.26 1.30 1.20 1.13 1.20 1.24 1.27 1.27 1.05 0.84 0.84 0.88
0.87 0.76 0.58 0.54 0.54 0.65 1.21 1.45 1.74 1.75 1.89 2.20 2.03 1.79 1.75 2.09 1.91 2.23 2.19 2.27 2.12 1.96 1.75 1.61 1.58 1.50 1.44 1.41 1.61 1.91 1.97 1.67 1.45 1.07 1.25 1.38 1.40 1.42 1.39 1.32 1.28 1.01 0.86
0.44 0.58 0.70 0.56 0.37 0.59 1.13 1.00 1.46 1.45 1.67 2.05 2.14 2.09 2.19 2.48 2.41 1.92 2.29 2.28 2.42 2.36 1.79 1.51 1.46 1.18 1.15 1.13 1.27 1.59 1.43 1.37 1.27 0.94 1.31 1.66 1.60 1.75 1.56 1.76 1.97 1.53 1.24
0.26 0.25 0.36 0.75 1.09 1.02 1.07 0.93 1.15 1.03 1.20 1.67 1.96 2.10 2.27 2.40 2.37 2.17 2.14 2.35 2.02 1.72 1.49 1.22 1.18 1.09 0.87 0.94 1.31 1.54 1.84 2.16 1.94 1.52 1.71 2.09 1.43 1.49 1.47 1.47 1.86 1.91 1.81
0.42 0.35 0.34 0.39 0.52 0.90 1.22 0.74 0.63 0.69 0.82 0.87 1.13 1.52 1.85 2.11 2.76 2.39 2.22 2.40 2.13 1.77 1.63 1.73 1.54 1.39 1.56 1.66 1.62 1.93 2.16 2.10 1.84 1.29 1.07 1.39 1.23 1.35 1.51 1.61 1.64 1.71 1.86
0.39 0.52 0.61 0.43 0.55 0.34 0.78 0.71 0.48 0.34 0.66 0.69 0.70 1.01 1.52 1.49 1.81 1.71 1.66 1.65 1.77 1.58 1.33 1.28 1.47 1.72 1.71 1.82 1.79 1.72 1.72 1.83 1.61 1.52 0.99 1.14 0.93 1.04 1.66 1.48 1.37 1.54 1.60

GFSMA_prec_precacc_171.txt.gz
Total_Precipitation_Accumulation
1.08 0.74 0.52 0.28 0.21 0.24 0.29 0.24 0.29 0.31 0.27 0.29 0.31 0.25 0.19 0.12 0.10 0.17 0.24 0.28 0.24 0.44 0.45 0.32 0.39 0.43 0.35 0.32 0.30 0.24 0.21 0.21 0.26 0.38 0.38 0.31 0.28 0.34 0.38 0.33 0.24 0.18 0.15
0.93 0.55 0.44 0.41 0.45 0.42 0.29 0.25 0.27 0.24 0.36 0.59 0.62 0.48 0.28 0.17 0.13 0.12 0.15 0.25 0.26 0.26 0.30 0.39 0.30 0.40 0.47 0.34 0.37 0.33 0.31 0.26 0.23 0.27 0.35 0.34 0.33 0.34 0.33 0.31 0.30 0.31 0.28
0.87 0.63 0.45 0.35 0.33 0.40 0.56 0.61 0.49 0.35 0.29 0.35 0.61 0.44 0.31 0.21 0.23 0.15 0.12 0.19 0.31 0.36 0.24 0.25 0.36 0.37 0.42 0.41 0.32 0.28 0.28 0.30 0.26 0.23 0.25 0.25 0.28 0.33 0.48 0.37 0.35 0.38 0.34
0.83 0.80 0.61 0.34 0.29 0.48 0.73 0.88 0.64 0.33 0.29 0.30 0.31 0.20 0.12 0.14 0.17 0.17 0.17 0.10 0.12 0.23 0.28 0.19 0.18 0.23 0.26 0.27 0.22 0.24 0.30 0.28 0.28 0.27 0.24 0.20 0.22 0.24 0.34 0.49 0.49 0.56 0.61
1.17 0.76 0.66 0.41 0.41 0.36 0.51 0.84 0.83 0.69 0.46 0.29 0.29 0.29 0.13 0.08 0.12 0.16 0.18 0.18 0.16 0.14 0.19 0.17 0.16 0.17 0.16 0.21 0.22 0.24 0.27 0.34 0.47 0.40 0.36 0.39 0.40 0.31 0.28 0.26 0.35 0.56 0.91
1.49 1.06 0.78 0.61 0.61 0.69 0.59 0.57 0.74 0.74 0.75 0.65 0.61 0.50 0.30 0.17 0.16 0.17 0.18 0.19 0.26 0.31 0.23 0.23 0.12 0.10 0.13 0.22 0.32 0.35 0.38 0.32 0.32 0.58 1.04 1.10 0.74 0.60 0.59 0.49 0.35 0.34 0.56
1.20 1.42 0.95 0.64 0.61 0.68 0.74 0.95 0.92 0.82 0.55 0.77 1.18 0.98 0.71 0.36 0.27 0.20 0.20 0.20 0.23 0.26 0.32 0.35 0.24 0.11 0.06 0.12 0.21 0.39 0.48 0.56 0.49 0.41 0.41 0.87 1.53 1.28 0.83 0.67 0.66 0.51 0.43
1.24 1.28 1.21 1.08 0.71 0.70 0.80 1.22 1.26 1.23 0.74 1.05 1.31 1.42 1.11 0.93 0.52 0.37 0.31 0.32 0.28 0.34 0.34 0.38 0.35 0.25 0.10 0.03 0.05 0.12 0.31 0.65 0.77 0.60 0.51 0.66 0.77 1.03 1.16 0.91 0.81 0.80 0.79
1.10 1.33 1.09 1.34 1.21 1.21 1.05 1.21 1.43 1.23 0.83 0.97 1.14 1.25 1.25 1.03 0.76 0.67 0.56 0.45 0.44 0.38 0.38 0.40 0.55 0.52 0.31 0.12 0.08 0.08 0.09 0.16 0.32 0.48 0.43 0.54 0.94 1.44 1.33 1.10 0.77 0.64 0.67
1.08 1.23 1.31 1.46 1.46 1.39 1.38 1.27 1.46 1.38 1.32 1.02 1.21 1.01 0.90 0.90 0.95 0.77 0.66 0.64 0.62 0.53 0.51 0.50 0.52 0.60 0.56 0.41 0.28 0.25 0.13 0.07 0.11 0.20 0.29 0.36 0.53 0.72 1.16 1.43 1.37 1.03 0.76
0.81 0.84 1.13 1.29 1.44 1.41 1.35 1.42 1.40 1.51 1.48 1.63 1.65 1.71 1.61 1.48 1.54 1.57 1.22 0.77 0.73 0.73 0.77 0.87 0.98 0.93 0.74 0.66 0.51 0.43 0.27 0.18 0.15 0.21 0.27 0.23 0.36 0.60 0.81 0.93 1.00 1.25 1.30
1.16 0.95 1.03 1.09 1.24 1.36 1.25 1.48 1.57 1.45 1.70 1.80 1.86 2.14 2.24 2.25 2.11 2.10 2.03 1.51 1.04 0.72 0.63 0.72 0.81 0.87 0.94 0.90 0.77 0.62 0.51 0.39 0.40 0.42 0.47 0.43 0.29 0.39 0.57 0.88 1.10 1.01 1.00
2.17 1.71 1.31 1.31 1.44 1.67 1.86 1.83 1.88 1.84 1.66 1.69 1.50 1.46 1.46 1.59 1.88 2.40 2.82 2.60 2.25 1.63 1.36 1.04 0.76 0.66 0.72 0.93 0.99 0.94 0.79 0.67 0.50 0.43 0.45 0.51 0.49 0.46 0.64 0.82 1.01 1.34 1.43
1.40 1.66 1.50 1.25 1.63 2.15 2.25 2.51 2.43 2.26 2.30 2.23 2.17 2.06 1.92 1.67 1.55 1.51 1.84 2.35 2.49 1.74 1.25 0.92 0.79 0.83 0.78 0.67 0.71 0.94 0.85 0.79 0.82 0.77 0.51 0.38 0.51 0.55 0.54 0.68 0.97 1.08 1.12
0.82 1.17 1.49 1.35 1.22 1.54 2.04 2.37 2.32 2.26 2.31 2.23 2.08 1.91 1.54 1.26 1.24 1.17 1.11 1.15 1.54 1.60 1.36 0.86 0.61 0.45 0.46 0.61 0.78 1.00 1.02 0.92 0.84 0.80 0.87 0.79 0.57 0.51 0.72 0.82 0.84 0.95 1.16
0.81 1.20 1.50 1.85 1.86 1.48 1.48 2.06 2.17 2.09 2.00 1.77 1.90 1.85 1.54 1.23 1.16 1.06 1.12 1.09 1.02 1.16 1.17 0.80 0.75 0.55 0.51 0.45 0.47 0.57 0.85 1.19 0.94 0.77 0.78 0.86 0.90 0.90 0.73 0.80 1.03 1.06 1.09
1.05 1.30 1.66 2.17 2.71 2.42 2.06 1.88 1.89 1.84 1.69 1.56 1.74 1.77 1.63 1.69 1.79 1.47 1.37 1.44 1.32 1.35 1.32 0.88 0.85 0.94 0.89 0.67 0.54 0.61 0.71 0.88 0.97 0.82 0.60 0.69 0.86 0.95 1.04 0.93 0.85 1.15 1.52
1.28 1.55 1.87 2.29 2.61 2.88 2.70 2.40 2.06 1.85 1.83 1.59 1.52 1.85 1.72 1.86 2.09 1.94 1.83 1.56 1.42 1.30 1.63 1.31 1.23 1.36 1.60 1.46 1.04 0.77 0.59 0.59 0.72 0.96 0.86 0.63 0.59 0.77 1.00 1.14 1.10 0.97 1.06
1.83 1.88 1.94 2.06 2.21 2.30 2.59 2.37 1.89 1.54 1.55 1.48 1.31 1.31 1.35 1.58 1.63 1.69 1.76 1.54 1.49 1.75 2.04 1.83 1.54 1.38 1.32 1.33 1.25 1.16 0.93 0.63 0.56 0.93 0.95 1.09 0.98 0.74 0.75 0.90 1.03 1.10 0.95
1.69 1.43 1.39 1.38 1.13 1.14 1.54 1.81 1.90 1.90 1.78 1.70 1.63 1.53 1.36 1.53 1.49 1.62 1.95 2.13 2.11 2.21 2.20 1.90 1.81 1.64 1.39 1.20 1.27 1.33 1.41 1.27 1.02 0.94 1.20 1.25 1.24 1.16 0.91 0.80 0.90 1.01 1.14
0.97 0.94 0.85 0.80 0.81 0.96 1.38 1.51 1.66 1.75 2.00 2.05 1.88 1.85 1.89 2.14 2.16 2.03 1.91 1.86 2.08 2.12 2.04 2.41 2.51 2.14 1.84 1.86 1.60 1.41 1.36 1.33 1.40 1.26 1.16 1.22 1.25 1.28 1.36 1.21 1.02 1.04 1.06
0.87 0.76 0.59 0.54 0.54 0.65 1.21 1.45 1.76 1.77 1.90 2.21 2.04 1.80 1.77 2.13 1.95 2.34 2.31 2.37 2.29 2.18 2.13 1.86 1.77 1.81 1.79 1.56 1.87 2.06 2.06 1.78 1.56 1.11 1.27 1.40 1.41 1.43 1.39 1.34 1.42 1.21 1.04
0.44 0.58 0.70 0.56 0.37 0.59 1.13 1.01 1.46 1.45 1.69 2.07 2.15 2.11 2.21 2.51 2.46 2.02 2.42 2.42 2.65 2.60 2.23 2.03 1.85 1.47 1.62 1.48 1.47 1.91 1.69 1.43 1.34 0.99 1.34 1.68 1.61 1.76 1.57 1.76 1.98 1.60 1.44
0.26 0.25 0.36 0.75 1.09 1.02 1.07 0.94 1.15 1.03 1.20 1.68 1.97 2.11 2.29 2.41 2.40 2.22 2.27 2.51 2.26 2.06 1.96 1.80 1.67 1.48 1.27 1.29 1.65 1.76 2.14 2.50 2.07 1.58 1.75 2.12 1.45 1.50 1.48 1.48 1.87 1.91 1.82
0.42 0.35 0.34 0.39 0.52 0.90 1.22 0.74 0.64 0.69 0.82 0.87 1.13 1.53 1.86 2.12 2.77 2.43 2.30 2.53 2.35 2.07 2.15 2.23 2.17 1.83 1.99 2.07 1.92 2.32 2.50 2.46 2.39 1.54 1.19 1.42 1.25 1.38 1.54 1.63 1.66 1.73 1.89
0.39 0.52 0.61 0.43 0.55 0.34 0.78 0.72 0.49 0.34 0.66 0.69 0.70 1.01 1.52 1.49 1.81 1.73 1.75 1.76 1.95 1.85 1.70 1.75 1.96 2.23 2.08 2.22 2.16 1.97 2.20 2.36 2.12 2.09 1.23 1.31 1.00 1.07 1.70 1.51 1.43 1.61 1.64

GFSMA_prec_precacc_174.txt.gz
Total_Precipitation_Accumulation
1.08 0.74 0.52 0.28 0.21 0.24 0.29 0.24 0.29 0.31 0.27 0.29 0.31 0.25 0.21 0.16 0.13 0.20 0.26 0.43 0.29 0.44 0.46 0.33 0.39 0.44 0.35 0.32 0.30 0.24 0.21 0.21 0.26 0.38 0.38 0.31 0.28 0.34 0.38 0.33 0.24 0.18 0.15
0.93 0.55 0.44 0.41 0.45 0.42 0.29 0.25 0.27 0.24 0.36 0.59 0.62 0.48 0.28 0.17 0.16 0.16 0.16 0.37 0.47 0.36 0.33 0.42 0.32 0.40 0.47 0.34 0.37 0.33 0.31 0.26 0.23 0.27 0.35 0.34 0.33 0.34 0.33 0.31 0.30 0.31 0.28
0.87 0.63 0.45 0.35 0.33 0.40 0.56 0.61 0.49 0.35 0.29 0.35 0.61 0.44 0.31 0.21 0.23 0.16 0.13 0.21 0.46 0.55 0.33 0.29 0.40 0.40 0.43 0.42 0.32 0.28 0.28 0.30 0.26 0.23 0.25 0.25 0.28 0.33 0.48 0.37 0.35 0.38 0.34
0.83 0.80 0.61 0.34 0.29 0.48 0.73 0.88 0.64 0.33 0.29 0.30 0.31 0.20 0.12 0.14 0.17 0.18 0.18 0.11 0.14 0.32 0.47 0.31 0.28 0.27 0.29 0.30 0.23 0.24 0.30 0.28 0.28 0.27 0.24 0.20 0.22 0.24 0.34 0.49 0.49 0.56 0.61
1.17 0.76 0.66 0.41 0.41 0.36 0.51 0.84 0.83 0.69 0.46 0.29 0.29 0.29 0.13 0.08 0.12 0.16 0.18 0.19 0.17 0.16 0.26 0.38 0.35 0.29 0.27 0.30 0.27 0.25 0.28 0.35 0.47 0.40 0.36 0.39 0.40 0.31 0.28 0.26 0.35 0.56 0.91
1.49 1.06 0.78 0.61 0.61 0.69 0.59 0.57 0.74 0.74 0.75 0.65 0.61 0.50 0.30 0.17 0.16 0.17 0.18 0.19 0.26 0.31 0.23 0.30 0.32 0.30 0.41 0.55 0.44 0.38 0.40 0.34 0.33 0.58 1.04 1.10 0.74 0.60 0.59 0.49 0.35 0.34 0.56
1.20 1.42 0.95 0.64 0.61 0.68 0.74 0.95 0.92 0.82 0.55 0.77 1.18 0.98 0.71 0.36 0.27 0.20 0.20 0.20 0.23 0.26 0.32 0.37 0.31 0.25 0.23 0.28 0.29 0.44 0.49 0.58 0.50 0.42 0.41 0.87 1.53 1.28 0.83 0.67 0.66 0.51 0.43
1.24 1.28 1.21 1.08 0.71 0.70 0.80 1.22 1.26 1.23 0.74 1.05 1.31 1.42 1.11 0.93 0.52 0.37 0.31 0.32 0.28 0.34 0.34 0.39 0.39 0.32 0.24 0.25 0.22 0.18 0.36 0.66 0.79 0.61 0.52 0.66 0.77 1.03 1.16 0.91 0.81 0.80 0.79
1.10 1.33 1.09 1.34 1.21 1.21 1.05 1.21 1.43 1.23 0.83 0.97 1.14 1.25 1.25 1.03 0.76 0.67 0.56 0.45 0.44 0.38 0.38 0.40 0.55 0.56 0.44 0.35 0.47 0.49 0.27 0.20 0.33 0.49 0.43 0.54 0.94 1.44 1.33 1.10 0.77 0.64 0.67
1.08 1.23 1.31 1.46 1.46 1.39 1.38 1.27 1.46 1.38 1.32 1.02 1.21 1.01 0.90 0.90 0.96 0.78 0.66 0.64 0.62 0.53 0.51 0.50 0.52 0.60 0.58 0.52 0.55 0.74 0.53 0.18 0.14 0.21 0.29 0.36 0.53 0.72 1.16 1.43 1.37 1.03 0.76
0.81 0.84 1.13 1.29 1.44 1.41 1.35 1.42 1.40 1.51 1.48 1.63 1.66 1.71 1.61 1.48 1.55 1.58 1.23 0.77 0.73 0.73 0.77 0.87 0.98 0.93 0.75 0.71 0.60 0.57 0.65 0.75 0.62 0.39 0.33 0.24 0.36 0.60 0.81 0.93 1.00 1.25 1.30
1.16 0.95 1.03 1.09 1.24 1.36 1.25 1.48 1.57 1.45 1.70 1.80 1.86 2.14 2.24 2.26 2.11 2.11 2.03 1.51 1.05 0.72 0.63 0.72 0.81 0.87 0.94 0.91 0.82 0.75 0.68 0.57 0.66 0.88 0.73 0.49 0.31 0.40 0.57 0.88 1.10 1.01 1.00
2.17 1.71 1.31 1.31 1.44 1.67 1.86 1.83 1.88 1.84 1.66 1.69 1.50 1.46 1.46 1.60 1.88 2.41 2.83 2.60 2.25 1.63 1.36 1.04 0.76 0.66 0.72 0.93 1.00 0.97 0.87 0.83 0.73 0.70 0.76 0.76 0.57 0.53 0.67 0.83 1.01 1.34 1.43
1.40 1.66 1.50 1.25 1.63 2.15 2.25 2.51 2.43 2.26 2.30 2.23 2.17 2.07 1.92 1.67 1.56 1.51 1.85 2.37 2.50 1.74 1.25 0.92 0.79 0.83 0.78 0.67 0.71 0.94 1.00 1.01 0.96 1.06 1.01 0.88 0.66 0.64 0.62 0.72 0.99 1.08 1.12
0.82 1.17 1.49 1.35 1.22 1.54 2.04 2.37 2.32 2.26 2.31 2.23 2.08 1.91 1.54 1.27 1.24 1.18 1.12 1.16 1.57 1.64 1.37 0.86 0.61 0.45 0.46 0.61 0.78 1.00 1.04 1.03 1.09 1.06 1.22 1.51 1.16 0.68 0.81 0.89 0.90 0.98 1.17
0.81 1.20 1.50 1.85 1.86 1.48 1.48 2.06 2.17 2.09 2.00 1.77 1.90 1.85 1.55 1.23 1.17 1.06 1.13 1.10 1.03 1.19 1.20 0.81 0.75 0.55 0.51 0.45 0.47 0.57 0.85 1.19 1.05 0.94 0.92 1.16 1.57 1.45 0.95 0.88 1.08 1.10 1.13
1.05 1.30 1.66 2.17 2.71 2.42 2.06 1.88 1.89 1.84 1.69 1.56 1.74 1.78 1.63 1.69 1.79 1.48 1.37 1.45 1.33 1.37 1.34 0.89 0.85 0.94 0.89 0.67 0.54 0.61 0.71 0.88 1.00 0.92 0.72 0.79 1.11 1.56 1.50 1.03 0.91 1.21 1.57
1.28 1.55 1.87 2.29 2.61 2.88 2.70 2.41 2.06 1.85 1.83 1.59 1.52 1.85 1.72 1.86 2.09 1.95 1.84 1.57 1.43 1.31 1.64 1.32 1.23 1.36 1.60 1.46 1.04 0.77 0.59 0.59 0.74 1.03 0.90 0.65 0.62 0.85 1.28 1.26 1.15 1.02 1.12
1.83 1.88 1.94 2.06 2.21 2.30 2.59 2.38 1.89 1.54 1.55 1.48 1.31 1.32 1.35 1.59 1.64 1.69 1.77 1.56 1.50 1.75 2.05 1.84 1.55 1.38 1.32 1.33 1.25 1.16 0.93 0.63 0.57 0.98 1.00 1.13 1.00 0.76 0.78 0.94 1.07 1.14 0.99
1.69 1.43 1.39 1.38 1.13 1.14 1.54 1.81 1.90 1.90 1.78 1.70 1.63 1.54 1.36 1.54 1.50 1.64 1.97 2.13 2.12 2.22 2.21 1.91 1.81 1.64 1.39 1.20 1.27 1.33 1.41 1.27 1.03 0.96 1.24 1.27 1.25 1.18 0.94 0.83 0.94 1.06 1.20
0.97 0.94 0.85 0.80 0.81 0.96 1.38 1.51 1.66 1.75 2.00 2.05 1.88 1.85 1.90 2.15 2.17 2.04 1.92 1.87 2.09 2.13 2.05 2.42 2.51 2.14 1.84 1.86 1.60 1.41 1.36 1.33 1.40 1.31 1.20 1.24 1.27 1.30 1.38 1.23 1.05 1.11 1.22
0.87 0.76 0.59 0.54 0.54 0.65 1.21 1.45 1.76 1.77 1.90 2.21 2.05 1.80 1.77 2.14 1.96 2.34 2.31 2.38 2.29 2.19 2.16 1.88 1.79 1.82 1.80 1.56 1.87 2.07 2.07 1.78 1.57 1.16 1.43 1.47 1.44 1.45 1.39 1.35 1.44 1.25 1.07
0.44 0.58 0.70 0.56 0.37 0.59 1.13 1.01 1.46 1.45 1.69 2.07 2.16 2.11 2.21 2.52 2.46 2.02 2.42 2.43 2.65 2.60 2.25 2.07 1.90 1.48 1.63 1.48 1.48 1.94 1.70 1.44 1.34 1.01 1.40 1.79 1.71 1.81 1.59 1.77 1.98 1.60 1.45
0.26 0.25 0.36 0.75 1.09 1.02 1.07 0.94 1.15 1.03 1.20 1.68 1.97 2.11 2.30 2.42 2.41 2.22 2.27 2.51 2.26 2.07 1.97 1.83 1.71 1.53 1.32 1.34 1.70 1.81 2.17 2.51 2.07 1.59 1.86 2.26 1.55 1.58 1.50 1.48 1.88 1.91 1.83
0.42 0.35 0.34 0.39 0.52 0.90 1.22 0.74 0.64 0.69 0.82 0.87 1.13 1.53 1.86 2.13 2.78 2.43 2.31 2.54 2.36 2.07 2.15 2.25 2.21 1.89 2.05 2.13 2.00 2.41 2.53 2.48 2.40 1.58 1.28 1.54 1.31 1.43 1.59 1.63 1.66 1.73 1.89
0.39 0.52 0.61 0.43 0.55 0.34 0.78 0.72 0.49 0.34 0.67 0.69 0.71 1.01 1.52 1.49 1.81 1.73 1.75 1.77 1.97 1.85 1.70 1.76 1.98 2.26 2.14 2.30 2.23 2.09 2.29 2.42 2.18 2.30 1.37 1.42 1.11 1.12 1.76 1.53 1.43 1.62 1.65